[[{"header":{"parameterUnit":"m.s-1","parameterCategory":1,"la1":31.0,"la2":29.5877,"lo1":-88.7671,"lo2":-86.6584,"dy":0.0162,"dx":0.0185,"nx":115,"ny":88,"refTime":"2023-05-22T12:00:00:Z","depth":0,"parameterNumber":2,"parameterNumberName":"U-component_of_WINDS"},"data":[0.0,0.0,0.0,0.0,0.0,0.0,0.0,0.0,0.0,0.0,0.0,0.0,0.0,0.0,0.0,0.0,0.0,0.0,0.0,0.0,0.0,0.0,0.0,0.0,0.0,0.0,0.0,0.0,0.0,0.0,0.0,0.0,0.0,0.0,0.0,0.0,0.0,0.0,0.0,0.0,0.0,0.0,0.0,0.0,0.0,0.0,0.0,0.0,0.0,0.0,0.0,0.0,0.0,0.0,0.0,0.0,0.0,0.0,0.0,0.0,0.0,0.0,0.0,0.0,0.0,0.0,0.0,0.0,0.0,0.0,0.0,0.0,0.0,0.0,0.0,0.0,0.0,0.0,0.0,0.0,0.0,0.0,0.0,0.0,0.0,0.0,0.0,0.0,0.0,0.0,0.0,0.0,0.0,0.0,0.0,0.0,0.0,0.0,0.0,0.0,0.0,0.0,0.0,0.0,0.0,0.0,0.0,0.0,0.0,0.0,0.0,0.0,0.0,0.0,0.0,0.0,0.0,0.0,0.0,0.0,0.0,0.0,0.0,0.0,0.0,0.0,0.0,0.0,0.0,0.0,0.0,0.0,0.0,0.0,0.0,0.0,0.0,0.0,0.0,0.0,0.0,0.0,0.0,0.0,0.0,0.0,0.0,0.0,0.0,0.0,0.0,0.0,0.0,0.0,0.0,0.0,0.0,0.0,0.0,0.0,0.0,0.0,0.0,0.0,0.0,0.0,0.0,0.0,0.0,0.0,0.0,0.0,0.0,0.0,0.0,0.0,0.0,0.0,0.0,0.0,0.0,0.0,0.0,0.0,0.0,0.0,0.0,0.0,0.0,0.0,0.0,0.0,0.0,0.0,0.0,0.0,0.0,0.0,0.0,0.0,0.0,0.0,0.0,0.0,0.0,0.0,0.0,0.0,0.0,0.0,0.0,0.0,0.0,0.0,0.0,0.0,0.0,0.0,0.0,0.0,0.0,0.0,0.0,0.0,0.0,0.0,0.0,0.0,0.0,0.0,0.0,0.0,0.0,0.0,0.0,0.0,0.0,0.0,0.0,0.0,0.0,0.0,0.0,0.0,0.0,0.0,0.0,0.0,0.0,0.0,0.0,0.0,0.0,0.0,0.0,0.0,0.0,0.0,0.0,0.0,0.0,0.0,0.0,0.0,0.0,0.0,0.0,0.0,0.0,0.0,0.0,0.0,0.0,0.0,0.0,0.0,0.0,0.0,0.0,0.0,0.0,0.0,0.0,0.0,0.0,0.0,0.0,0.0,0.0,0.0,0.0,0.0,0.0,0.0,0.0,0.0,0.0,0.0,0.0,0.0,0.0,0.0,0.0,0.0,0.0,0.0,0.0,0.0,0.0,0.0,0.0,0.0,0.0,0.0,0.0,0.0,0.0,0.0,0.0,0.0,0.0,0.0,0.0,0.0,0.0,0.0,0.0,0.0,0.0,0.0,0.0,0.0,0.0,0.0,0.0,0.0,0.0,0.0,0.0,0.0,0.0,0.0,0.0,0.0,0.0,0.0,0.0,0.0,0.0,0.0,0.0,0.0,0.0,0.0,0.0,0.0,0.0,0.0,0.0,0.0,0.0,0.0,0.0,0.0,0.0,0.0,0.0,0.0,0.0,0.0,0.0,0.0,0.0,0.0,0.0,0.0,0.0,0.0,0.0,0.0,0.0,0.0,0.0,0.0,0.0,0.0,0.0,0.0,0.0,0.0,0.0,0.0,0.0,0.0,0.0,0.0,0.0,0.0,0.0,0.0,0.0,0.0,0.0,0.0,0.0,0.0,0.0,0.0,0.0,0.0,0.0,0.0,0.0,0.0,0.0,0.0,0.0,0.0,0.0,0.0,0.0,0.0,0.0,0.0,0.0,0.0,0.0,0.0,0.0,0.0,0.0,0.0,0.0,0.0,0.0,0.0,0.0,0.0,0.0,0.0,0.0,0.0,0.0,0.0,0.0,0.0,0.0,0.0,0.0,0.0,0.0,0.0,0.0,0.0,0.0,0.0,0.0,0.0,0.0,0.0,0.0,0.0,0.0,0.0,0.0,0.0,0.0,0.0,0.0,0.0,0.0,0.0,0.0,0.0,0.0,0.0,0.0,0.0,0.0,0.0,0.0,0.0,0.0,0.0,0.0,0.0,0.0,0.0,0.0,0.0,0.0,0.0,0.0,0.0,0.0,0.0,0.0,0.0,0.0,0.0,0.0,0.0,0.0,0.0,0.0,0.0,0.0,0.0,0.0,0.0,0.0,0.0,0.0,0.0,0.0,0.0,0.0,0.0,0.0,0.0,0.0,0.0,0.0,0.0,0.0,0.0,0.0,0.0,0.0,0.0,0.0,0.0,0.0,0.0,0.0,0.0,0.0,0.0,0.0,0.0,0.0,0.0,0.0,0.0,0.0,0.0,0.0,0.0,0.0,0.0,0.0,0.0,0.0,0.0,0.0,0.0,0.0,0.0,0.0,0.0,0.0,0.0,0.0,0.0,0.0,0.0,0.0,0.0,0.0,0.0,0.0,0.0,0.0,0.0,0.0,0.0,0.0,0.0,0.0,0.0,0.0,0.0,0.0,0.0,0.0,0.0,0.0,0.0,0.0,0.0,0.0,0.0,0.0,0.0,0.0,0.0,0.0,0.0,0.0,0.0,0.0,0.0,0.0,0.0,0.0,0.0,0.0,0.0,0.0,0.0,0.0,0.0,0.0,0.0,0.0,0.0,0.0,0.0,0.0,0.0,0.0,0.0,0.0,0.0,0.0,0.0,0.0,0.0,0.0,0.0,0.0,0.0,0.0,0.0,0.0,0.0,0.0,0.0,0.0,0.0,0.0,0.0,0.0,0.0,0.0,0.0,0.0,0.0,0.0,0.0,0.0,0.0,0.0,0.0,0.0,0.0,0.0,0.0,0.0,0.0,0.0,0.0,0.0,0.0,0.0,0.0,0.0,0.0,0.0,0.0,0.0,0.0,0.0,0.0,0.0,0.0,0.0,0.0,0.0,0.0,0.0,0.0,0.0,0.0,0.0,0.0,0.0,0.0,0.0,0.0,0.0,0.0,0.0,0.0,0.0,0.0,0.0,0.0,0.0,0.0,0.0,0.0,0.0,0.0,0.0,0.0,0.0,0.0,0.0,0.0,0.0,0.0,0.0,0.0,0.0,0.0,0.0,0.0,0.0,0.0,0.0,0.0,0.0,0.0,0.0,0.0,0.0,0.0,0.0,0.0,0.0,0.0,0.0,0.0,0.0,0.0,0.0,0.0,0.0,0.0,0.0,0.0,0.0,0.0,0.0,0.0,0.0,0.0,0.0,0.0,0.0,0.0,0.0,0.0,0.0,0.0,0.0,0.0,0.0,0.0,0.0,0.0,0.0,0.0,0.0,0.0,0.0,0.0,0.0,0.0,0.0,0.0,0.0,0.0,0.0,0.0,0.0,0.0,0.0,0.0,0.0,0.0,0.0,0.0,0.0,0.0,0.0,0.0,0.0,0.0,0.0,0.0,0.0,0.0,0.0,0.0,0.0,0.0,0.0,0.0,0.0,0.0,0.0,0.0,0.0,0.0,0.0,0.0,0.0,0.0,0.0,0.0,0.0,0.0,0.0,0.0,0.0,0.0,0.0,0.0,0.0,0.0,0.0,0.0,0.0,0.0,0.0,0.0,0.0,0.0,0.0,0.0,0.0,0.0,0.0,0.0,0.0,0.0,0.0,0.0,0.0,0.0,0.0,0.0,0.0,0.0,0.0,0.0,0.0,0.0,0.0,0.0,0.0,0.0,0.0,0.0,0.0,0.0,0.0,0.0,0.0,0.0,0.0,0.0,0.0,0.0,0.0,0.0,0.0,0.0,0.0,0.0,0.0,0.0,0.0,0.0,0.0,0.0,0.0,0.0,0.0,0.0,0.0,0.0,0.0,0.0,0.0,0.0,0.0,0.0,0.0,0.0,0.0,0.0,0.0,0.0,0.0,0.0,0.0,0.0,0.0,0.0,0.0,0.0,0.0,0.0,0.0,0.0,0.0,0.0,0.0,0.0,0.0,0.0,0.0,0.0,0.0,0.0,0.0,0.0,0.0,0.0,0.0,0.0,0.0,0.0,0.0,0.0,0.0,0.0,0.0,0.0,0.0,0.0,0.0,0.0,0.0,0.0,0.0,0.0,0.0,0.0,0.0,0.0,0.0,0.0,0.0,0.0,0.0,0.0,0.0,0.0,0.0,0.0,0.0,0.0,0.0,0.0,0.0,0.0,0.0,0.0,0.0,0.0,0.0,0.0,2.9606,0.0,0.0,0.0,0.0,0.0,0.0,0.0,0.0,0.0,0.0,0.0,0.0,0.0,0.0,0.0,0.0,0.0,0.0,0.0,0.0,0.0,0.0,0.0,0.0,0.0,0.0,0.0,0.0,0.0,0.0,0.0,0.0,0.0,0.0,0.0,0.0,0.0,0.0,0.0,0.0,0.0,0.0,0.0,0.0,0.0,0.0,0.0,0.0,0.0,0.0,0.0,0.0,0.0,0.0,0.0,0.0,0.0,0.0,0.0,0.0,0.0,0.0,0.0,0.0,0.0,0.0,0.0,0.0,0.0,0.0,0.0,0.0,0.0,0.0,0.0,0.0,0.0,0.0,0.0,0.0,0.0,0.0,0.0,0.0,0.0,0.0,0.0,0.0,0.0,0.0,0.0,0.0,0.0,0.0,0.0,0.0,0.0,0.0,0.0,0.0,0.0,0.0,0.0,0.0,0.0,0.0,0.0,0.0,0.0,0.0,3.0027,2.9995,2.9607,2.9387,2.932,0.0,0.0,0.0,0.0,0.0,0.0,0.0,0.0,0.0,0.0,0.0,0.0,0.0,0.0,0.0,0.0,0.0,0.0,0.0,0.0,0.0,0.0,0.0,0.0,0.0,0.0,0.0,0.0,0.0,0.0,0.0,0.0,0.0,0.0,0.0,0.0,0.0,0.0,0.0,0.0,0.0,0.0,0.0,0.0,0.0,0.0,0.0,0.0,0.0,0.0,0.0,0.0,0.0,0.0,0.0,0.0,0.0,0.0,0.0,0.0,0.0,0.0,0.0,0.0,0.0,0.0,0.0,0.0,0.0,0.0,0.0,0.0,0.0,0.0,0.0,0.0,0.0,0.0,0.0,0.0,0.0,0.0,0.0,0.0,0.0,0.0,0.0,0.0,0.0,0.0,0.0,0.0,0.0,0.0,0.0,0.0,0.0,0.0,0.0,0.0,0.0,0.0,0.0,0.0,0.0,0.0,0.0,0.0,0.0,0.0,0.0,0.0,2.9775,2.9461,2.901,0.0,0.0,0.0,0.0,0.0,0.0,0.0,0.0,0.0,0.0,0.0,0.0,0.0,0.0,0.0,0.0,0.0,0.0,0.0,0.0,0.0,0.0,0.0,0.0,0.0,0.0,0.0,0.0,0.0,0.0,0.0,0.0,0.0,0.0,0.0,0.0,0.0,0.0,0.0,0.0,0.0,0.0,0.0,0.0,0.0,0.0,0.0,0.0,0.0,0.0,0.0,0.0,0.0,0.0,0.0,0.0,0.0,0.0,0.0,0.0,0.0,0.0,0.0,0.0,0.0,0.0,0.0,0.0,0.0,0.0,0.0,0.0,0.0,0.0,0.0,0.0,0.0,0.0,0.0,0.0,0.0,0.0,0.0,0.0,0.0,0.0,0.0,0.0,0.0,0.0,0.0,0.0,0.0,0.0,0.0,0.0,0.0,0.0,0.0,0.0,0.0,0.0,0.0,0.0,0.0,0.0,0.0,0.0,0.0,0.0,3.1057,3.0804,3.0607,0.0,2.9082,0.0,0.0,0.0,0.0,0.0,0.0,0.0,0.0,0.0,0.0,0.0,0.0,0.0,0.0,0.0,0.0,0.0,0.0,0.0,0.0,0.0,0.0,0.0,0.0,0.0,0.0,0.0,0.0,0.0,0.0,0.0,0.0,0.0,0.0,0.0,0.0,0.0,0.0,0.0,0.0,0.0,0.0,0.0,0.0,0.0,0.0,0.0,0.0,0.0,0.0,0.0,0.0,0.0,0.0,0.0,0.0,0.0,0.0,0.0,0.0,0.0,0.0,0.0,0.0,0.0,0.0,0.0,0.0,0.0,0.0,0.0,0.0,0.0,0.0,0.0,0.0,0.0,0.0,0.0,0.0,0.0,0.0,0.0,0.0,0.0,0.0,0.0,0.0,0.0,0.0,0.0,0.0,0.0,0.0,0.0,0.0,0.0,0.0,0.0,0.0,0.0,0.0,0.0,0.0,0.0,0.0,0.0,0.0,0.0,0.0,3.2073,3.1673,3.1424,3.0806,0.0,0.0,0.0,0.0,0.0,0.0,0.0,0.0,0.0,0.0,0.0,0.0,0.0,0.0,0.0,0.0,0.0,0.0,0.0,0.0,0.0,0.0,0.0,0.0,0.0,0.0,0.0,0.0,0.0,0.0,0.0,0.0,0.0,0.0,0.0,0.0,0.0,0.0,0.0,0.0,0.0,0.0,0.0,0.0,0.0,0.0,0.0,0.0,0.0,0.0,0.0,0.0,0.0,0.0,0.0,0.0,0.0,0.0,0.0,0.0,0.0,0.0,0.0,0.0,0.0,0.0,0.0,0.0,0.0,0.0,0.0,0.0,0.0,0.0,0.0,0.0,0.0,0.0,0.0,0.0,0.0,0.0,0.0,0.0,0.0,0.0,0.0,0.0,0.0,0.0,0.0,0.0,0.0,0.0,0.0,0.0,0.0,0.0,0.0,0.0,0.0,0.0,0.0,0.0,0.0,0.0,0.0,0.0,0.0,0.0,3.2918,3.2947,3.2539,3.2266,3.1658,3.0665,0.0,0.0,0.0,0.0,0.0,0.0,0.0,0.0,0.0,0.0,0.0,0.0,0.0,0.0,0.0,0.0,0.0,0.0,0.0,0.0,0.0,0.0,0.0,0.0,0.0,0.0,0.0,0.0,0.0,0.0,0.0,0.0,0.0,0.0,0.0,0.0,0.0,0.0,0.0,0.0,0.0,0.0,0.0,0.0,0.0,0.0,0.0,0.0,0.0,0.0,0.0,0.0,0.0,0.0,0.0,0.0,0.0,0.0,0.0,0.0,0.0,0.0,0.0,0.0,0.0,0.0,0.0,0.0,0.0,0.0,0.0,0.0,0.0,0.0,0.0,0.0,0.0,0.0,0.0,0.0,0.0,0.0,0.0,0.0,0.0,0.0,0.0,0.0,0.0,0.0,0.0,0.0,0.0,0.0,0.0,0.0,0.0,0.0,0.0,0.0,0.0,0.0,0.0,0.0,0.0,0.0,0.0,0.0,3.2657,3.337,3.3625,3.336,3.309,3.256,0.0,0.0,0.0,0.0,0.0,0.0,0.0,0.0,0.0,0.0,0.0,0.0,0.0,0.0,0.0,0.0,0.0,0.0,0.0,0.0,0.0,0.0,0.0,0.0,0.0,0.0,0.0,0.0,0.0,0.0,0.0,0.0,0.0,0.0,0.0,0.0,0.0,0.0,0.0,0.0,0.0,0.0,0.0,0.0,0.0,0.0,0.0,0.0,0.0,0.0,0.0,0.0,0.0,0.0,0.0,0.0,0.0,0.0,0.0,0.0,0.0,0.0,0.0,0.0,0.0,0.0,0.0,0.0,0.0,0.0,0.0,0.0,0.0,0.0,0.0,0.0,0.0,0.0,0.0,0.0,0.0,0.0,0.0,0.0,0.0,0.0,0.0,0.0,0.0,0.0,0.0,0.0,0.0,0.0,0.0,0.0,0.0,0.0,0.0,0.0,0.0,0.0,0.0,0.0,0.0,0.0,0.0,0.0,0.0,3.4191,3.4494,3.4511,3.424,3.4136,3.3532,0.0,0.0,0.0,0.0,0.0,0.0,0.0,0.0,0.0,0.0,0.0,0.0,0.0,0.0,0.0,0.0,0.0,0.0,0.0,0.0,0.0,0.0,0.0,0.0,0.0,0.0,0.0,0.0,0.0,0.0,0.0,0.0,0.0,0.0,0.0,0.0,0.0,0.0,0.0,0.0,0.0,0.0,0.0,0.0,0.0,0.0,0.0,0.0,0.0,0.0,0.0,0.0,0.0,0.0,0.0,0.0,0.0,0.0,0.0,0.0,0.0,0.0,0.0,0.0,0.0,0.0,0.0,0.0,0.0,0.0,0.0,0.0,0.0,0.0,0.0,0.0,0.0,0.0,0.0,0.0,0.0,0.0,0.0,0.0,0.0,0.0,0.0,0.0,0.0,0.0,0.0,0.0,0.0,0.0,0.0,0.0,0.0,0.0,0.0,0.0,0.0,0.0,0.0,0.0,0.0,0.0,0.0,0.0,0.0,3.5215,0.0,3.5112,3.4846,3.4837,3.4298,0.0,0.0,0.0,0.0,0.0,0.0,0.0,0.0,0.0,0.0,0.0,0.0,0.0,0.0,0.0,0.0,0.0,0.0,0.0,0.0,0.0,0.0,0.0,0.0,0.0,0.0,0.0,0.0,0.0,0.0,0.0,0.0,0.0,0.0,0.0,0.0,0.0,0.0,0.0,0.0,0.0,0.0,0.0,0.0,0.0,0.0,0.0,0.0,0.0,0.0,0.0,0.0,0.0,0.0,0.0,0.0,0.0,0.0,0.0,0.0,0.0,0.0,0.0,0.0,0.0,0.0,0.0,0.0,0.0,0.0,0.0,0.0,0.0,0.0,0.0,0.0,0.0,0.0,0.0,0.0,0.0,0.0,0.0,0.0,0.0,0.0,0.0,0.0,0.0,0.0,0.0,0.0,0.0,0.0,0.0,0.0,0.0,0.0,0.0,0.0,0.0,0.0,0.0,0.0,0.0,0.0,0.0,0.0,3.5481,3.5481,3.5477,3.5361,3.5105,3.5092,3.4808,0.0,0.0,0.0,0.0,0.0,0.0,0.0,0.0,0.0,0.0,0.0,0.0,0.0,0.0,0.0,0.0,0.0,0.0,0.0,0.0,0.0,0.0,0.0,0.0,0.0,0.0,0.0,0.0,0.0,0.0,0.0,0.0,0.0,0.0,0.0,0.0,0.0,0.0,0.0,0.0,0.0,0.0,0.0,0.0,0.0,0.0,0.0,0.0,0.0,0.0,0.0,0.0,0.0,0.0,0.0,0.0,0.0,0.0,0.0,0.0,0.0,0.0,0.0,0.0,0.0,0.0,0.0,0.0,0.0,0.0,0.0,0.0,0.0,0.0,0.0,0.0,0.0,0.0,0.0,0.0,0.0,0.0,0.0,0.0,0.0,0.0,0.0,0.0,0.0,0.0,0.0,0.0,0.0,0.0,0.0,0.0,0.0,0.0,0.0,0.0,0.0,0.0,0.0,0.0,0.0,0.0,0.0,0.0,0.0,3.5503,3.5503,3.5273,3.486,3.4994,3.4735,0.0,0.0,0.0,0.0,0.0,0.0,0.0,0.0,0.0,0.0,0.0,0.0,0.0,0.0,0.0,0.0,0.0,0.0,0.0,0.0,0.0,0.0,0.0,0.0,0.0,0.0,0.0,0.0,0.0,0.0,0.0,0.0,0.0,0.0,0.0,0.0,0.0,0.0,0.0,0.0,0.0,0.0,0.0,0.0,0.0,0.0,0.0,0.0,0.0,0.0,0.0,0.0,0.0,0.0,0.0,0.0,0.0,0.0,0.0,0.0,0.0,0.0,0.0,0.0,0.0,0.0,0.0,0.0,0.0,0.0,0.0,0.0,0.0,0.0,0.0,0.0,0.0,0.0,0.0,0.0,0.0,0.0,0.0,0.0,0.0,0.0,0.0,0.0,0.0,0.0,0.0,0.0,0.0,0.0,0.0,0.0,0.0,0.0,0.0,0.0,0.0,0.0,0.0,0.0,0.0,0.0,0.0,0.0,0.0,3.5503,3.5503,3.5239,3.4711,3.5062,3.4831,3.3988,0.0,0.0,0.0,0.0,0.0,0.0,0.0,0.0,0.0,0.0,0.0,0.0,0.0,0.0,0.0,0.0,0.0,0.0,0.0,0.0,0.0,0.0,0.0,0.0,0.0,0.0,0.0,0.0,0.0,0.0,0.0,0.0,0.0,0.0,0.0,0.0,0.0,0.0,0.0,0.0,0.0,0.0,0.0,0.0,0.0,0.0,0.0,0.0,0.0,0.0,0.0,0.0,0.0,0.0,0.0,0.0,0.0,0.0,0.0,0.0,0.0,0.0,0.0,0.0,0.0,0.0,0.0,0.0,0.0,0.0,0.0,0.0,0.0,0.0,0.0,0.0,0.0,0.0,0.0,0.0,0.0,0.0,0.0,0.0,0.0,0.0,0.0,0.0,0.0,0.0,0.0,0.0,0.0,0.0,0.0,0.0,0.0,0.0,0.0,0.0,0.0,0.0,0.0,0.0,0.0,0.0,0.0,0.0,3.5503,3.5503,3.5243,3.4748,3.5228,3.5101,0.0,0.0,0.0,0.0,0.0,0.0,0.0,0.0,0.0,0.0,0.0,0.0,0.0,0.0,0.0,0.0,0.0,0.0,0.0,0.0,0.0,0.0,0.0,0.0,0.0,0.0,0.0,0.0,0.0,0.0,0.0,0.0,0.0,0.0,0.0,0.0,0.0,0.0,0.0,0.0,0.0,0.0,0.0,0.0,0.0,0.0,0.0,0.0,0.0,0.0,0.0,0.0,0.0,0.0,0.0,0.0,0.0,0.0,0.0,0.0,0.0,0.0,0.0,0.0,0.0,0.0,0.0,0.0,0.0,0.0,0.0,0.0,0.0,0.0,0.0,0.0,0.0,0.0,0.0,0.0,0.0,0.0,0.0,0.0,0.0,0.0,0.0,0.0,0.0,0.0,0.0,0.0,0.0,0.0,0.0,0.0,0.0,0.0,0.0,0.0,0.0,0.0,0.0,0.0,0.0,0.0,0.0,0.0,0.0,3.5503,3.5503,3.5342,3.5007,3.5315,3.5216,0.0,0.0,0.0,0.0,0.0,0.0,0.0,0.0,0.0,0.0,0.0,0.0,0.0,0.0,0.0,0.0,0.0,0.0,0.0,0.0,0.0,0.0,0.0,0.0,0.0,0.0,0.0,0.0,0.0,0.0,0.0,0.0,0.0,0.0,0.0,0.0,0.0,0.0,0.0,0.0,0.0,0.0,0.0,0.0,0.0,0.0,0.0,0.0,0.0,0.0,0.0,0.0,0.0,0.0,0.0,0.0,0.0,0.0,0.0,0.0,0.0,0.0,0.0,0.0,0.0,0.0,0.0,0.0,0.0,0.0,0.0,0.0,0.0,0.0,0.0,0.0,0.0,0.0,0.0,0.0,0.0,0.0,0.0,0.0,0.0,0.0,0.0,0.0,0.0,0.0,0.0,0.0,0.0,0.0,0.0,0.0,0.0,0.0,0.0,0.0,0.0,0.0,0.0,0.0,0.0,0.0,0.0,0.0,3.5603,3.5503,3.5503,3.5412,3.5258,3.5424,3.5304,0.0,0.0,0.0,0.0,0.0,0.0,0.0,0.0,0.0,0.0,0.0,0.0,0.0,0.0,0.0,0.0,0.0,0.0,0.0,0.0,0.0,0.0,0.0,0.0,0.0,0.0,0.0,0.0,0.0,0.0,0.0,0.0,0.0,0.0,0.0,0.0,0.0,0.0,0.0,0.0,0.0,0.0,0.0,0.0,0.0,0.0,0.0,0.0,0.0,0.0,0.0,0.0,0.0,0.0,0.0,0.0,0.0,0.0,0.0,0.0,0.0,0.0,0.0,0.0,0.0,0.0,0.0,0.0,0.0,0.0,0.0,0.0,0.0,0.0,0.0,0.0,0.0,0.0,0.0,0.0,0.0,0.0,0.0,0.0,0.0,0.0,0.0,0.0,0.0,0.0,0.0,0.0,0.0,0.0,0.0,0.0,0.0,0.0,0.0,0.0,0.0,0.0,0.0,0.0,0.0,0.0,0.0,0.0,3.5561,3.5503,3.5503,3.55,3.5503,3.5503,3.5385,0.0,0.0,0.0,0.0,0.0,0.0,0.0,0.0,0.0,0.0,0.0,0.0,0.0,0.0,0.0,0.0,0.0,0.0,0.0,0.0,0.0,0.0,0.0,0.0,0.0,0.0,0.0,0.0,0.0,0.0,0.0,0.0,0.0,0.0,0.0,0.0,0.0,0.0,0.0,0.0,0.0,0.0,0.0,0.0,0.0,0.0,0.0,0.0,0.0,0.0,0.0,0.0,0.0,0.0,0.0,0.0,0.0,0.0,0.0,0.0,0.0,0.0,0.0,0.0,0.0,0.0,0.0,0.0,0.0,0.0,0.0,0.0,0.0,0.0,0.0,0.0,0.0,0.0,0.0,0.0,0.0,0.0,0.0,0.0,0.0,0.0,0.0,0.0,0.0,0.0,0.0,0.0,0.0,0.0,0.0,0.0,0.0,0.0,0.0,0.0,0.0,0.0,0.0,0.0,0.0,0.0,0.0,0.0,3.5561,3.5503,3.5503,3.5503,3.5503,3.5503,3.5462,0.0,0.0,0.0,0.0,0.0,0.0,0.0,0.0,0.0,0.0,0.0,0.0,0.0,0.0,0.0,0.0,0.0,0.0,0.0,0.0,0.0,0.0,0.0,0.0,0.0,0.0,0.0,0.0,0.0,0.0,0.0,0.0,0.0,0.0,0.0,0.0,0.0,0.0,0.0,0.0,0.0,0.0,0.0,0.0,0.0,0.0,0.0,0.0,2.9736,0.0,0.0,0.0,0.0,0.0,0.0,0.0,0.0,0.0,0.0,0.0,0.0,0.0,0.0,0.0,0.0,0.0,0.0,0.0,0.0,0.0,0.0,0.0,0.0,0.0,0.0,0.0,0.0,0.0,0.0,0.0,0.0,0.0,0.0,0.0,0.0,0.0,0.0,0.0,0.0,0.0,0.0,0.0,0.0,0.0,0.0,0.0,0.0,0.0,0.0,0.0,0.0,0.0,0.0,0.0,0.0,0.0,0.0,0.0,3.6365,3.6657,3.6273,3.6058,3.6058,3.5712,3.5503,0.0,0.0,0.0,0.0,0.0,0.0,0.0,0.0,0.0,0.0,0.0,0.0,0.0,0.0,0.0,0.0,0.0,0.0,0.0,0.0,0.0,0.0,0.0,0.0,0.0,0.0,0.0,0.0,0.0,0.0,0.0,0.0,0.0,0.0,0.0,0.0,0.0,0.0,0.0,0.0,0.0,0.0,0.0,0.0,0.0,0.0,0.0,0.0,0.0,0.0,0.0,0.0,0.0,0.0,0.0,0.0,0.0,0.0,0.0,0.0,0.0,0.0,0.0,0.0,0.0,0.0,0.0,0.0,0.0,0.0,0.0,0.0,0.0,0.0,0.0,0.0,0.0,0.0,0.0,0.0,0.0,0.0,0.0,0.0,0.0,0.0,0.0,0.0,0.0,0.0,0.0,0.0,0.0,0.0,0.0,0.0,0.0,0.0,0.0,0.0,0.0,0.0,0.0,0.0,0.0,0.0,0.0,3.7504,3.7404,3.7973,3.7315,3.6946,3.6907,3.6138,3.5715,3.567,0.0,0.0,0.0,0.0,0.0,0.0,0.0,0.0,0.0,0.0,0.0,0.0,0.0,0.0,0.0,0.0,0.0,0.0,0.0,0.0,0.0,0.0,0.0,0.0,0.0,0.0,0.0,0.0,0.0,0.0,0.0,0.0,0.0,0.0,0.0,0.0,0.0,0.0,3.1989,3.0999,0.0,0.0,0.0,0.0,0.0,0.0,0.0,0.0,3.0995,0.0,0.0,0.0,0.0,0.0,0.0,0.0,0.0,0.0,0.0,0.0,0.0,0.0,0.0,0.0,0.0,0.0,0.0,0.0,0.0,0.0,0.0,0.0,0.0,0.0,0.0,0.0,0.0,0.0,0.0,0.0,0.0,0.0,0.0,0.0,0.0,0.0,0.0,0.0,0.0,0.0,0.0,0.0,0.0,0.0,0.0,0.0,0.0,0.0,0.0,0.0,0.0,0.0,0.0,0.0,0.0,3.8209,3.8114,3.8095,3.816,3.8076,3.8015,3.7934,3.7125,3.6617,3.6482,0.0,0.0,0.0,0.0,0.0,0.0,0.0,0.0,0.0,0.0,0.0,0.0,0.0,0.0,0.0,0.0,0.0,0.0,0.0,0.0,0.0,0.0,0.0,0.0,0.0,0.0,0.0,0.0,0.0,0.0,0.0,0.0,0.0,0.0,0.0,0.0,0.0,0.0,0.0,2.9752,2.9662,0.0,0.0,0.0,0.0,0.0,0.0,0.0,0.0,3.0535,0.0,0.0,0.0,0.0,0.0,0.0,0.0,0.0,0.0,0.0,0.0,0.0,0.0,0.0,0.0,0.0,0.0,0.0,0.0,0.0,0.0,0.0,0.0,0.0,0.0,0.0,0.0,0.0,0.0,0.0,0.0,0.0,0.0,0.0,0.0,0.0,0.0,0.0,0.0,0.0,0.0,0.0,0.0,0.0,0.0,0.0,0.0,0.0,0.0,0.0,0.0,0.0,0.0,0.0,0.0,3.9579,3.9207,3.9167,3.9517,3.9185,3.8966,3.8903,3.8041,3.7541,0.0,0.0,0.0,0.0,0.0,0.0,0.0,0.0,0.0,0.0,0.0,0.0,0.0,0.0,0.0,0.0,0.0,0.0,0.0,0.0,0.0,0.0,0.0,0.0,0.0,0.0,0.0,0.0,0.0,0.0,0.0,0.0,0.0,0.0,0.0,0.0,0.0,0.0,0.0,0.0,2.9505,2.9566,2.9504,0.0,0.0,0.0,0.0,0.0,0.0,3.1574,3.1685,0.0,0.0,0.0,0.0,0.0,0.0,0.0,0.0,0.0,0.0,0.0,0.0,0.0,0.0,0.0,0.0,0.0,0.0,0.0,0.0,0.0,0.0,0.0,0.0,0.0,0.0,0.0,0.0,0.0,0.0,0.0,0.0,0.0,0.0,0.0,0.0,0.0,0.0,0.0,0.0,0.0,0.0,0.0,0.0,0.0,0.0,0.0,0.0,0.0,0.0,0.0,0.0,0.0,0.0,0.0,4.0918,4.0276,4.0234,4.0769,4.025,3.9916,3.9854,3.8974,3.8523,0.0,0.0,0.0,0.0,0.0,0.0,0.0,0.0,0.0,0.0,0.0,0.0,0.0,0.0,0.0,0.0,0.0,0.0,0.0,0.0,0.0,0.0,0.0,0.0,0.0,0.0,0.0,0.0,0.0,0.0,0.0,0.0,0.0,0.0,0.0,0.0,0.0,0.0,0.0,0.0,0.0,2.9714,3.0061,3.0364,0.0,0.0,0.0,0.0,3.1328,3.2062,0.0,0.0,0.0,0.0,0.0,0.0,0.0,0.0,0.0,0.0,0.0,0.0,0.0,0.0,0.0,0.0,0.0,0.0,0.0,0.0,0.0,0.0,0.0,0.0,0.0,0.0,0.0,0.0,0.0,0.0,0.0,0.0,0.0,0.0,0.0,0.0,0.0,0.0,0.0,0.0,0.0,0.0,0.0,0.0,0.0,0.0,0.0,0.0,0.0,0.0,0.0,0.0,0.0,0.0,0.0,0.0,4.0996,4.1013,4.0986,4.0986,4.1013,4.0974,4.0837,3.9946,3.9458,0.0,0.0,0.0,0.0,0.0,0.0,0.0,0.0,0.0,0.0,0.0,0.0,0.0,0.0,0.0,0.0,0.0,0.0,0.0,0.0,0.0,0.0,0.0,0.0,0.0,0.0,0.0,0.0,0.0,0.0,0.0,0.0,0.0,0.0,0.0,0.0,0.0,0.0,0.0,0.0,0.0,2.9975,2.9181,3.023,3.1162,0.0,0.0,3.1315,3.1217,3.1336,0.0,0.0,0.0,0.0,0.0,0.0,0.0,0.0,0.0,0.0,0.0,0.0,0.0,0.0,0.0,0.0,0.0,0.0,0.0,0.0,0.0,0.0,0.0,0.0,0.0,0.0,0.0,0.0,0.0,0.0,0.0,0.0,0.0,0.0,0.0,0.0,0.0,0.0,0.0,0.0,0.0,0.0,0.0,0.0,0.0,0.0,0.0,0.0,0.0,0.0,0.0,0.0,0.0,0.0,0.0,4.1172,4.1113,4.1172,4.1159,4.1127,4.1178,4.1172,4.1094,4.0557,4.0351,0.0,0.0,0.0,0.0,0.0,0.0,0.0,0.0,0.0,0.0,0.0,0.0,0.0,0.0,0.0,0.0,0.0,0.0,0.0,0.0,0.0,0.0,0.0,0.0,0.0,0.0,0.0,0.0,0.0,0.0,0.0,0.0,0.0,0.0,0.0,0.0,0.0,0.0,0.0,0.0,0.0,0.0,2.9536,2.9974,0.0,0.0,0.0,3.04,3.04,0.0,0.0,0.0,0.0,0.0,0.0,0.0,0.0,0.0,0.0,0.0,0.0,0.0,0.0,0.0,0.0,0.0,0.0,0.0,0.0,0.0,0.0,0.0,0.0,0.0,0.0,0.0,0.0,0.0,0.0,0.0,0.0,0.0,0.0,0.0,0.0,0.0,0.0,0.0,0.0,0.0,0.0,0.0,0.0,0.0,0.0,0.0,0.0,0.0,0.0,0.0,0.0,0.0,0.0,0.0,0.0,0.0,4.1191,4.1191,4.1191,4.1191,4.1191,4.1191,4.1191,4.0938,0.0,0.0,0.0,0.0,0.0,0.0,0.0,0.0,0.0,0.0,0.0,0.0,0.0,0.0,0.0,0.0,0.0,0.0,0.0,0.0,0.0,0.0,0.0,0.0,0.0,0.0,0.0,3.4035,0.0,0.0,0.0,0.0,0.0,0.0,0.0,0.0,0.0,0.0,0.0,0.0,0.0,0.0,3.0871,2.9934,2.9779,2.9779,0.0,0.0,2.9779,2.9779,3.0381,3.0932,0.0,0.0,0.0,0.0,0.0,0.0,0.0,0.0,0.0,0.0,0.0,0.0,0.0,0.0,0.0,0.0,0.0,0.0,0.0,0.0,0.0,0.0,0.0,0.0,0.0,0.0,0.0,0.0,0.0,0.0,0.0,0.0,0.0,0.0,0.0,0.0,0.0,0.0,0.0,0.0,0.0,0.0,0.0,0.0,0.0,0.0,0.0,0.0,0.0,0.0,0.0,0.0,0.0,0.0,0.0,4.1191,4.1191,4.1191,4.1191,4.1191,4.1191,4.1191,4.0937,4.0924,0.0,0.0,0.0,0.0,0.0,0.0,0.0,0.0,0.0,0.0,0.0,0.0,0.0,0.0,0.0,0.0,0.0,0.0,0.0,0.0,0.0,0.0,0.0,0.0,0.0,0.0,0.0,0.0,0.0,0.0,0.0,0.0,0.0,0.0,0.0,0.0,0.0,0.0,0.0,0.0,0.0,3.0871,2.9934,2.9779,2.9811,0.0,0.0,2.9779,2.9792,2.9869,3.0184,3.1063,0.0,0.0,0.0,0.0,0.0,0.0,0.0,0.0,0.0,0.0,0.0,0.0,0.0,0.0,0.0,0.0,0.0,0.0,0.0,0.0,0.0,0.0,0.0,0.0,0.0,0.0,0.0,0.0,0.0,0.0,0.0,0.0,0.0,0.0,0.0,0.0,0.0,0.0,0.0,0.0,0.0,0.0,0.0,0.0,0.0,0.0,0.0,0.0,0.0,0.0,0.0,0.0,0.0,4.1127,4.1191,4.1113,4.1113,4.1191,4.1191,4.1191,4.1191,4.0952,4.0882,0.0,0.0,0.0,0.0,0.0,0.0,0.0,0.0,0.0,0.0,0.0,0.0,0.0,0.0,0.0,0.0,0.0,0.0,0.0,0.0,0.0,0.0,0.0,0.0,0.0,0.0,0.0,0.0,3.5036,3.5139,3.5452,0.0,0.0,0.0,0.0,0.0,0.0,0.0,0.0,0.0,0.0,3.0871,2.9934,3.008,0.0,0.0,3.057,3.0803,3.0771,3.0803,3.1137,3.216,3.2069,0.0,0.0,0.0,0.0,0.0,0.0,0.0,0.0,0.0,0.0,0.0,0.0,0.0,0.0,0.0,0.0,0.0,0.0,0.0,0.0,0.0,0.0,0.0,0.0,0.0,0.0,0.0,0.0,0.0,0.0,0.0,0.0,0.0,0.0,0.0,0.0,0.0,0.0,0.0,0.0,0.0,0.0,0.0,0.0,0.0,0.0,0.0,0.0,0.0,0.0,0.0,0.0,4.111,4.1195,4.1107,4.1094,4.1191,4.1191,4.1205,4.1197,4.0941,4.0852,0.0,0.0,0.0,0.0,0.0,0.0,0.0,0.0,0.0,0.0,0.0,0.0,0.0,0.0,0.0,0.0,0.0,0.0,0.0,0.0,0.0,0.0,0.0,0.0,0.0,0.0,0.0,0.0,3.622,3.6192,3.5971,0.0,0.0,0.0,0.0,0.0,0.0,0.0,0.0,0.0,0.0,3.0765,3.0128,3.0495,3.0826,3.0826,3.116,3.1406,3.1406,3.1406,3.1658,3.2395,0.0,0.0,0.0,0.0,0.0,0.0,0.0,0.0,0.0,0.0,0.0,0.0,0.0,0.0,0.0,0.0,0.0,0.0,0.0,0.0,0.0,0.0,0.0,0.0,0.0,0.0,0.0,0.0,0.0,0.0,0.0,0.0,0.0,0.0,0.0,0.0,0.0,0.0,0.0,0.0,0.0,0.0,0.0,0.0,0.0,0.0,0.0,0.0,0.0,0.0,0.0,0.0,0.0,4.12,4.1199,4.1202,4.1191,4.1191,4.1191,4.1193,4.1201,4.0939,4.0866,4.0974,0.0,0.0,0.0,0.0,0.0,0.0,0.0,0.0,0.0,0.0,0.0,0.0,0.0,0.0,0.0,0.0,0.0,0.0,0.0,0.0,0.0,0.0,0.0,0.0,0.0,0.0,3.7283,3.7279,3.7036,0.0,0.0,0.0,0.0,0.0,0.0,0.0,0.0,0.0,0.0,3.0862,3.0615,3.0608,3.1047,3.1406,3.1406,3.1399,3.1432,3.1444,3.1432,3.1419,0.0,0.0,0.0,0.0,0.0,0.0,0.0,0.0,0.0,0.0,0.0,0.0,0.0,0.0,0.0,0.0,0.0,0.0,0.0,0.0,0.0,0.0,0.0,0.0,0.0,0.0,0.0,2.8246,2.9513,0.0,0.0,0.0,0.0,0.0,0.0,0.0,0.0,0.0,0.0,0.0,3.9196,3.97,0.0,0.0,0.0,0.0,0.0,0.0,0.0,0.0,0.0,0.0,0.0,0.0,4.1125,4.12,4.1101,4.1107,4.1191,4.1191,4.1202,4.1201,4.0933,4.0802,4.0804,0.0,0.0,0.0,0.0,0.0,0.0,0.0,0.0,0.0,0.0,0.0,0.0,0.0,0.0,0.0,0.0,0.0,0.0,0.0,0.0,0.0,0.0,0.0,0.0,0.0,3.7453,0.0,0.0,0.0,0.0,0.0,0.0,0.0,0.0,0.0,0.0,0.0,3.1669,3.1713,3.108,3.0726,3.1085,3.1587,3.1938,0.0,0.0,0.0,0.0,0.0,0.0,0.0,0.0,0.0,0.0,0.0,0.0,0.0,0.0,3.103,2.9995,2.9779,2.9729,2.9541,0.0,0.0,0.0,0.0,0.0,0.0,0.0,0.0,0.0,0.0,0.0,0.0,0.0,0.0,0.0,0.0,3.1158,0.0,0.0,0.0,0.0,0.0,0.0,0.0,0.0,3.9473,3.9777,3.9938,4.0454,4.0727,0.0,4.0792,4.0863,0.0,0.0,0.0,0.0,0.0,0.0,0.0,0.0,4.1836,4.1641,4.1843,4.1836,4.162,4.1629,4.1457,4.1152,4.0889,4.0738,4.0643,4.0673,4.0712,0.0,0.0,0.0,0.0,0.0,0.0,0.0,0.0,0.0,0.0,0.0,0.0,0.0,0.0,0.0,0.0,0.0,0.0,0.0,0.0,0.0,0.0,0.0,3.8059,0.0,0.0,0.0,0.0,0.0,0.0,0.0,0.0,0.0,3.3573,3.2336,3.1478,3.1506,3.1316,3.1278,3.1625,0.0,0.0,0.0,0.0,0.0,0.0,0.0,3.3334,3.4024,3.3543,3.3208,3.3499,3.251,3.1675,3.1675,0.0,0.0,3.047,3.0206,3.0068,3.008,2.9609,2.9333,2.9716,2.9484,2.9321,0.0,0.0,0.0,0.0,0.0,0.0,0.0,0.0,2.7217,2.8694,0.0,3.128,0.0,0.0,0.0,0.0,0.0,0.0,0.0,0.0,4.0454,4.0492,4.0492,4.0512,4.0577,4.07,4.0623,4.0686,4.0851,4.0885,0.0,0.0,0.0,0.0,0.0,0.0,4.3281,4.25,4.3223,4.3281,4.248,4.2444,4.2006,4.1078,4.0858,4.0681,4.0512,4.0631,4.0693,4.072,4.088,0.0,0.0,0.0,0.0,0.0,0.0,0.0,0.0,0.0,0.0,0.0,0.0,0.0,0.0,0.0,0.0,0.0,0.0,0.0,0.0,3.7815,0.0,0.0,0.0,0.0,0.0,0.0,0.0,0.0,0.0,0.0,3.2599,3.2192,3.1649,3.0797,0.0,0.0,0.0,0.0,3.309,3.309,3.3102,3.3102,3.3102,3.3102,3.3102,3.3124,0.0,0.0,3.3111,3.2638,3.224,3.224,3.1838,3.1457,3.1469,3.0997,3.0638,3.0633,3.0231,2.988,2.9854,2.993,2.9892,2.1345,0.0,0.0,0.0,0.0,2.4646,2.5119,2.516,2.5928,2.7743,3.0256,3.0934,0.0,0.0,0.0,0.0,0.0,0.0,4.0326,4.0492,4.0492,4.0492,4.0492,4.0631,4.0731,4.0789,4.1369,4.1682,4.1744,4.2189,4.2276,4.1948,0.0,0.0,0.0,0.0,4.3574,4.3359,4.3594,4.3574,4.334,4.3316,4.2835,4.1801,4.1682,4.1262,4.0535,4.0535,4.0612,4.0696,4.0762,0.0,0.0,0.0,0.0,0.0,0.0,0.0,0.0,0.0,0.0,0.0,0.0,0.0,0.0,0.0,0.0,0.0,0.0,0.0,3.9436,3.8392,3.7898,0.0,0.0,0.0,0.0,0.0,0.0,0.0,0.0,0.0,3.223,3.1493,3.1191,0.0,0.0,3.2344,3.2801,3.2989,3.3102,3.3102,0.0,0.0,0.0,3.3102,3.3102,3.3102,3.3102,3.3102,3.3102,3.2952,3.2851,3.2839,3.2726,3.2612,3.2562,3.1834,3.121,3.116,3.1022,3.0967,3.0934,3.0934,3.0922,2.0661,2.0884,2.2423,2.3297,2.3751,2.4536,2.5111,2.5502,2.6158,2.7976,3.0562,3.122,3.3198,3.6129,3.6988,0.0,0.0,0.0,4.026,4.0492,4.0858,4.1027,4.1031,4.1524,4.1796,4.1863,4.2364,4.2634,4.2616,4.2953,4.3152,4.3177,0.0,0.0,4.3672,4.4355,4.457,4.4238,4.4551,4.4551,4.4219,4.3804,4.3288,4.2659,4.2493,4.1989,4.105,4.1008,4.0896,4.0631,4.0673,4.0615,0.0,0.0,0.0,0.0,0.0,0.0,0.0,0.0,0.0,0.0,0.0,3.7087,3.7775,0.0,0.0,0.0,3.8223,3.8799,3.9612,3.8626,0.0,0.0,0.0,0.0,0.0,0.0,0.0,3.4045,3.3241,3.2634,3.2123,3.1594,3.1466,3.2106,3.2416,3.2679,3.3052,0.0,3.3102,3.3102,3.3102,3.3102,3.3102,3.3102,3.3102,3.3102,3.3102,3.3102,3.3102,3.3102,3.3102,3.3102,3.3102,3.3102,3.3102,3.2525,3.1984,3.175,3.1545,3.1406,3.1406,3.1406,3.1406,1.9883,1.9227,2.1618,2.3226,2.4171,2.4779,2.5604,2.6628,2.7384,2.8947,3.1061,3.1995,3.368,3.598,3.7194,0.0,0.0,4.0126,4.0443,4.0727,4.1527,4.1908,4.195,4.2802,4.3269,4.3376,4.3491,4.3491,4.3485,4.3433,4.3812,4.4574,4.4719,4.4452,4.3926,4.5469,4.5898,4.5137,4.5898,4.5898,4.5117,4.4121,4.3568,4.3504,4.3314,4.2797,4.1966,4.1831,4.1431,4.065,4.0654,4.0511,4.0134,0.0,0.0,0.0,0.0,0.0,0.0,0.0,0.0,0.0,0.0,0.0,0.0,0.0,0.0,0.0,3.7856,0.0,3.8803,3.8715,0.0,0.0,0.0,3.8058,3.6659,3.5838,3.4913,3.3676,0.0,0.0,3.2313,0.0,3.2277,3.2277,3.2763,3.3102,3.3102,3.3102,3.3102,3.3102,3.3102,3.3102,3.3102,3.3102,3.3102,3.3102,3.3102,3.3102,3.3102,3.3102,3.3102,3.3102,3.3102,3.3102,3.3102,3.3052,3.2939,3.2365,3.1901,3.157,3.1633,3.1633,3.1645,1.9215,1.9186,2.1298,2.2732,2.3749,2.4625,2.5923,2.7401,2.7633,2.9032,3.1314,3.2571,3.5147,3.8599,3.8909,3.9959,4.1505,4.1576,4.1932,4.2481,4.2701,4.2824,4.2879,4.3202,4.3366,4.3454,4.4117,4.4387,4.4259,4.4874,4.5233,4.5338,4.548,4.5529,4.5527,4.6035,4.6191,4.5996,4.6191,4.6211,4.5976,4.5531,4.5001,4.4414,4.4154,4.3624,4.2835,4.2139,4.1696,4.1485,4.0896,4.0415,4.0115,4.0401,0.0,0.0,0.0,0.0,0.0,0.0,0.0,0.0,0.0,3.8284,3.8849,0.0,3.8125,0.0,3.7911,3.8543,4.0004,3.9382,0.0,0.0,3.8679,3.8017,3.6007,3.6498,3.6416,3.4797,3.4562,3.4238,3.3531,3.3113,3.2867,3.288,3.3002,3.3102,3.3102,3.3102,3.3102,3.3102,3.3102,3.3102,3.3102,3.3102,3.3102,3.3102,3.3102,3.3102,3.3102,3.3102,3.3102,3.3102,3.3102,3.3102,3.3102,3.3102,3.3065,3.2927,3.2788,3.2688,3.27,3.2688,3.2688,1.9471,1.9715,2.1796,2.3244,2.4239,2.5021,2.6551,2.8505,2.8909,3.0235,3.2301,3.4073,3.6393,3.8923,3.9327,4.0458,4.2027,4.2083,4.2458,4.3096,4.347,4.3675,4.3796,4.4276,4.4529,4.4643,4.5184,4.5347,4.5143,4.561,4.5772,4.5594,4.5733,4.5847,4.5969,4.6071,4.6197,4.6294,4.6305,4.6246,4.6118,4.5981,4.5672,4.5257,4.4989,4.4443,4.3532,4.2972,4.2536,4.2206,4.1374,4.0778,4.0504,4.0394,4.0019,0.0,0.0,0.0,0.0,0.0,0.0,0.0,0.0,0.0,0.0,0.0,3.8317,3.908,3.8693,3.9028,4.058,3.9661,3.8771,3.8304,3.8284,3.769,3.612,3.6877,3.6898,3.5319,3.5231,3.4828,3.3671,3.3246,3.3102,3.3102,3.3102,3.3102,3.3102,3.3102,3.3102,3.3102,3.3102,3.3102,3.3102,3.3102,3.3102,3.3102,3.3102,3.3102,3.3102,3.3102,3.3102,3.3102,3.3102,3.3102,3.3102,3.3102,3.3102,3.3102,3.3102,3.3102,3.3102,3.3102,3.3102,1.9858,2.0196,2.2646,2.4241,2.5158,2.5892,2.744,2.9539,3.0409,3.1856,3.3713,3.5796,3.738,3.8524,3.9417,4.0679,4.2214,4.2348,4.2759,4.338,4.4111,4.4536,4.4705,4.5495,4.594,4.6078,4.6206,4.6113,4.5862,4.5873,4.5772,4.5594,4.5714,4.5772,4.5809,4.5821,4.5986,4.6236,4.6263,4.6174,4.5926,4.5907,4.5886,4.5813,4.5645,4.5069,4.414,4.3857,4.3449,4.2805,4.1938,4.1358,4.1084,4.0452,3.9905,0.0,3.9474,0.0,0.0,0.0,0.0,0.0,0.0,0.0,0.0,3.7864,3.846,4.0334,3.9686,3.9552,4.0535,3.96,3.8599,3.7877,3.7668,3.735,3.6715,3.715,3.7058,3.584,3.5545,3.4886,3.3787,3.3313,3.3102,3.3102,3.3102,3.3102,3.3102,3.3102,3.3102,3.3102,3.3102,3.3102,3.3102,3.3102,3.3102,3.3102,3.3102,3.3102,3.3102,3.3102,3.3102,3.3102,3.3102,3.3102,3.3102,3.3102,3.3102,3.3102,3.3102,3.3102,3.3102,3.3102,3.3102,1.8708,1.9106,2.3059,2.5079,2.5794,2.7564,2.8727,2.95,3.0406,3.2425,3.5197,3.6284,3.7785,3.9564,4.0823,4.1956,4.3018,4.3779,4.4345,4.4743,4.515,4.5421,4.5567,4.5738,4.5822,4.5868,4.5922,4.5866,4.5638,4.5776,4.5753,4.5594,4.5633,4.5691,4.5796,0.0,0.0,0.0,4.6083,4.6117,4.6061,4.5956,4.5779,4.5513,4.5318,0.0,4.4482,4.3798,4.3322,4.3158,4.2353,0.0,0.0,0.0,0.0,0.0,0.0,0.0,0.0,0.0,0.0,0.0,3.92,3.8909,3.8896,3.8772,3.9034,3.9777,3.9877,3.972,3.9314,3.9053,3.8571,3.7762,3.7623,3.7503,3.7284,3.7808,3.8067,3.7836,3.6774,3.5935,3.5487,3.4199,3.3124,3.3102,3.3102,3.3102,3.3102,3.3102,3.3102,3.3102,3.3102,3.3102,3.3102,3.3102,3.3102,3.3102,3.3102,3.3102,3.3102,3.3102,3.3102,3.3102,3.3102,3.3102,3.3102,3.3102,3.3102,3.3102,3.3102,3.3102,3.3102,3.3102,3.3102,1.9284,0.0,2.4104,2.5898,0.0,2.8436,2.9441,2.9687,3.1098,3.3345,3.6133,3.693,3.8224,3.9837,4.0909,4.2022,4.3211,4.3698,4.4353,4.5096,4.5263,4.5515,4.5815,4.58,4.5816,4.5843,4.5894,4.5845,4.5719,4.5772,4.5733,4.5594,4.5594,4.5633,4.571,4.5633,4.5645,4.5761,4.5904,4.5961,4.5864,4.5856,4.5772,4.5605,0.0,0.0,0.0,0.0,0.0,0.0,0.0,0.0,0.0,0.0,0.0,4.1383,4.1533,4.1633,4.1564,4.138,4.1008,4.0292,3.984,3.9426,3.9086,3.9356,3.9648,3.9877,4.0021,3.9782,3.8992,3.8863,3.8519,3.7748,3.7838,3.797,3.797,3.8482,3.8659,3.8099,3.6996,3.6039,3.5507,3.4129,3.3176,3.3102,3.3102,3.3102,3.3102,3.3102,3.3102,3.3102,3.3102,3.3102,3.3102,3.3102,3.3102,3.3102,3.3102,3.3102,3.3102,3.3102,3.3102,3.3102,3.3102,3.3102,3.3102,3.3102,3.3102,3.3102,3.3102,3.3102,3.3102,3.3102,3.3102,2.007,2.1306,2.4745,2.6203,2.6369,2.8561,2.9708,3.0145,0.0,0.0,0.0,3.744,3.849,3.9695,4.0509,4.1655,4.2922,4.3135,4.3845,4.5013,4.5074,4.533,4.5768,4.5753,4.5791,4.5849,4.5849,4.583,4.5753,4.5753,4.571,4.5614,4.5594,4.5594,4.5594,4.5594,4.5594,4.5614,4.5772,4.581,4.5652,4.5733,4.5733,4.5614,4.5268,4.5101,4.5047,4.4368,4.4183,4.4526,4.3576,4.3039,4.3057,4.2401,4.1874,4.1562,4.1525,4.1466,4.14,4.1433,4.1175,4.0548,4.0262,3.9842,3.9237,3.9745,4.0033,3.9901,3.9889,3.9553,3.8774,3.8624,3.8369,3.7804,3.8116,3.8424,3.8571,3.9032,3.9042,3.8144,3.7026,3.59,3.5116,3.3924,3.3102,3.3102,3.3102,3.3102,3.3102,3.3102,3.3102,3.3102,3.3102,3.3102,3.3102,3.3102,3.3102,3.3102,3.3102,3.3102,3.3102,3.3102,3.3102,3.3102,3.3102,3.3102,3.3102,3.3102,3.3102,3.3102,3.3102,3.3102,3.3102,3.3102,3.3102,1.961,2.0048,2.3559,2.5041,2.521,2.7389,2.9344,3.105,3.2141,3.4112,3.6646,3.7456,3.826,3.909,4.0334,4.1307,4.204,4.2841,4.3737,0.0,4.4979,4.5287,4.5609,4.5633,4.5633,4.5652,4.5652,4.5633,4.5633,4.5633,4.5614,4.5594,4.5594,4.5594,4.5594,4.5594,4.5594,4.5594,4.5753,4.581,4.5772,4.5772,4.5494,4.491,4.5018,4.4798,4.4202,4.4059,4.4042,4.4081,4.3654,4.3414,4.3413,4.3286,4.3231,4.3176,4.3157,4.2965,4.2474,4.2011,4.1306,4.0275,4.0116,4.0062,3.9977,4.0045,3.9808,3.9166,3.9102,3.8714,3.793,3.7826,3.802,3.823,3.8345,3.8634,3.9155,3.9334,3.9352,3.9086,3.7405,3.6212,3.5814,3.4311,3.3188,3.3124,3.3102,3.3102,3.3102,3.3102,3.3102,3.3102,3.3102,3.3102,3.3102,3.3102,3.3102,3.3102,3.3102,3.3102,3.3102,3.3102,3.3102,3.3102,3.3102,3.3102,3.3102,3.3102,3.3102,3.3102,3.3102,3.3102,3.3102,3.3102,3.3102,1.9497,1.9935,2.3331,2.4819,2.4967,2.7154,2.9261,3.1222,3.2213,3.3824,3.584,3.6767,3.7803,3.8921,3.9549,4.037,4.134,4.2098,4.295,4.3863,4.4523,4.5,4.5327,4.5532,4.5594,4.5594,4.5594,4.5594,4.5594,4.5594,4.5594,4.5594,4.5594,4.5594,4.5594,4.5594,4.5594,4.5594,4.5652,4.5691,4.5686,4.552,4.5276,4.491,4.4672,4.4459,4.4321,4.3942,4.382,4.4001,4.3687,4.3488,4.3488,4.3488,4.3488,4.3488,4.3488,4.3277,4.274,4.1842,4.0955,4.0167,4.0113,4.0113,4.0113,3.9688,3.9289,3.8938,3.8865,3.8507,3.7717,3.8256,3.8605,3.8422,3.8706,3.9062,3.9331,3.9406,3.9406,3.9265,3.8036,3.6852,3.6271,3.4884,3.3691,3.3283,3.3102,3.3102,3.3102,3.3102,3.3102,3.3102,3.3102,3.3102,3.3102,3.3102,3.3102,3.3102,3.3102,3.3102,3.3102,3.3102,3.3102,3.3102,3.3102,3.3102,3.3102,3.3102,3.3102,3.3102,3.3102,3.3102,3.3102,3.3102,3.3102,1.9497,1.9807,2.3037,2.4691,2.5315,2.7014,2.8942,3.0914,3.1883,3.317,3.4653,3.5996,3.7454,3.8843,3.8911,3.9622,4.0868,4.1534,4.2308,4.3238,4.4064,4.4695,4.5091,4.5366,4.5541,4.5586,4.5594,4.5594,4.5594,4.5594,4.5594,4.5594,4.5594,4.5594,4.5594,4.5594,4.5594,4.5594,4.5594,4.5594,4.5586,4.5263,4.5076,4.4953,4.4436,4.4234,4.4416,4.3913,4.3716,4.3963,4.3669,4.3488,4.3488,4.3488,4.3488,4.3488,4.3488,4.3205,4.2509,4.1397,4.054,4.0129,4.0113,4.018,4.0256,3.9445,3.8881,3.8863,3.8642,3.8276,3.8003,3.8653,3.9135,3.869,3.9062,3.9361,3.9406,3.9406,3.9406,3.9301,3.8472,3.7381,3.635,3.5339,3.4296,3.3334,3.3102,3.3102,3.3102,3.3102,3.3102,3.3102,3.3102,3.3102,3.3102,3.3102,3.3102,3.3102,3.3102,3.3102,3.3102,3.3102,3.3102,3.3102,3.3102,3.3102,3.3102,3.3102,3.3102,3.3102,3.3102,3.3102,3.3102,3.3102,3.3102,1.9497,1.9883,2.2217,2.4467,2.6289,2.6609,2.7963,2.9985,3.0927,3.187,3.3157,3.5489,3.7394,3.8786,3.887,3.9545,4.0845,4.1523,4.2259,4.3152,4.3788,4.4409,4.5036,4.5118,4.5307,4.554,4.5581,4.5577,4.5594,4.5594,4.5594,4.5594,4.5594,4.5594,4.5594,4.5594,4.5594,4.5594,4.5594,4.5594,4.5577,4.5263,4.4966,4.4644,4.4574,4.4376,4.4089,4.4,4.3971,4.3978,4.3669,4.3488,4.3488,4.3488,4.3488,4.3488,4.3479,4.3041,4.194,4.0797,4.0171,4.0108,4.013,4.0375,4.0876,3.9675,3.8825,3.8739,3.8182,3.7953,3.8263,3.8507,3.882,3.9206,3.9331,3.9406,3.9406,3.9406,3.9406,3.9388,3.8472,3.7401,3.633,3.5258,3.4254,3.3261,3.3102,3.3102,3.3102,3.3102,3.3102,3.3102,3.3102,3.3102,3.3102,3.3102,3.3102,3.3102,3.3102,3.3102,3.3102,3.3102,3.3102,3.3102,3.3102,3.3102,3.3102,3.3102,3.3102,3.3102,3.3102,3.3102,3.3102,3.3102,3.3102,1.8864,1.9664,2.1626,2.4347,2.7099,2.7334,2.863,3.0735,3.1395,3.2192,3.3153,3.4484,3.5995,3.7527,3.7556,3.8319,3.9707,4.0355,4.124,4.2379,4.3162,4.3851,4.4423,4.4688,4.4996,4.5292,4.5312,4.5415,4.5573,4.5594,4.5594,4.5594,4.5594,4.5594,4.5594,4.5594,4.5594,4.559,4.541,4.5307,4.5258,4.4971,4.4732,4.4567,4.4191,4.3894,4.3739,4.3701,4.3701,4.3693,4.3582,4.3488,4.3488,4.3488,4.3488,4.3462,4.2847,4.2296,4.1814,4.0749,4.0113,4.0113,4.0506,4.0697,4.0423,3.9818,3.9417,3.9203,3.8551,3.8184,3.8417,3.8736,3.9125,3.9361,3.9406,3.9406,3.9406,3.9406,3.9406,3.9319,3.8457,3.7396,3.6231,3.4761,3.367,3.3167,3.3102,3.3102,3.3102,3.3102,3.3102,3.3102,3.3102,3.3102,3.3102,3.3102,3.3102,3.3102,3.3102,3.3102,3.3102,3.3102,3.3102,3.3102,3.3102,3.3102,3.3102,3.3102,3.3102,3.3102,3.3102,3.3102,3.3102,3.3102,3.3102,1.8668,2.002,2.1845,2.4483,2.7382,2.7776,2.9038,3.0873,3.1554,3.2358,3.3254,3.3655,3.467,3.6032,3.6445,3.7438,3.8851,3.9533,4.0417,4.1603,4.2599,4.3337,4.378,4.4221,4.4625,4.4919,4.4954,4.5153,4.5429,4.5452,4.5504,4.5581,4.5594,4.5594,4.5594,4.5594,4.554,4.5438,4.5217,4.5058,4.4931,4.46,4.4431,4.4375,4.3812,4.3488,4.3488,4.3488,4.3488,4.3488,4.3488,4.3488,4.3488,4.3488,4.3488,4.3391,4.2426,4.181,4.1789,4.0909,4.0405,4.0455,4.1085,4.1241,4.0638,4.0307,4.0087,3.9871,3.9172,3.8679,3.8736,3.9107,3.9391,3.9406,3.9406,3.9406,3.9406,3.9406,3.9406,3.9301,3.8472,3.7247,3.5888,3.427,3.3145,3.3124,3.3102,3.3102,3.3102,3.3102,3.3102,3.3102,3.3102,3.3102,3.3102,3.3102,3.3102,3.3102,3.3102,3.3102,3.3102,3.3102,3.3102,3.3102,3.3102,3.3102,3.3102,3.3102,3.3102,3.3102,3.3102,3.3102,3.3102,3.3102,3.3102,1.9279,2.0832,2.3224,2.5024,2.6282,2.747,2.8611,3.0004,3.1001,3.1997,3.2887,3.3244,3.4002,3.5088,3.6044,3.7395,3.878,3.9417,4.0119,4.0972,4.2165,4.2886,4.3246,4.3772,4.4233,4.4586,4.4612,4.4781,4.5121,4.5129,4.5278,4.5564,4.5564,4.5581,4.5568,4.5531,4.5429,4.518,4.5074,4.4925,4.4612,4.4226,4.4026,4.3986,4.3667,4.3488,4.3488,4.3488,4.3488,4.3488,4.3488,4.3488,4.3488,4.3488,4.3488,4.3356,4.2444,4.1828,4.1773,4.139,4.1153,4.1255,4.183,4.2165,4.1751,4.1215,4.0736,4.06,3.9728,3.9287,3.9287,3.9331,3.9406,3.9406,3.9406,3.9406,3.9406,3.9406,3.9406,3.9174,3.8234,3.673,3.4979,3.3805,3.3219,3.3102,3.3102,3.3102,3.3102,3.3102,3.3102,3.3102,3.3102,3.3102,3.3102,3.3102,3.3102,3.3102,3.3102,3.3102,3.3102,3.3102,3.3102,3.3102,3.3102,3.3102,3.3102,3.3102,3.3102,3.3102,3.3102,3.3102,3.3102,3.3102,3.3102,1.7931,2.1193,2.3748,2.5688,2.7155,2.8338,2.9518,3.0684,3.1557,3.2465,3.3224,3.3135,3.3725,3.4922,3.5331,3.6201,3.744,3.8181,3.9129,4.0241,4.1532,4.2396,4.2904,4.3413,4.3868,4.4161,4.4237,4.4407,4.4763,4.5002,4.5052,4.5,4.5166,4.5273,4.5243,4.5074,4.5007,4.5047,4.4657,4.4339,4.4197,4.3868,4.3676,4.3677,4.3565,4.3488,4.3488,4.3488,4.3488,4.3488,4.3488,4.3488,4.3488,4.3488,4.333,4.3004,4.2681,4.2346,4.2055,4.1942,4.1908,4.1961,4.2591,4.2467,4.1666,4.1468,4.1143,4.0122,3.9646,3.9406,3.9406,3.9406,3.9406,3.9406,3.9388,3.937,3.9406,3.9388,3.9174,3.8341,3.6919,3.5244,3.417,3.3347,3.3124,3.3102,3.3102,3.3102,3.3102,3.3102,3.3102,3.3102,3.3102,3.3102,3.3102,3.3102,3.3102,3.3102,3.3102,3.3102,3.3102,3.3102,3.3102,3.3102,3.3102,3.3102,3.3102,3.3102,3.3102,3.3102,3.3102,3.3102,3.3102,3.3102,3.3102,1.8189,2.1445,2.3724,2.5554,2.7067,2.8285,2.9521,3.0663,3.152,3.2483,3.3297,3.3203,3.3534,3.4162,3.4355,3.4864,3.5867,3.7158,3.8421,3.9572,4.0891,4.1736,4.2193,4.2875,4.3363,4.3578,4.3778,4.4031,4.438,4.4632,4.467,4.4618,4.4824,4.4918,4.4896,4.4701,4.4676,4.4638,4.4236,4.3963,4.3818,4.3631,4.3488,4.3488,4.3488,4.3488,4.3488,4.3488,4.3488,4.3488,4.3488,4.3616,4.3828,4.3864,4.3761,4.3492,4.3358,4.3038,4.2575,4.2591,4.254,4.2346,4.29,4.2652,4.1103,4.1291,4.0795,3.9791,3.9406,3.9406,3.9406,3.9406,3.9406,3.9352,3.9104,3.9068,3.9286,3.873,3.7885,3.6841,3.5689,3.4345,3.3356,3.3167,3.3102,3.3102,3.3102,3.3102,3.3102,3.3102,3.3102,3.3102,3.3102,3.3102,3.3102,3.3102,3.3102,3.3102,3.3102,3.3102,3.3102,3.3102,3.3102,3.3102,3.3102,3.3102,3.3102,3.3102,3.3102,3.3102,3.3102,3.3102,3.3102,3.3102,3.3102,2.0284,2.1795,2.3167,2.4581,2.5965,2.7244,2.8342,2.9498,3.073,3.1933,3.2885,3.3416,3.3317,3.3076,3.3377,3.3686,3.4562,3.6507,3.8017,3.8942,4.0256,4.092,4.1115,4.2165,4.2741,4.2855,4.3268,4.367,4.4001,4.408,4.4247,4.4501,4.4547,4.4567,4.4586,4.4507,4.4364,4.415,4.3982,4.3828,4.3548,4.3496,4.3488,4.3488,4.3488,4.3524,4.3543,4.3524,4.3524,4.3579,4.3579,4.391,4.459,4.47,4.4747,4.4642,4.4369,4.385,4.3266,4.3299,4.3087,4.2708,4.2965,4.2625,4.1269,4.0831,4.0414,3.961,3.9388,3.9373,3.9301,3.9352,3.9319,3.9265,3.8509,3.8383,3.869,3.7501,3.5874,3.5109,3.4643,3.4212,3.3441,3.3102,3.3102,3.3102,3.3102,3.3102,3.3102,3.3102,3.3102,3.3102,3.3102,3.3102,3.3102,3.3102,3.3102,3.3102,3.3102,3.3102,3.3102,3.3102,3.3102,3.3102,3.3102,3.3102,3.3102,3.3102,3.3102,3.3102,3.3102,3.3102,3.3102,3.3102,3.3102,1.9542,2.1769,2.316,2.4461,2.5795,2.7064,2.7838,2.8389,3.0294,3.1434,3.1916,3.2842,3.3091,3.2883,3.2942,3.334,3.4107,3.5444,3.6764,3.8155,3.952,4.0413,4.0955,4.1714,4.2302,4.2637,4.2855,4.3205,4.3602,4.3846,4.3971,4.3907,4.4069,4.4175,4.4139,4.3985,4.3852,4.3989,4.3764,4.3597,4.3496,4.3479,4.3479,4.3488,4.3488,4.3736,4.426,4.3809,4.3773,4.4287,4.4342,4.469,4.5333,4.5507,4.516,4.4518,4.4715,4.4372,4.3579,4.3875,4.4077,4.3789,4.352,4.2785,4.1723,4.0979,4.0326,3.9553,3.9388,3.9174,3.8583,3.8998,3.9017,3.8379,3.8013,3.781,3.79,3.7002,3.5868,3.4828,3.4058,3.3471,3.3219,3.3102,3.3102,3.3102,3.3102,3.3102,3.3102,3.3102,3.3102,3.3102,3.3102,3.3102,3.3102,3.3102,3.3102,3.3102,3.3102,3.3102,3.3102,3.3102,3.3102,3.3102,3.3102,3.3102,3.3102,3.3102,3.3102,3.3102,3.3102,3.3102,3.3102,3.3102,3.3102,1.8376,2.099,2.2391,2.3732,2.5069,2.6336,2.7173,2.7838,2.9647,3.0777,3.139,3.2547,3.2785,3.2384,3.227,3.2522,3.3048,3.3861,3.5173,3.6854,3.8399,3.9443,4.0224,4.1093,4.1789,4.2272,4.2362,4.2531,4.2875,4.3059,4.3077,4.295,4.3068,4.3155,4.3173,4.2996,4.2978,4.313,4.2969,4.2857,4.2912,4.3096,4.3196,4.326,4.3677,4.4168,4.4655,4.4461,4.4626,4.5057,4.5149,4.5434,4.5952,4.6184,4.5832,4.5021,4.5134,4.512,4.4099,4.4293,4.4239,4.3724,4.3139,4.2253,4.1246,4.0447,3.9953,3.9535,3.9388,3.9137,3.8653,3.8527,3.8312,3.731,3.7175,3.6861,3.6279,3.5862,3.519,3.4254,3.3513,3.3176,3.3102,3.3102,3.3102,3.3102,3.3102,3.3102,3.3102,3.3102,3.3102,3.3102,3.3102,3.3102,3.3102,3.3102,3.3102,3.3102,3.3102,3.3102,3.3102,3.3102,3.3102,3.3102,3.3102,3.3102,3.3102,3.3102,3.3102,3.3102,3.3102,3.3102,3.3102,3.3102,3.3102,1.6969,1.9646,2.1016,2.2466,2.3865,2.5094,2.625,2.7518,2.8924,3.009,3.1122,3.237,3.2445,3.1623,3.1481,3.1454,3.1418,3.2218,3.3502,3.5109,3.6673,3.7898,3.8996,4.0009,4.0828,4.1499,4.1614,4.1739,4.201,4.2016,4.1821,4.1969,4.2013,4.1867,4.2006,4.1853,4.1958,4.2024,4.1919,4.1919,4.2021,4.2372,4.2765,4.2851,4.3832,4.4473,4.4791,4.5442,4.5911,4.5984,4.5993,4.6161,4.6394,4.6807,4.6446,4.5546,4.6055,4.5576,4.4838,4.4533,4.3975,4.2661,4.2269,4.1313,4.013,3.9755,3.9553,3.9409,3.925,3.9123,3.8767,3.8238,3.7266,3.635,3.6132,3.5339,3.3628,3.417,3.4304,3.3535,3.3124,3.3102,3.3102,3.3102,3.3102,3.3102,3.3102,3.3102,3.3102,3.3102,3.3102,3.3102,3.3102,3.3102,3.3102,3.3102,3.3102,3.3102,3.3102,3.3102,3.3102,3.3102,3.3102,3.3102,3.3102,3.3102,3.3102,3.3102,3.3102,3.3102,3.3102,3.3102,3.3124,3.3124,3.3124,1.6105,1.955,2.0007,2.1524,2.3558,2.4122,2.5001,2.6428,2.8495,2.9544,3.0247,3.169,3.2022,3.1406,3.0984,3.0951,3.1194,3.1462,3.2128,3.3309,3.4443,3.6199,3.7745,3.8451,3.9261,4.0188,4.0357,4.0834,4.1739,4.1593,4.1664,4.181,4.1582,4.1707,4.181,4.1697,4.181,4.181,4.1789,4.1969,4.2272,4.2101,4.249,4.3242,4.34,4.3988,4.4917,4.6257,4.692,4.68,4.6928,4.7252,4.7494,4.6974,4.6449,4.6152,4.5812,4.5425,4.4804,4.4556,4.4035,4.3078,4.2237,4.1527,4.0483,3.9755,3.9463,3.9265,3.8764,3.7927,3.7257,3.6833,3.6146,3.5319,3.5075,3.4568,3.3649,3.3974,3.4283,3.3347,3.3124,3.3102,3.3102,3.3102,3.3102,3.3102,3.3102,3.3102,3.3102,3.3102,3.3102,3.3102,3.3102,3.3102,3.3102,3.3102,3.3102,3.3102,3.3102,3.3102,3.3102,3.3102,3.3102,3.3102,3.3102,3.3102,3.3102,3.3102,3.3102,3.3102,3.3102,3.3102,3.3111,3.3111,3.3154,1.5447,1.8812,1.9369,2.0845,2.2818,2.3459,2.4461,2.5907,2.7744,2.8826,2.9364,3.0723,3.1294,3.1052,3.0746,3.0575,3.0653,3.1026,3.1504,3.2051,3.3035,3.4876,3.6812,3.7588,3.8227,3.8836,3.8954,3.9371,3.9954,4.0127,4.0127,4.0028,4.0109,4.0265,4.0492,4.0599,4.0787,4.099,4.1099,4.1281,4.1536,4.1501,4.1983,4.2816,4.3165,4.4086,4.5511,4.6501,4.7025,4.7168,4.734,4.7449,4.7409,4.6847,4.6288,4.607,4.5675,4.5237,4.4657,4.4291,4.3643,4.2802,4.1965,4.1095,4.0272,3.9663,3.9406,3.9316,3.8401,3.7587,3.6905,3.6146,3.5149,3.4254,3.4024,3.3776,3.3145,3.362,3.3704,3.3304,3.3102,3.3102,3.3102,3.3102,3.3102,3.3102,3.3102,3.3102,3.3102,3.3102,3.3102,3.3102,3.3102,3.3102,3.3102,3.3102,3.3102,3.3102,3.3102,3.3102,3.3102,3.3102,3.3102,3.3102,3.3102,3.3102,3.3102,3.3102,3.3102,3.3102,3.3102,3.3124,3.3111,3.327,3.3292,1.4963,1.7707,1.8883,2.0205,2.1575,2.2926,2.4097,2.5523,2.6985,2.7985,2.878,2.9778,3.0417,3.06,3.0487,3.0283,2.9895,3.0601,3.1044,3.1499,3.2236,3.3739,3.5681,3.6353,3.6946,3.739,3.7511,3.7772,3.8169,3.8088,3.7933,3.8255,3.8187,3.84,3.9196,3.9212,3.946,4.0112,4.0303,4.0422,4.0582,4.0784,4.138,4.2454,4.3514,4.4635,4.5745,4.6336,4.6518,4.7143,4.7205,4.6898,4.6442,4.6383,4.6026,4.5553,4.526,4.4835,4.4415,4.3588,4.2776,4.1949,4.118,4.0328,3.972,3.9424,3.9301,3.905,3.8238,3.7338,3.6554,3.5433,3.4324,3.3484,3.3219,3.3145,3.3102,3.3102,3.3102,3.3102,3.3102,3.3102,3.3102,3.3102,3.3102,3.3102,3.3102,3.3102,3.3102,3.3102,3.3102,3.3102,3.3102,3.3102,3.3102,3.3102,3.3102,3.3102,3.3102,3.3102,3.3102,3.3102,3.3102,3.3102,3.3102,3.3102,3.3102,3.3102,3.3124,3.3102,3.3102,3.3102,3.3145,3.3428,3.3564,1.499,1.7635,1.7917,1.8805,2.0161,2.155,2.2901,2.4307,2.6185,2.7419,2.8477,2.9011,2.969,3.051,3.0083,2.988,2.9804,3.012,3.0444,3.1217,3.1333,3.2164,3.3341,3.3793,3.4521,3.5446,3.5794,3.6476,3.738,3.7618,3.7793,3.7778,3.8019,3.8687,3.8813,3.9179,3.9859,4.007,4.0058,4.022,4.0431,4.0397,4.1075,4.2526,4.3705,4.4664,4.544,4.5699,4.5787,4.587,4.5945,4.6051,4.6131,4.552,4.5271,4.5221,4.4387,4.3777,4.3459,4.282,4.1917,4.1162,4.0775,4.0326,3.9535,3.9337,3.8943,3.8252,3.7175,3.5981,3.4643,3.3848,3.3441,3.3188,3.3102,3.3102,3.3102,3.3102,3.3102,3.3102,3.3102,3.3102,3.3102,3.3102,3.3102,3.3102,3.3102,3.3102,3.3102,3.3102,3.3102,3.3102,3.3102,3.3102,3.3102,3.3102,3.3102,3.3102,3.3102,3.3102,3.3102,3.3102,3.3102,3.3102,3.3102,3.3102,3.3102,3.3124,3.3124,3.3124,3.324,3.3462,3.367,3.3827,3.4137,1.499,1.7529,1.7615,1.8375,1.9602,2.041,2.1736,2.3336,2.4503,2.5837,2.6918,2.723,2.8071,2.9372,2.9162,2.9216,2.9702,2.9792,3.0056,3.0476,3.0558,3.0796,3.1132,3.1513,3.237,3.4282,3.4646,3.5473,3.6399,3.6738,3.6646,3.6723,3.716,3.7336,3.7787,3.8342,3.8566,3.9008,3.9385,3.9702,3.986,4.0137,4.0866,4.2542,4.3745,4.4691,4.5035,4.5075,4.5075,4.5075,4.5102,4.5342,4.5732,4.5125,4.4957,4.5124,4.413,4.3375,4.3081,4.2157,4.1207,4.0724,4.0345,3.9917,3.934,3.8998,3.8438,3.7625,3.6417,3.4802,3.3334,3.3124,3.3102,3.3102,3.3102,3.3102,3.3102,3.3102,3.3102,3.3102,3.3102,3.3102,3.3102,3.3102,3.3102,3.3102,3.3102,3.3102,3.3102,3.3102,3.3102,3.3102,3.3102,3.3102,3.3102,3.3102,3.3102,3.3102,3.3102,3.3102,3.3102,3.3102,3.3102,3.3102,3.3102,3.3102,3.3124,3.3124,3.3368,3.3818,3.4058,3.415,3.4581,3.5339,3.55,1.4856,1.7279,1.7503,1.8244,1.9246,1.9576,2.0655,2.2214,2.2798,2.397,2.498,2.522,2.6494,2.7583,2.7879,2.851,2.9307,2.9779,2.9914,2.9921,2.996,3.0017,3.0094,3.0317,3.1175,3.338,3.3452,3.4114,3.4973,3.5164,3.5139,3.5265,3.5509,3.601,3.6353,3.6798,3.7425,3.8064,3.8527,3.8759,3.8837,3.9365,4.0373,4.2041,4.3731,4.4516,4.4637,4.4522,4.4437,4.4556,4.4485,4.4752,4.5062,4.4971,4.4662,4.5093,4.372,4.292,4.2376,4.1406,4.0472,4.048,3.99,3.934,3.8977,3.8345,3.7682,3.671,3.5514,3.4108,3.3219,3.3102,3.3102,3.3102,3.3102,3.3102,3.3102,3.3102,3.3102,3.3102,3.3102,3.3102,3.3102,3.3102,3.3102,3.3102,3.3102,3.3102,3.3102,3.3102,3.3102,3.3102,3.3102,3.3102,3.3102,3.3102,3.3102,3.3102,3.3102,3.3102,3.3102,3.3102,3.3102,3.3102,3.3102,3.3145,3.3145,3.3124,3.3556,3.44,3.4725,3.4643,3.5561,3.6866,3.6774,1.4261,1.5876,1.7094,1.7766,1.8094,1.9091,1.9648,2.0114,2.1736,2.2978,2.39,2.4608,2.5528,2.6513,2.676,2.7392,2.8478,2.9314,2.9779,2.9779,2.9779,2.9779,2.9779,2.9818,3.0558,3.131,3.1797,3.2642,3.3719,3.3564,3.3771,3.4266,3.4888,3.5332,3.5792,3.672,3.7323,3.7471,3.782,3.7948,3.8033,3.8519,3.9521,4.1418,4.3305,4.4209,4.4281,4.3902,4.3844,4.4443,4.3873,4.4032,4.4404,4.448,4.4219,4.3741,4.2839,4.1991,4.1352,4.0349,3.973,3.9571,3.9481,3.8907,3.8345,3.7776,3.6905,3.5433,3.4345,3.3326,3.3167,3.3102,3.3102,3.3102,3.3102,3.3102,3.3102,3.3102,3.3102,3.3102,3.3102,3.3102,3.3102,3.3102,3.3102,3.3102,3.3102,3.3102,3.3102,3.3102,3.3102,3.3102,3.3102,3.3102,3.3102,3.3102,3.3102,3.3102,3.3102,3.3102,3.3102,3.3102,3.3102,3.3102,3.3188,3.3261,3.324,3.324,3.3911,3.4856,3.4999,3.5109,3.6377,3.7553,3.7515,1.4126,1.553,1.6988,1.7615,1.7687,1.8097,1.8568,1.9039,2.0454,2.1611,2.2512,2.346,2.4542,2.5389,2.5609,2.6491,2.7996,2.9275,2.974,2.9779,2.9779,2.9779,2.9779,2.9779,3.0037,3.0381,3.0576,3.1476,3.3084,3.289,3.2837,3.3331,3.4143,3.4578,3.484,3.582,3.6523,3.6661,3.695,3.7159,3.7374,3.807,3.9742,4.1058,4.2344,4.3162,4.3168,4.2939,4.2816,4.3061,4.2831,4.2909,4.3137,4.3275,4.329,4.3022,4.2072,4.1182,4.0652,3.9902,3.946,3.9406,3.9388,3.887,3.7975,3.719,3.6007,3.4394,3.362,3.3102,3.3102,3.3102,3.3102,3.3102,3.3102,3.3102,3.3102,3.3102,3.3102,3.3102,3.3102,3.3102,3.3102,3.3102,3.3102,3.3102,3.3102,3.3102,3.3102,3.3102,3.3102,3.3102,3.3102,3.3102,3.3102,3.3102,3.3102,3.3102,3.3102,3.3102,3.3102,3.3102,3.3102,3.3102,3.3219,3.3776,3.3755,3.3898,3.463,3.5379,3.5961,3.6593,3.742,3.8021,3.8036,1.4126,1.5524,1.6982,1.7575,1.7488,1.7306,1.7516,1.8191,1.9113,2.0075,2.1029,2.2208,2.3379,2.4286,2.4914,2.5817,2.753,2.851,2.904,2.9255,2.904,2.915,2.9721,2.9573,2.956,2.9934,2.994,3.0677,3.1924,3.1924,3.2083,3.2415,3.3122,3.3432,3.3605,3.4599,3.4986,3.5428,3.5975,3.6353,3.6894,3.8464,3.9916,4.0645,4.1465,4.2093,4.2189,4.1885,4.1949,4.2013,4.1917,4.1853,4.1949,4.1853,4.2077,4.241,4.1402,4.0806,4.0247,3.9882,3.9406,3.9406,3.9174,3.849,3.7396,3.6126,3.4843,3.3471,3.3102,3.3102,3.3102,3.3102,3.3102,3.3102,3.3102,3.3102,3.3102,3.3102,3.3102,3.3102,3.3102,3.3102,3.3102,3.3102,3.3102,3.3102,3.3102,3.3102,3.3102,3.3102,3.3102,3.3102,3.3102,3.3102,3.3102,3.3102,3.3102,3.3102,3.3102,3.3102,3.3102,3.3102,3.3102,3.3197,3.4415,3.4904,3.4719,3.474,3.5567,3.6383,3.7228,3.7904,3.842,3.873,3.8837,1.4126,1.5524,1.6975,1.7468,1.7273,1.7199,1.6921,1.6786,1.789,1.8832,1.9951,2.1056,2.2284,2.3389,2.4457,2.4978,2.5598,2.6646,2.7646,2.8128,2.7646,2.8171,2.9346,2.8688,2.9157,2.9611,2.9779,3.0362,3.1026,3.0652,3.069,3.1291,3.1596,3.1614,3.2087,3.3602,3.4129,3.438,3.5152,3.5668,3.6103,3.7786,3.8666,3.9581,4.0721,4.1756,4.1593,4.118,4.1113,4.1658,4.1164,4.1247,4.1691,4.1214,4.0946,4.0949,4.0704,4.0368,3.973,3.9499,3.9265,3.9086,3.8598,3.7548,3.6358,3.4856,3.3649,3.3304,3.3102,3.3102,3.3102,3.3102,3.3102,3.3102,3.3102,3.3102,3.3102,3.3102,3.3102,3.3102,3.3102,3.3102,3.3102,3.3102,3.3102,3.3102,3.3102,3.3102,3.3102,3.3102,3.3102,3.3102,3.3102,3.3102,3.3102,3.3102,3.3102,3.3102,3.3102,3.3102,3.3102,3.3102,3.3102,3.3513,3.4843,3.5608,3.5258,3.5547,3.6487,3.7214,3.7814,3.8457,3.9123,3.9352,3.9388,1.4126,1.5512,1.6807,1.732,1.7159,1.6832,1.6545,1.6565,1.7406,1.8481,1.959,2.0773,2.1974,2.3159,2.4286,2.4819,2.5062,2.588,2.6678,2.7055,2.6801,2.729,2.8367,2.8426,2.8727,2.9385,2.9798,2.9908,3.0158,3.0062,3.0094,3.04,3.0914,3.1278,3.1241,3.3049,3.3808,3.4146,3.4526,3.5381,3.6401,3.7092,3.7839,3.9102,4.0076,4.0476,4.0499,4.0257,4.0113,4.0464,4.0063,4.0115,4.0361,4.0168,3.9955,3.9937,3.934,3.9158,3.9343,3.9337,3.905,3.8564,3.7923,3.7132,3.5554,3.4087,3.3102,3.3102,3.3102,3.3102,3.3102,3.3102,3.3102,3.3102,3.3102,3.3102,3.3102,3.3102,3.3102,3.3102,3.3102,3.3102,3.3102,3.3102,3.3102,3.3102,3.3102,3.3102,3.3102,3.3102,3.3102,3.3102,3.3102,3.3102,3.3102,3.3102,3.3102,3.3102,3.3102,3.3102,3.3102,3.3102,3.3102,3.3691,3.4891,3.5386,3.5487,3.6638,3.789,3.8148,3.8275,3.8837,3.9352,3.937,3.9406,1.3745,1.5411,1.6652,1.7125,1.6919,1.6478,1.6233,1.6271,1.6869,1.8072,1.9633,2.1051,2.2303,2.305,2.3877,2.4253,2.4393,2.5284,2.5787,2.5933,2.5975,2.6399,2.7125,2.7542,2.7735,2.9,2.8653,2.874,2.8831,2.8929,2.902,2.976,3.0419,3.072,3.1217,3.2213,3.314,3.3553,3.3908,3.5007,3.6301,3.6258,3.7424,3.8499,3.9143,3.9123,3.937,3.9427,3.9478,3.9499,3.9535,3.9574,3.9589,3.9592,3.9271,3.9038,3.838,3.8105,3.8405,3.8494,3.8345,3.772,3.6958,3.6021,3.4594,3.3505,3.3102,3.3102,3.3102,3.3102,3.3102,3.3102,3.3102,3.3102,3.3102,3.3102,3.3102,3.3102,3.3102,3.3102,3.3102,3.3102,3.3102,3.3102,3.3102,3.3102,3.3102,3.3102,3.3102,3.3102,3.3102,3.3102,3.3102,3.3102,3.3102,3.3102,3.3102,3.3102,3.3102,3.3102,3.3102,3.3102,3.3102,3.394,3.4932,3.5574,3.5894,3.7629,3.9213,3.8998,3.887,3.9104,3.9388,3.9406,3.9406,1.2746,1.5163,1.6542,1.6827,1.6384,1.6324,1.6136,1.5905,1.5964,1.739,1.9656,2.1765,2.2894,2.3135,2.3256,2.3387,2.3299,2.3299,2.4092,2.436,2.4145,2.4925,2.5744,2.6036,2.588,2.6853,2.7221,2.7139,2.6944,2.7545,2.8311,2.9534,2.9722,2.9844,3.0305,3.1254,3.2267,3.282,3.3342,3.4128,3.5166,3.5658,3.6673,3.7943,3.8227,3.8341,3.9301,3.9283,3.9192,3.9192,3.9337,3.9017,3.8907,3.9068,3.8764,3.7998,3.751,3.7132,3.6982,3.7381,3.7271,3.6422,3.55,3.4684,3.3628,3.3304,3.3102,3.3102,3.3102,3.3102,3.3102,3.3102,3.3102,3.3102,3.3102,3.3102,3.3102,3.3102,3.3102,3.3102,3.3102,3.3102,3.3102,3.3102,3.3102,3.3102,3.3102,3.3102,3.3102,3.3102,3.3102,3.3102,3.3102,3.3102,3.3102,3.3102,3.3102,3.3102,3.3102,3.3102,3.3102,3.3102,3.3102,3.3797,3.4671,3.5494,3.6493,3.8021,3.909,3.9301,3.9406,3.9406,3.9406,3.9406,3.9406,1.1933,1.3499,1.4858,1.5767,1.6284,1.6079,1.5932,1.5815,1.5825,1.7203,1.9602,2.193,2.3101,2.3069,2.3101,2.3101,2.3101,2.3123,2.3452,2.3507,2.3529,2.4092,2.483,2.5231,2.5399,2.6182,2.6421,2.6483,2.6607,2.6801,2.7695,2.8577,2.8799,2.9275,2.9813,3.0658,3.1573,3.2159,3.2511,3.2963,3.4351,3.4324,3.5358,3.7761,3.7139,3.7847,3.898,3.8671,3.8509,3.8583,3.9017,3.855,3.7961,3.8182,3.7829,3.6905,3.6417,3.5822,3.5601,3.6087,3.629,3.5352,3.4345,3.3543,3.3111,3.3124,3.3102,3.3102,3.3102,3.3102,3.3102,3.3102,3.3102,3.3102,3.3102,3.3102,3.3102,3.3102,3.3102,3.3102,3.3102,3.3102,3.3102,3.3102,3.3102,3.3102,3.3102,3.3102,3.3102,3.3102,3.3102,3.3102,3.3102,3.3102,3.3102,3.3102,3.3102,3.3102,3.3102,3.3102,3.3102,3.3102,3.324,3.3827,3.4609,3.5708,3.6896,3.8242,3.9017,3.9301,3.9406,3.9406,3.9406,3.9406,3.9406,1.1648,1.2959,1.3864,1.4992,1.6047,1.5895,1.5801,1.5801,1.5801,1.6906,1.9085,2.1118,2.2271,2.2479,2.2545,2.2862,2.2982,2.3101,2.3101,2.3135,2.3256,2.3606,2.4039,2.4329,2.451,2.54,2.5494,2.5368,2.5295,2.6552,2.7145,2.7522,2.8016,2.8767,2.9715,3.0419,3.1137,3.142,3.169,3.203,3.3639,3.3499,3.4298,3.6682,3.6292,3.6903,3.7935,3.7954,3.7629,3.7814,3.7979,3.7539,3.7046,3.6682,3.6657,3.5922,3.517,3.4602,3.4519,3.4671,3.5116,3.4712,3.3818,3.3304,3.3102,3.3102,3.3102,3.3102,3.3102,3.3102,3.3102,3.3102,3.3102,3.3102,3.3102,3.3102,3.3102,3.3102,3.3102,3.3102,3.3102,3.3102,3.3102,3.3102,3.3102,3.3102,3.3102,3.3102,3.3102,3.3102,3.3102,3.3102,3.3102,3.3102,3.3102,3.3102,3.3102,3.3102,3.3102,3.3102,3.3102,3.3145,3.3484,3.415,3.5007,3.6053,3.7233,3.8476,3.9017,3.937,3.9406,3.9406,3.9406,3.9406,3.9406,1.2011,1.3973,1.4087,1.4759,1.58,1.5815,1.5801,1.5849,1.5967,1.6685,1.8033,1.936,2.0531,2.1302,2.1645,2.2186,2.2982,2.3101,2.3101,2.3101,2.3123,2.32,2.3266,2.3408,2.3616,2.3244,2.3572,2.3789,2.3539,2.4893,2.5734,2.6687,2.7542,2.8656,2.9702,2.9811,2.9876,2.9998,3.079,3.1844,3.2632,3.2824,3.4159,3.5412,3.5251,3.5757,3.7093,3.6788,3.6601,3.7074,3.6871,3.6448,3.5914,3.6013,3.5728,3.4808,3.4677,3.4142,3.3377,3.3283,3.3734,3.4283,3.3471,3.3167,3.3102,3.3102,3.3102,3.3102,3.3102,3.3102,3.3102,3.3102,3.3102,3.3102,3.3102,3.3102,3.3102,3.3102,3.3102,3.3102,3.3102,3.3102,3.3102,3.3102,3.3102,3.3102,3.3102,3.3102,3.3102,3.3102,3.3102,3.3102,3.3102,3.3102,3.3102,3.3102,3.3102,3.3102,3.3102,3.3102,3.324,3.3398,3.3827,3.4491,3.5574,3.6735,3.7667,3.8638,3.9035,3.9406,3.9406,3.9406,3.9406,3.9406,3.9406,1.1928,1.4081,1.4005,1.4665,1.5706,1.5801,1.5801,1.5967,1.6669,1.7295,1.787,1.8979,2.0169,2.098,2.136,2.1867,2.2862,2.3101,2.3101,2.3047,2.2938,2.3113,2.3069,2.3025,2.3069,2.3101,2.3101,2.3101,2.32,2.4232,2.483,2.5682,2.7218,2.8668,2.9482,2.9779,2.9798,2.9925,3.0488,3.1193,3.1877,3.2339,3.3276,3.5082,3.4221,3.4766,3.6487,3.5715,3.5575,3.5995,3.5728,3.5507,3.4802,3.4733,3.4712,3.3945,3.3683,3.3547,3.3167,3.3167,3.3227,3.3407,3.3398,3.3102,3.3102,3.3102,3.3102,3.3102,3.3102,3.3102,3.3102,3.3102,3.3102,3.3102,3.3102,3.3102,3.3102,3.3102,3.3102,3.3102,3.3102,3.3102,3.3102,3.3102,3.3102,3.3102,3.3102,3.3102,3.3102,3.3102,3.3102,3.3102,3.3102,3.3102,3.3102,3.3102,3.3102,3.3102,3.3102,3.3102,3.3304,3.367,3.4304,3.5013,3.6219,3.7405,3.8111,3.8764,3.9141,3.9406,3.9406,3.9406,3.9406,3.9406,3.9406,1.2455,1.4613,1.4605,1.5021,1.5754,1.5801,1.5801,1.5944,1.6692,1.7037,1.7201,1.7902,1.9123,2.0206,2.0778,2.1337,2.2381,2.247,2.247,2.2394,2.1943,2.2315,2.2709,2.2775,2.2721,2.2906,2.3101,2.3101,2.3157,2.4232,2.5062,2.5839,2.6799,2.7947,2.889,2.9424,2.9779,2.9949,3.0394,3.0929,3.1488,3.205,3.2845,3.3624,3.3751,3.3977,3.4911,3.4907,3.4337,3.4684,3.4733,3.4588,3.3755,3.3556,3.3797,3.3283,3.3124,3.3124,3.3124,3.3102,3.3154,3.3176,3.3102,3.3102,3.3102,3.3102,3.3102,3.3102,3.3102,3.3102,3.3102,3.3102,3.3102,3.3102,3.3102,3.3102,3.3102,3.3102,3.3102,3.3102,3.3102,3.3102,3.3102,3.3102,3.3102,3.3102,3.3102,3.3102,3.3102,3.3102,3.3102,3.3102,3.3102,3.3102,3.3102,3.3102,3.3102,3.3102,3.3124,3.3124,3.3776,3.4241,3.489,3.5608,3.6769,3.7776,3.8364,3.8907,3.9247,3.9406,3.9406,3.9406,3.9406,3.9406,3.9406,1.3526,1.5607,1.5761,1.5635,1.573,1.573,1.5801,1.5801,1.5832,1.5872,1.592,1.6055,1.7413,1.9154,1.9443,2.0116,2.1047,2.1226,2.1413,2.1226,2.0899,2.1676,2.2249,2.2262,2.2558,2.2906,2.3101,2.3113,2.3222,2.3898,2.4988,2.5808,2.6109,2.6933,2.7775,2.8799,2.9466,3.0002,3.0229,3.0845,3.1505,3.211,3.2705,3.3193,3.3319,3.3652,3.4105,3.3862,3.3899,3.3953,3.3776,3.3398,3.3124,3.3124,3.3102,3.3102,3.3102,3.3102,3.3102,3.3102,3.3102,3.3102,3.3102,3.3102,3.3102,3.3102,3.3102,3.3102,3.3102,3.3102,3.3102,3.3102,3.3102,3.3102,3.3102,3.3102,3.3102,3.3102,3.3102,3.3102,3.3102,3.3102,3.3102,3.3102,3.3102,3.3102,3.3102,3.3102,3.3102,3.3102,3.3102,3.3102,3.3102,3.3102,3.3102,3.3102,3.3102,3.3102,3.3145,3.324,3.3995,3.4733,3.542,3.6219,3.7305,3.8182,3.8782,3.9104,3.9316,3.9406,3.9406,3.9406,3.9406,3.9406,3.9406,1.2206,1.4394,1.4459,1.4442,1.4585,1.5439,1.5801,1.5801,1.5801,1.5801,1.5801,1.5801,1.6826,1.8133,1.8234,1.9024,1.9633,2.0169,2.0711,2.0643,2.0508,2.1721,2.2403,2.2633,2.2818,2.295,2.3101,2.3101,2.3135,2.3637,2.3692,2.4006,2.4988,2.5514,2.6491,2.7666,2.9007,3.0084,3.0302,3.0914,3.1776,3.2466,3.2864,3.304,3.3102,3.3434,3.34,3.3354,3.3441,3.3356,3.3304,3.3102,3.3102,3.3102,3.3102,3.3102,3.3102,3.3102,3.3102,3.3102,3.3102,3.3102,3.3102,3.3102,3.3102,3.3102,3.3102,3.3102,3.3102,3.3102,3.3102,3.3102,3.3102,3.3102,3.3102,3.3102,3.3102,3.3102,3.3102,3.3102,3.3102,3.3102,3.3102,3.3102,3.3102,3.3102,3.3102,3.3102,3.3102,3.3102,3.3102,3.3102,3.3102,3.3102,3.3102,3.3102,3.3102,3.3124,3.3145,3.3283,3.3805,3.463,3.5728,3.6813,3.7814,3.8583,3.921,3.9406,3.9406,3.9406,3.9406,3.9406,3.9406,3.9406,3.9406,1.1274,1.3084,1.371,1.4172,1.4752,1.5462,1.5801,1.5801,1.5801,1.5801,1.5801,1.5801,1.6504,1.7614,1.78,1.8141,1.8726,1.8841,1.936,2.0192,2.0328,2.1409,2.2227,2.2753,2.2655,2.2862,2.3101,2.3101,2.3101,2.3101,2.3178,2.3278,2.392,2.4649,2.5631,2.683,2.8542,2.9902,3.0848,3.124,3.1984,3.2801,3.3014,3.3102,3.3102,3.3102,3.3102,3.3102,3.3102,3.3102,3.3102,3.3102,3.3102,3.3102,3.3102,3.3102,3.3102,3.3102,3.3102,3.3102,3.3102,3.3102,3.3102,3.3102,3.3102,3.3102,3.3102,3.3102,3.3102,3.3102,3.3102,3.3102,3.3102,3.3102,3.3102,3.3102,3.3102,3.3102,3.3102,3.3102,3.3102,3.3102,3.3102,3.3102,3.3102,3.3102,3.3102,3.3102,3.3102,3.3102,3.3102,3.3102,3.3102,3.3102,3.3102,3.3102,3.3102,3.3102,3.3124,3.3313,3.3734,3.454,3.5661,3.6963,3.8275,3.8907,3.9406,3.9406,3.9406,3.9406,3.9406,3.9406,3.9406,3.9406,3.9406,1.0632,1.2067,1.3338,1.4609,1.5706,1.5801,1.5801,1.5801,1.5801,1.5801,1.5801,1.5801,1.6386,1.7131,1.7271,1.7295,1.7684,1.7839,1.8657,1.9511,1.9474,2.0562,2.2107,2.2164,2.2558,2.2906,2.3101,2.3101,2.3101,2.3101,2.3101,2.3101,2.32,2.3951,2.5242,2.5744,2.7321,2.9314,3.0615,3.1401,3.2193,3.2801,3.3102,3.3102,3.3102,3.3102,3.3102,3.3102,3.3102,3.3102,3.3102,3.3102,3.3102,3.3102,3.3102,3.3102,3.3102,3.3102,3.3102,3.3102,3.3102,3.3102,3.3102,3.3102,3.3102,3.3102,3.3102,3.3102,3.3102,3.3102,3.3102,3.3102,3.3102,3.3102,3.3102,3.3102,3.3102,3.3102,3.3102,3.3102,3.3102,3.3102,3.3102,3.3102,3.3102,3.3102,3.3102,3.3102,3.3102,3.3102,3.3102,3.3102,3.3102,3.3102,3.3102,3.3102,3.3102,3.3102,3.3102,3.3283,3.3641,3.454,3.5601,3.7209,3.8819,3.9068,3.9406,3.9406,3.9406,3.9406,3.9406,3.9406,3.9406,3.9406,3.9406,0.9825,1.2023,1.3343,1.4633,1.573,1.5801,1.5801,1.5801,1.5801,1.5801,1.5801,1.5825,1.5944,1.6339,1.6433,1.6433,1.6527,1.7194,1.8388,1.9382,1.9557,2.0314,2.2599,2.224,2.2602,2.296,2.3101,2.3101,2.3101,2.3101,2.3101,2.3101,2.3123,2.3724,2.4474,2.493,2.6661,2.8732,2.9924,3.1336,3.2495,3.2862,3.3102,3.3102,3.3102,3.3102,3.3102,3.3102,3.3102,3.3102,3.3102,3.3102,3.3102,3.3102,3.3102,3.3102,3.3102,3.3102,3.3102,3.3102,3.3047,3.3047,3.3047,3.3102,3.3102,3.3102,3.3102,3.3102,3.3102,3.3102,3.3102,3.3102,3.3102,3.3102,3.3102,3.3102,3.3102,3.3102,3.3102,3.3102,3.3102,3.3102,3.3102,3.3102,3.3102,3.3102,3.3102,3.3102,3.3102,3.3102,3.3102,3.3102,3.3102,3.3102,3.3102,3.3102,3.3102,3.3102,3.3102,3.3304,3.3577,3.4794,3.6107,3.7904,3.9283,3.9388,3.9406,3.9406,3.9406,3.9406,3.9406,3.9406,3.9406,3.9406,3.9406,0.9727,1.1263,1.3127,1.4627,1.5659,1.5801,1.5801,1.5801,1.5801,1.5801,1.5801,1.5801,1.5801,1.5801,1.5801,1.5801,1.592,1.648,1.7474,1.8634,1.9588,2.011,2.1065,2.1743,2.1832,2.2107,2.2862,2.3101,2.3101,2.3101,2.3101,2.3101,2.3123,2.343,2.3983,2.5267,2.6482,2.8253,2.9379,3.0682,3.2239,3.2677,3.3059,3.3102,3.3102,3.3102,3.3102,3.3102,3.3102,3.3102,3.3102,3.3102,3.3102,3.3102,3.3102,3.3102,3.3102,3.3102,3.3102,3.3004,3.284,3.2677,3.2948,3.3004,3.2339,3.236,3.3081,3.3102,3.3102,3.3102,3.3102,3.3102,3.3102,3.3102,3.3102,3.3102,3.3102,3.3102,3.3102,3.3102,3.3102,3.3102,3.3102,3.3102,3.3102,3.3102,3.3102,3.3102,3.3102,3.3102,3.3102,3.3102,3.3102,3.3102,3.3102,3.3102,3.3102,3.3102,3.3102,3.3598,3.4108,3.5305,3.6682,3.8148,3.9141,3.9388,3.9406,3.9406,3.9406,3.9406,3.9406,3.9406,3.9406,3.9406,3.9406,1.0215,1.0823,1.3151,1.4782,1.5706,1.5801,1.5801,1.5801,1.5801,1.5801,1.5801,1.5801,1.5801,1.5801,1.5801,1.5801,1.6015,1.652,1.7131,1.7661,1.8187,1.9299,1.9838,2.0019,2.1011,2.1921,2.2687,2.2982,2.3101,2.3101,2.3101,2.3101,2.3376,2.3779,2.4973,2.5875,2.6689,2.7974,2.9038,2.9784,3.0978,3.2161,3.2547,3.2776,3.3038,3.3081,3.3102,3.3102,3.3102,3.3102,3.3081,3.2853,3.2862,3.2862,3.2776,3.2776,3.2982,3.3025,3.3059,3.2763,3.2326,3.2096,3.2599,3.2491,3.1799,3.1943,3.2655,3.2819,3.2819,3.2797,3.2797,3.2874,3.2862,3.3102,3.3102,3.3102,3.3102,3.3102,3.3102,3.3102,3.3102,3.3102,3.3102,3.3102,3.3102,3.3102,3.3102,3.3102,3.3102,3.3102,3.3102,3.3102,3.3102,3.3102,3.3102,3.3102,3.3102,3.3102,3.3197,3.3869,3.4609,3.5634,3.6741,3.7984,3.88,3.9265,3.9406,3.9406,3.9406,3.9406,3.9406,3.9406,3.9406,3.9406,3.9406,1.1238,1.3271,1.483,1.5588,1.5801,1.5801,1.5801,1.5801,1.5801,1.5801,1.5801,1.5801,1.5801,1.5801,1.5801,1.5825,1.5944,1.6497,1.7147,1.7731,1.8064,1.8879,1.9488,1.9807,2.1467,2.2328,2.2796,2.3025,2.3101,2.3101,2.3101,2.3101,2.312,2.3499,2.4001,2.4856,2.5663,2.6984,2.7925,2.8564,2.9795,3.0799,3.1412,3.1921,3.2568,3.2896,3.3102,3.3102,3.3102,3.3102,3.3004,3.2525,3.2426,3.2491,3.237,3.2305,3.2534,3.2698,3.2612,3.2118,3.1567,3.1689,3.2008,3.1899,3.1456,3.1368,3.1777,3.1733,3.1733,3.1689,3.1711,3.1943,3.2052,3.2797,3.3102,3.3102,3.3102,3.3102,3.3102,3.3102,3.3102,3.3102,3.3102,3.3102,3.3102,3.3102,3.3102,3.3102,3.3102,3.3102,3.3102,3.3102,3.3102,3.3102,3.3102,3.3102,3.3102,3.3102,3.3356,3.4066,3.4863,3.5774,3.6916,3.8331,3.8925,3.9334,3.9406,3.9406,3.9406,3.9406,3.9406,3.9406,3.9406,3.9406,3.9406]},{"header":{"parameterUnit":"m.s-1","parameterCategory":1,"la1":31.0,"la2":29.5877,"lo1":-88.7671,"lo2":-86.6584,"dy":0.0162,"dx":0.0185,"nx":115,"ny":88,"refTime":"2023-05-22T12:00:00:Z","depth":0,"parameterNumber":3,"parameterNumberName":"V-component_of_WINDS"},"data":[0.0,0.0,0.0,0.0,0.0,0.0,0.0,0.0,0.0,0.0,0.0,0.0,0.0,0.0,0.0,0.0,0.0,0.0,0.0,0.0,0.0,0.0,0.0,0.0,0.0,0.0,0.0,0.0,0.0,0.0,0.0,0.0,0.0,0.0,0.0,0.0,0.0,0.0,0.0,0.0,0.0,0.0,0.0,0.0,0.0,0.0,0.0,0.0,0.0,0.0,0.0,0.0,0.0,0.0,0.0,0.0,0.0,0.0,0.0,0.0,0.0,0.0,0.0,0.0,0.0,0.0,0.0,0.0,0.0,0.0,0.0,0.0,0.0,0.0,0.0,0.0,0.0,0.0,0.0,0.0,0.0,0.0,0.0,0.0,0.0,0.0,0.0,0.0,0.0,0.0,0.0,0.0,0.0,0.0,0.0,0.0,0.0,0.0,0.0,0.0,0.0,0.0,0.0,0.0,0.0,0.0,0.0,0.0,0.0,0.0,0.0,0.0,0.0,0.0,0.0,0.0,0.0,0.0,0.0,0.0,0.0,0.0,0.0,0.0,0.0,0.0,0.0,0.0,0.0,0.0,0.0,0.0,0.0,0.0,0.0,0.0,0.0,0.0,0.0,0.0,0.0,0.0,0.0,0.0,0.0,0.0,0.0,0.0,0.0,0.0,0.0,0.0,0.0,0.0,0.0,0.0,0.0,0.0,0.0,0.0,0.0,0.0,0.0,0.0,0.0,0.0,0.0,0.0,0.0,0.0,0.0,0.0,0.0,0.0,0.0,0.0,0.0,0.0,0.0,0.0,0.0,0.0,0.0,0.0,0.0,0.0,0.0,0.0,0.0,0.0,0.0,0.0,0.0,0.0,0.0,0.0,0.0,0.0,0.0,0.0,0.0,0.0,0.0,0.0,0.0,0.0,0.0,0.0,0.0,0.0,0.0,0.0,0.0,0.0,0.0,0.0,0.0,0.0,0.0,0.0,0.0,0.0,0.0,0.0,0.0,0.0,0.0,0.0,0.0,0.0,0.0,0.0,0.0,0.0,0.0,0.0,0.0,0.0,0.0,0.0,0.0,0.0,0.0,0.0,0.0,0.0,0.0,0.0,0.0,0.0,0.0,0.0,0.0,0.0,0.0,0.0,0.0,0.0,0.0,0.0,0.0,0.0,0.0,0.0,0.0,0.0,0.0,0.0,0.0,0.0,0.0,0.0,0.0,0.0,0.0,0.0,0.0,0.0,0.0,0.0,0.0,0.0,0.0,0.0,0.0,0.0,0.0,0.0,0.0,0.0,0.0,0.0,0.0,0.0,0.0,0.0,0.0,0.0,0.0,0.0,0.0,0.0,0.0,0.0,0.0,0.0,0.0,0.0,0.0,0.0,0.0,0.0,0.0,0.0,0.0,0.0,0.0,0.0,0.0,0.0,0.0,0.0,0.0,0.0,0.0,0.0,0.0,0.0,0.0,0.0,0.0,0.0,0.0,0.0,0.0,0.0,0.0,0.0,0.0,0.0,0.0,0.0,0.0,0.0,0.0,0.0,0.0,0.0,0.0,0.0,0.0,0.0,0.0,0.0,0.0,0.0,0.0,0.0,0.0,0.0,0.0,0.0,0.0,0.0,0.0,0.0,0.0,0.0,0.0,0.0,0.0,0.0,0.0,0.0,0.0,0.0,0.0,0.0,0.0,0.0,0.0,0.0,0.0,0.0,0.0,0.0,0.0,0.0,0.0,0.0,0.0,0.0,0.0,0.0,0.0,0.0,0.0,0.0,0.0,0.0,0.0,0.0,0.0,0.0,0.0,0.0,0.0,0.0,0.0,0.0,0.0,0.0,0.0,0.0,0.0,0.0,0.0,0.0,0.0,0.0,0.0,0.0,0.0,0.0,0.0,0.0,0.0,0.0,0.0,0.0,0.0,0.0,0.0,0.0,0.0,0.0,0.0,0.0,0.0,0.0,0.0,0.0,0.0,0.0,0.0,0.0,0.0,0.0,0.0,0.0,0.0,0.0,0.0,0.0,0.0,0.0,0.0,0.0,0.0,0.0,0.0,0.0,0.0,0.0,0.0,0.0,0.0,0.0,0.0,0.0,0.0,0.0,0.0,0.0,0.0,0.0,0.0,0.0,0.0,0.0,0.0,0.0,0.0,0.0,0.0,0.0,0.0,0.0,0.0,0.0,0.0,0.0,0.0,0.0,0.0,0.0,0.0,0.0,0.0,0.0,0.0,0.0,0.0,0.0,0.0,0.0,0.0,0.0,0.0,0.0,0.0,0.0,0.0,0.0,0.0,0.0,0.0,0.0,0.0,0.0,0.0,0.0,0.0,0.0,0.0,0.0,0.0,0.0,0.0,0.0,0.0,0.0,0.0,0.0,0.0,0.0,0.0,0.0,0.0,0.0,0.0,0.0,0.0,0.0,0.0,0.0,0.0,0.0,0.0,0.0,0.0,0.0,0.0,0.0,0.0,0.0,0.0,0.0,0.0,0.0,0.0,0.0,0.0,0.0,0.0,0.0,0.0,0.0,0.0,0.0,0.0,0.0,0.0,0.0,0.0,0.0,0.0,0.0,0.0,0.0,0.0,0.0,0.0,0.0,0.0,0.0,0.0,0.0,0.0,0.0,0.0,0.0,0.0,0.0,0.0,0.0,0.0,0.0,0.0,0.0,0.0,0.0,0.0,0.0,0.0,0.0,0.0,0.0,0.0,0.0,0.0,0.0,0.0,0.0,0.0,0.0,0.0,0.0,0.0,0.0,0.0,0.0,0.0,0.0,0.0,0.0,0.0,0.0,0.0,0.0,0.0,0.0,0.0,0.0,0.0,0.0,0.0,0.0,0.0,0.0,0.0,0.0,0.0,0.0,0.0,0.0,0.0,0.0,0.0,0.0,0.0,0.0,0.0,0.0,0.0,0.0,0.0,0.0,0.0,0.0,0.0,0.0,0.0,0.0,0.0,0.0,0.0,0.0,0.0,0.0,0.0,0.0,0.0,0.0,0.0,0.0,0.0,0.0,0.0,0.0,0.0,0.0,0.0,0.0,0.0,0.0,0.0,0.0,0.0,0.0,0.0,0.0,0.0,0.0,0.0,0.0,0.0,0.0,0.0,0.0,0.0,0.0,0.0,0.0,0.0,0.0,0.0,0.0,0.0,0.0,0.0,0.0,0.0,0.0,0.0,0.0,0.0,0.0,0.0,0.0,0.0,0.0,0.0,0.0,0.0,0.0,0.0,0.0,0.0,0.0,0.0,0.0,0.0,0.0,0.0,0.0,0.0,0.0,0.0,0.0,0.0,0.0,0.0,0.0,0.0,0.0,0.0,0.0,0.0,0.0,0.0,0.0,0.0,0.0,0.0,0.0,0.0,0.0,0.0,0.0,0.0,0.0,0.0,0.0,0.0,0.0,0.0,0.0,0.0,0.0,0.0,0.0,0.0,0.0,0.0,0.0,0.0,0.0,0.0,0.0,0.0,0.0,0.0,0.0,0.0,0.0,0.0,0.0,0.0,0.0,0.0,0.0,0.0,0.0,0.0,0.0,0.0,0.0,0.0,0.0,0.0,0.0,0.0,0.0,0.0,0.0,0.0,0.0,0.0,0.0,0.0,0.0,0.0,0.0,0.0,0.0,0.0,0.0,0.0,0.0,0.0,0.0,0.0,0.0,0.0,0.0,0.0,0.0,0.0,0.0,0.0,0.0,0.0,0.0,0.0,0.0,0.0,0.0,0.0,0.0,0.0,0.0,0.0,0.0,0.0,0.0,0.0,0.0,0.0,0.0,0.0,0.0,0.0,0.0,0.0,0.0,0.0,0.0,0.0,0.0,0.0,0.0,0.0,0.0,0.0,0.0,0.0,0.0,0.0,0.0,0.0,0.0,0.0,0.0,0.0,0.0,0.0,0.0,0.0,0.0,0.0,0.0,0.0,0.0,0.0,0.0,0.0,0.0,0.0,0.0,0.0,0.0,0.0,0.0,0.0,0.0,0.0,0.0,0.0,0.0,0.0,0.0,0.0,0.0,0.0,0.0,0.0,0.0,0.0,0.0,0.0,0.0,0.0,0.0,0.0,0.0,0.0,0.0,0.0,0.0,0.0,0.0,0.0,0.0,0.0,0.0,0.0,0.0,0.0,0.0,0.0,0.0,0.0,0.0,0.0,0.0,0.0,0.0,0.0,0.0,0.0,0.0,0.0,0.0,0.0,0.0,0.0,0.0,0.0,0.0,0.0,0.0,0.0,0.0,0.0,0.0,0.0,0.0,0.0,0.0,0.0,0.0,0.0,0.0,0.0,0.0,1.0539,0.0,0.0,0.0,0.0,0.0,0.0,0.0,0.0,0.0,0.0,0.0,0.0,0.0,0.0,0.0,0.0,0.0,0.0,0.0,0.0,0.0,0.0,0.0,0.0,0.0,0.0,0.0,0.0,0.0,0.0,0.0,0.0,0.0,0.0,0.0,0.0,0.0,0.0,0.0,0.0,0.0,0.0,0.0,0.0,0.0,0.0,0.0,0.0,0.0,0.0,0.0,0.0,0.0,0.0,0.0,0.0,0.0,0.0,0.0,0.0,0.0,0.0,0.0,0.0,0.0,0.0,0.0,0.0,0.0,0.0,0.0,0.0,0.0,0.0,0.0,0.0,0.0,0.0,0.0,0.0,0.0,0.0,0.0,0.0,0.0,0.0,0.0,0.0,0.0,0.0,0.0,0.0,0.0,0.0,0.0,0.0,0.0,0.0,0.0,0.0,0.0,0.0,0.0,0.0,0.0,0.0,0.0,0.0,0.0,0.0,0.6949,0.7496,0.835,0.9354,1.0527,0.0,0.0,0.0,0.0,0.0,0.0,0.0,0.0,0.0,0.0,0.0,0.0,0.0,0.0,0.0,0.0,0.0,0.0,0.0,0.0,0.0,0.0,0.0,0.0,0.0,0.0,0.0,0.0,0.0,0.0,0.0,0.0,0.0,0.0,0.0,0.0,0.0,0.0,0.0,0.0,0.0,0.0,0.0,0.0,0.0,0.0,0.0,0.0,0.0,0.0,0.0,0.0,0.0,0.0,0.0,0.0,0.0,0.0,0.0,0.0,0.0,0.0,0.0,0.0,0.0,0.0,0.0,0.0,0.0,0.0,0.0,0.0,0.0,0.0,0.0,0.0,0.0,0.0,0.0,0.0,0.0,0.0,0.0,0.0,0.0,0.0,0.0,0.0,0.0,0.0,0.0,0.0,0.0,0.0,0.0,0.0,0.0,0.0,0.0,0.0,0.0,0.0,0.0,0.0,0.0,0.0,0.0,0.0,0.0,0.0,0.0,0.0,0.8257,0.9378,1.0523,0.0,0.0,0.0,0.0,0.0,0.0,0.0,0.0,0.0,0.0,0.0,0.0,0.0,0.0,0.0,0.0,0.0,0.0,0.0,0.0,0.0,0.0,0.0,0.0,0.0,0.0,0.0,0.0,0.0,0.0,0.0,0.0,0.0,0.0,0.0,0.0,0.0,0.0,0.0,0.0,0.0,0.0,0.0,0.0,0.0,0.0,0.0,0.0,0.0,0.0,0.0,0.0,0.0,0.0,0.0,0.0,0.0,0.0,0.0,0.0,0.0,0.0,0.0,0.0,0.0,0.0,0.0,0.0,0.0,0.0,0.0,0.0,0.0,0.0,0.0,0.0,0.0,0.0,0.0,0.0,0.0,0.0,0.0,0.0,0.0,0.0,0.0,0.0,0.0,0.0,0.0,0.0,0.0,0.0,0.0,0.0,0.0,0.0,0.0,0.0,0.0,0.0,0.0,0.0,0.0,0.0,0.0,0.0,0.0,0.0,0.7259,0.7645,0.8398,0.0,1.0495,0.0,0.0,0.0,0.0,0.0,0.0,0.0,0.0,0.0,0.0,0.0,0.0,0.0,0.0,0.0,0.0,0.0,0.0,0.0,0.0,0.0,0.0,0.0,0.0,0.0,0.0,0.0,0.0,0.0,0.0,0.0,0.0,0.0,0.0,0.0,0.0,0.0,0.0,0.0,0.0,0.0,0.0,0.0,0.0,0.0,0.0,0.0,0.0,0.0,0.0,0.0,0.0,0.0,0.0,0.0,0.0,0.0,0.0,0.0,0.0,0.0,0.0,0.0,0.0,0.0,0.0,0.0,0.0,0.0,0.0,0.0,0.0,0.0,0.0,0.0,0.0,0.0,0.0,0.0,0.0,0.0,0.0,0.0,0.0,0.0,0.0,0.0,0.0,0.0,0.0,0.0,0.0,0.0,0.0,0.0,0.0,0.0,0.0,0.0,0.0,0.0,0.0,0.0,0.0,0.0,0.0,0.0,0.0,0.0,0.0,0.6927,0.8191,0.9029,0.9917,0.0,0.0,0.0,0.0,0.0,0.0,0.0,0.0,0.0,0.0,0.0,0.0,0.0,0.0,0.0,0.0,0.0,0.0,0.0,0.0,0.0,0.0,0.0,0.0,0.0,0.0,0.0,0.0,0.0,0.0,0.0,0.0,0.0,0.0,0.0,0.0,0.0,0.0,0.0,0.0,0.0,0.0,0.0,0.0,0.0,0.0,0.0,0.0,0.0,0.0,0.0,0.0,0.0,0.0,0.0,0.0,0.0,0.0,0.0,0.0,0.0,0.0,0.0,0.0,0.0,0.0,0.0,0.0,0.0,0.0,0.0,0.0,0.0,0.0,0.0,0.0,0.0,0.0,0.0,0.0,0.0,0.0,0.0,0.0,0.0,0.0,0.0,0.0,0.0,0.0,0.0,0.0,0.0,0.0,0.0,0.0,0.0,0.0,0.0,0.0,0.0,0.0,0.0,0.0,0.0,0.0,0.0,0.0,0.0,0.0,0.6604,0.7041,0.8586,0.9558,1.0267,1.0765,0.0,0.0,0.0,0.0,0.0,0.0,0.0,0.0,0.0,0.0,0.0,0.0,0.0,0.0,0.0,0.0,0.0,0.0,0.0,0.0,0.0,0.0,0.0,0.0,0.0,0.0,0.0,0.0,0.0,0.0,0.0,0.0,0.0,0.0,0.0,0.0,0.0,0.0,0.0,0.0,0.0,0.0,0.0,0.0,0.0,0.0,0.0,0.0,0.0,0.0,0.0,0.0,0.0,0.0,0.0,0.0,0.0,0.0,0.0,0.0,0.0,0.0,0.0,0.0,0.0,0.0,0.0,0.0,0.0,0.0,0.0,0.0,0.0,0.0,0.0,0.0,0.0,0.0,0.0,0.0,0.0,0.0,0.0,0.0,0.0,0.0,0.0,0.0,0.0,0.0,0.0,0.0,0.0,0.0,0.0,0.0,0.0,0.0,0.0,0.0,0.0,0.0,0.0,0.0,0.0,0.0,0.0,0.0,0.7091,0.7303,0.786,0.8764,0.9802,1.0266,0.0,0.0,0.0,0.0,0.0,0.0,0.0,0.0,0.0,0.0,0.0,0.0,0.0,0.0,0.0,0.0,0.0,0.0,0.0,0.0,0.0,0.0,0.0,0.0,0.0,0.0,0.0,0.0,0.0,0.0,0.0,0.0,0.0,0.0,0.0,0.0,0.0,0.0,0.0,0.0,0.0,0.0,0.0,0.0,0.0,0.0,0.0,0.0,0.0,0.0,0.0,0.0,0.0,0.0,0.0,0.0,0.0,0.0,0.0,0.0,0.0,0.0,0.0,0.0,0.0,0.0,0.0,0.0,0.0,0.0,0.0,0.0,0.0,0.0,0.0,0.0,0.0,0.0,0.0,0.0,0.0,0.0,0.0,0.0,0.0,0.0,0.0,0.0,0.0,0.0,0.0,0.0,0.0,0.0,0.0,0.0,0.0,0.0,0.0,0.0,0.0,0.0,0.0,0.0,0.0,0.0,0.0,0.0,0.0,0.7482,0.7647,0.7928,0.8477,0.9266,1.0232,0.0,0.0,0.0,0.0,0.0,0.0,0.0,0.0,0.0,0.0,0.0,0.0,0.0,0.0,0.0,0.0,0.0,0.0,0.0,0.0,0.0,0.0,0.0,0.0,0.0,0.0,0.0,0.0,0.0,0.0,0.0,0.0,0.0,0.0,0.0,0.0,0.0,0.0,0.0,0.0,0.0,0.0,0.0,0.0,0.0,0.0,0.0,0.0,0.0,0.0,0.0,0.0,0.0,0.0,0.0,0.0,0.0,0.0,0.0,0.0,0.0,0.0,0.0,0.0,0.0,0.0,0.0,0.0,0.0,0.0,0.0,0.0,0.0,0.0,0.0,0.0,0.0,0.0,0.0,0.0,0.0,0.0,0.0,0.0,0.0,0.0,0.0,0.0,0.0,0.0,0.0,0.0,0.0,0.0,0.0,0.0,0.0,0.0,0.0,0.0,0.0,0.0,0.0,0.0,0.0,0.0,0.0,0.0,0.0,0.7265,0.0,0.7564,0.8125,0.8585,0.9774,0.0,0.0,0.0,0.0,0.0,0.0,0.0,0.0,0.0,0.0,0.0,0.0,0.0,0.0,0.0,0.0,0.0,0.0,0.0,0.0,0.0,0.0,0.0,0.0,0.0,0.0,0.0,0.0,0.0,0.0,0.0,0.0,0.0,0.0,0.0,0.0,0.0,0.0,0.0,0.0,0.0,0.0,0.0,0.0,0.0,0.0,0.0,0.0,0.0,0.0,0.0,0.0,0.0,0.0,0.0,0.0,0.0,0.0,0.0,0.0,0.0,0.0,0.0,0.0,0.0,0.0,0.0,0.0,0.0,0.0,0.0,0.0,0.0,0.0,0.0,0.0,0.0,0.0,0.0,0.0,0.0,0.0,0.0,0.0,0.0,0.0,0.0,0.0,0.0,0.0,0.0,0.0,0.0,0.0,0.0,0.0,0.0,0.0,0.0,0.0,0.0,0.0,0.0,0.0,0.0,0.0,0.0,0.0,0.6296,0.6296,0.6315,0.6834,0.7783,0.784,0.878,0.0,0.0,0.0,0.0,0.0,0.0,0.0,0.0,0.0,0.0,0.0,0.0,0.0,0.0,0.0,0.0,0.0,0.0,0.0,0.0,0.0,0.0,0.0,0.0,0.0,0.0,0.0,0.0,0.0,0.0,0.0,0.0,0.0,0.0,0.0,0.0,0.0,0.0,0.0,0.0,0.0,0.0,0.0,0.0,0.0,0.0,0.0,0.0,0.0,0.0,0.0,0.0,0.0,0.0,0.0,0.0,0.0,0.0,0.0,0.0,0.0,0.0,0.0,0.0,0.0,0.0,0.0,0.0,0.0,0.0,0.0,0.0,0.0,0.0,0.0,0.0,0.0,0.0,0.0,0.0,0.0,0.0,0.0,0.0,0.0,0.0,0.0,0.0,0.0,0.0,0.0,0.0,0.0,0.0,0.0,0.0,0.0,0.0,0.0,0.0,0.0,0.0,0.0,0.0,0.0,0.0,0.0,0.0,0.0,0.628,0.628,0.6876,0.8068,0.7918,0.9064,0.0,0.0,0.0,0.0,0.0,0.0,0.0,0.0,0.0,0.0,0.0,0.0,0.0,0.0,0.0,0.0,0.0,0.0,0.0,0.0,0.0,0.0,0.0,0.0,0.0,0.0,0.0,0.0,0.0,0.0,0.0,0.0,0.0,0.0,0.0,0.0,0.0,0.0,0.0,0.0,0.0,0.0,0.0,0.0,0.0,0.0,0.0,0.0,0.0,0.0,0.0,0.0,0.0,0.0,0.0,0.0,0.0,0.0,0.0,0.0,0.0,0.0,0.0,0.0,0.0,0.0,0.0,0.0,0.0,0.0,0.0,0.0,0.0,0.0,0.0,0.0,0.0,0.0,0.0,0.0,0.0,0.0,0.0,0.0,0.0,0.0,0.0,0.0,0.0,0.0,0.0,0.0,0.0,0.0,0.0,0.0,0.0,0.0,0.0,0.0,0.0,0.0,0.0,0.0,0.0,0.0,0.0,0.0,0.0,0.628,0.628,0.695,0.8273,0.7613,0.8362,1.0676,0.0,0.0,0.0,0.0,0.0,0.0,0.0,0.0,0.0,0.0,0.0,0.0,0.0,0.0,0.0,0.0,0.0,0.0,0.0,0.0,0.0,0.0,0.0,0.0,0.0,0.0,0.0,0.0,0.0,0.0,0.0,0.0,0.0,0.0,0.0,0.0,0.0,0.0,0.0,0.0,0.0,0.0,0.0,0.0,0.0,0.0,0.0,0.0,0.0,0.0,0.0,0.0,0.0,0.0,0.0,0.0,0.0,0.0,0.0,0.0,0.0,0.0,0.0,0.0,0.0,0.0,0.0,0.0,0.0,0.0,0.0,0.0,0.0,0.0,0.0,0.0,0.0,0.0,0.0,0.0,0.0,0.0,0.0,0.0,0.0,0.0,0.0,0.0,0.0,0.0,0.0,0.0,0.0,0.0,0.0,0.0,0.0,0.0,0.0,0.0,0.0,0.0,0.0,0.0,0.0,0.0,0.0,0.0,0.628,0.628,0.693,0.8202,0.7007,0.6942,0.0,0.0,0.0,0.0,0.0,0.0,0.0,0.0,0.0,0.0,0.0,0.0,0.0,0.0,0.0,0.0,0.0,0.0,0.0,0.0,0.0,0.0,0.0,0.0,0.0,0.0,0.0,0.0,0.0,0.0,0.0,0.0,0.0,0.0,0.0,0.0,0.0,0.0,0.0,0.0,0.0,0.0,0.0,0.0,0.0,0.0,0.0,0.0,0.0,0.0,0.0,0.0,0.0,0.0,0.0,0.0,0.0,0.0,0.0,0.0,0.0,0.0,0.0,0.0,0.0,0.0,0.0,0.0,0.0,0.0,0.0,0.0,0.0,0.0,0.0,0.0,0.0,0.0,0.0,0.0,0.0,0.0,0.0,0.0,0.0,0.0,0.0,0.0,0.0,0.0,0.0,0.0,0.0,0.0,0.0,0.0,0.0,0.0,0.0,0.0,0.0,0.0,0.0,0.0,0.0,0.0,0.0,0.0,0.0,0.628,0.628,0.683,0.7861,0.6865,0.7165,0.0,0.0,0.0,0.0,0.0,0.0,0.0,0.0,0.0,0.0,0.0,0.0,0.0,0.0,0.0,0.0,0.0,0.0,0.0,0.0,0.0,0.0,0.0,0.0,0.0,0.0,0.0,0.0,0.0,0.0,0.0,0.0,0.0,0.0,0.0,0.0,0.0,0.0,0.0,0.0,0.0,0.0,0.0,0.0,0.0,0.0,0.0,0.0,0.0,0.0,0.0,0.0,0.0,0.0,0.0,0.0,0.0,0.0,0.0,0.0,0.0,0.0,0.0,0.0,0.0,0.0,0.0,0.0,0.0,0.0,0.0,0.0,0.0,0.0,0.0,0.0,0.0,0.0,0.0,0.0,0.0,0.0,0.0,0.0,0.0,0.0,0.0,0.0,0.0,0.0,0.0,0.0,0.0,0.0,0.0,0.0,0.0,0.0,0.0,0.0,0.0,0.0,0.0,0.0,0.0,0.0,0.0,0.0,0.6278,0.628,0.628,0.6563,0.7153,0.6606,0.6822,0.0,0.0,0.0,0.0,0.0,0.0,0.0,0.0,0.0,0.0,0.0,0.0,0.0,0.0,0.0,0.0,0.0,0.0,0.0,0.0,0.0,0.0,0.0,0.0,0.0,0.0,0.0,0.0,0.0,0.0,0.0,0.0,0.0,0.0,0.0,0.0,0.0,0.0,0.0,0.0,0.0,0.0,0.0,0.0,0.0,0.0,0.0,0.0,0.0,0.0,0.0,0.0,0.0,0.0,0.0,0.0,0.0,0.0,0.0,0.0,0.0,0.0,0.0,0.0,0.0,0.0,0.0,0.0,0.0,0.0,0.0,0.0,0.0,0.0,0.0,0.0,0.0,0.0,0.0,0.0,0.0,0.0,0.0,0.0,0.0,0.0,0.0,0.0,0.0,0.0,0.0,0.0,0.0,0.0,0.0,0.0,0.0,0.0,0.0,0.0,0.0,0.0,0.0,0.0,0.0,0.0,0.0,0.0,0.629,0.628,0.628,0.63,0.628,0.628,0.6279,0.0,0.0,0.0,0.0,0.0,0.0,0.0,0.0,0.0,0.0,0.0,0.0,0.0,0.0,0.0,0.0,0.0,0.0,0.0,0.0,0.0,0.0,0.0,0.0,0.0,0.0,0.0,0.0,0.0,0.0,0.0,0.0,0.0,0.0,0.0,0.0,0.0,0.0,0.0,0.0,0.0,0.0,0.0,0.0,0.0,0.0,0.0,0.0,0.0,0.0,0.0,0.0,0.0,0.0,0.0,0.0,0.0,0.0,0.0,0.0,0.0,0.0,0.0,0.0,0.0,0.0,0.0,0.0,0.0,0.0,0.0,0.0,0.0,0.0,0.0,0.0,0.0,0.0,0.0,0.0,0.0,0.0,0.0,0.0,0.0,0.0,0.0,0.0,0.0,0.0,0.0,0.0,0.0,0.0,0.0,0.0,0.0,0.0,0.0,0.0,0.0,0.0,0.0,0.0,0.0,0.0,0.0,0.0,0.629,0.628,0.628,0.628,0.628,0.628,0.6293,0.0,0.0,0.0,0.0,0.0,0.0,0.0,0.0,0.0,0.0,0.0,0.0,0.0,0.0,0.0,0.0,0.0,0.0,0.0,0.0,0.0,0.0,0.0,0.0,0.0,0.0,0.0,0.0,0.0,0.0,0.0,0.0,0.0,0.0,0.0,0.0,0.0,0.0,0.0,0.0,0.0,0.0,0.0,0.0,0.0,0.0,0.0,0.0,2.8249,0.0,0.0,0.0,0.0,0.0,0.0,0.0,0.0,0.0,0.0,0.0,0.0,0.0,0.0,0.0,0.0,0.0,0.0,0.0,0.0,0.0,0.0,0.0,0.0,0.0,0.0,0.0,0.0,0.0,0.0,0.0,0.0,0.0,0.0,0.0,0.0,0.0,0.0,0.0,0.0,0.0,0.0,0.0,0.0,0.0,0.0,0.0,0.0,0.0,0.0,0.0,0.0,0.0,0.0,0.0,0.0,0.0,0.0,0.0,0.6453,0.6484,0.6416,0.6399,0.6399,0.6337,0.628,0.0,0.0,0.0,0.0,0.0,0.0,0.0,0.0,0.0,0.0,0.0,0.0,0.0,0.0,0.0,0.0,0.0,0.0,0.0,0.0,0.0,0.0,0.0,0.0,0.0,0.0,0.0,0.0,0.0,0.0,0.0,0.0,0.0,0.0,0.0,0.0,0.0,0.0,0.0,0.0,0.0,0.0,0.0,0.0,0.0,0.0,0.0,0.0,0.0,0.0,0.0,0.0,0.0,0.0,0.0,0.0,0.0,0.0,0.0,0.0,0.0,0.0,0.0,0.0,0.0,0.0,0.0,0.0,0.0,0.0,0.0,0.0,0.0,0.0,0.0,0.0,0.0,0.0,0.0,0.0,0.0,0.0,0.0,0.0,0.0,0.0,0.0,0.0,0.0,0.0,0.0,0.0,0.0,0.0,0.0,0.0,0.0,0.0,0.0,0.0,0.0,0.0,0.0,0.0,0.0,0.0,0.0,0.6634,0.6637,0.6674,0.658,0.6535,0.6529,0.6392,0.6318,0.635,0.0,0.0,0.0,0.0,0.0,0.0,0.0,0.0,0.0,0.0,0.0,0.0,0.0,0.0,0.0,0.0,0.0,0.0,0.0,0.0,0.0,0.0,0.0,0.0,0.0,0.0,0.0,0.0,0.0,0.0,0.0,0.0,0.0,0.0,0.0,0.0,0.0,0.0,2.5702,2.7007,0.0,0.0,0.0,0.0,0.0,0.0,0.0,0.0,2.9703,0.0,0.0,0.0,0.0,0.0,0.0,0.0,0.0,0.0,0.0,0.0,0.0,0.0,0.0,0.0,0.0,0.0,0.0,0.0,0.0,0.0,0.0,0.0,0.0,0.0,0.0,0.0,0.0,0.0,0.0,0.0,0.0,0.0,0.0,0.0,0.0,0.0,0.0,0.0,0.0,0.0,0.0,0.0,0.0,0.0,0.0,0.0,0.0,0.0,0.0,0.0,0.0,0.0,0.0,0.0,0.0,0.6566,0.6656,0.6653,0.6621,0.665,0.666,0.6667,0.6421,0.6374,0.6577,0.0,0.0,0.0,0.0,0.0,0.0,0.0,0.0,0.0,0.0,0.0,0.0,0.0,0.0,0.0,0.0,0.0,0.0,0.0,0.0,0.0,0.0,0.0,0.0,0.0,0.0,0.0,0.0,0.0,0.0,0.0,0.0,0.0,0.0,0.0,0.0,0.0,0.0,0.0,2.9078,2.9889,0.0,0.0,0.0,0.0,0.0,0.0,0.0,0.0,3.0702,0.0,0.0,0.0,0.0,0.0,0.0,0.0,0.0,0.0,0.0,0.0,0.0,0.0,0.0,0.0,0.0,0.0,0.0,0.0,0.0,0.0,0.0,0.0,0.0,0.0,0.0,0.0,0.0,0.0,0.0,0.0,0.0,0.0,0.0,0.0,0.0,0.0,0.0,0.0,0.0,0.0,0.0,0.0,0.0,0.0,0.0,0.0,0.0,0.0,0.0,0.0,0.0,0.0,0.0,0.0,0.318,0.5488,0.616,0.5093,0.5072,0.5087,0.5122,0.6025,0.6535,0.0,0.0,0.0,0.0,0.0,0.0,0.0,0.0,0.0,0.0,0.0,0.0,0.0,0.0,0.0,0.0,0.0,0.0,0.0,0.0,0.0,0.0,0.0,0.0,0.0,0.0,0.0,0.0,0.0,0.0,0.0,0.0,0.0,0.0,0.0,0.0,0.0,0.0,0.0,0.0,3.0453,3.1395,3.2092,0.0,0.0,0.0,0.0,0.0,0.0,3.1402,3.09,0.0,0.0,0.0,0.0,0.0,0.0,0.0,0.0,0.0,0.0,0.0,0.0,0.0,0.0,0.0,0.0,0.0,0.0,0.0,0.0,0.0,0.0,0.0,0.0,0.0,0.0,0.0,0.0,0.0,0.0,0.0,0.0,0.0,0.0,0.0,0.0,0.0,0.0,0.0,0.0,0.0,0.0,0.0,0.0,0.0,0.0,0.0,0.0,0.0,0.0,0.0,0.0,0.0,0.0,0.0,0.0,0.3524,0.5029,0.4307,0.3367,0.2879,0.2918,0.5023,0.6231,0.0,0.0,0.0,0.0,0.0,0.0,0.0,0.0,0.0,0.0,0.0,0.0,0.0,0.0,0.0,0.0,0.0,0.0,0.0,0.0,0.0,0.0,0.0,0.0,0.0,0.0,0.0,0.0,0.0,0.0,0.0,0.0,0.0,0.0,0.0,0.0,0.0,0.0,0.0,0.0,0.0,3.2641,3.3276,3.3318,0.0,0.0,0.0,0.0,3.3891,3.2378,0.0,0.0,0.0,0.0,0.0,0.0,0.0,0.0,0.0,0.0,0.0,0.0,0.0,0.0,0.0,0.0,0.0,0.0,0.0,0.0,0.0,0.0,0.0,0.0,0.0,0.0,0.0,0.0,0.0,0.0,0.0,0.0,0.0,0.0,0.0,0.0,0.0,0.0,0.0,0.0,0.0,0.0,0.0,0.0,0.0,0.0,0.0,0.0,0.0,0.0,0.0,0.0,0.0,0.0,0.0,0.0,0.0,0.0492,0.2686,0.6285,0.2576,0.0402,0.0445,0.2728,0.4932,0.0,0.0,0.0,0.0,0.0,0.0,0.0,0.0,0.0,0.0,0.0,0.0,0.0,0.0,0.0,0.0,0.0,0.0,0.0,0.0,0.0,0.0,0.0,0.0,0.0,0.0,0.0,0.0,0.0,0.0,0.0,0.0,0.0,0.0,0.0,0.0,0.0,0.0,0.0,0.0,0.0,3.3327,3.4204,3.4094,3.3858,0.0,0.0,3.3876,3.3993,3.3751,0.0,0.0,0.0,0.0,0.0,0.0,0.0,0.0,0.0,0.0,0.0,0.0,0.0,0.0,0.0,0.0,0.0,0.0,0.0,0.0,0.0,0.0,0.0,0.0,0.0,0.0,0.0,0.0,0.0,0.0,0.0,0.0,0.0,0.0,0.0,0.0,0.0,0.0,0.0,0.0,0.0,0.0,0.0,0.0,0.0,0.0,0.0,0.0,0.0,0.0,0.0,0.0,0.0,0.0,0.0,0.0,0.0,0.0,0.101,0.2921,0.1056,0.0,0.0,0.2347,0.4709,0.0,0.0,0.0,0.0,0.0,0.0,0.0,0.0,0.0,0.0,0.0,0.0,0.0,0.0,0.0,0.0,0.0,0.0,0.0,0.0,0.0,0.0,0.0,0.0,0.0,0.0,0.0,0.0,0.0,0.0,0.0,0.0,0.0,0.0,0.0,0.0,0.0,0.0,0.0,0.0,0.0,0.0,3.4928,3.494,0.0,0.0,0.0,3.4856,3.4856,0.0,0.0,0.0,0.0,0.0,0.0,0.0,0.0,0.0,0.0,0.0,0.0,0.0,0.0,0.0,0.0,0.0,0.0,0.0,0.0,0.0,0.0,0.0,0.0,0.0,0.0,0.0,0.0,0.0,0.0,0.0,0.0,0.0,0.0,0.0,0.0,0.0,0.0,0.0,0.0,0.0,0.0,0.0,0.0,0.0,0.0,0.0,0.0,0.0,0.0,0.0,0.0,0.0,0.0,0.0,0.0,0.0,0.0,0.0,0.0,0.0,0.0,0.0,0.0,0.1765,0.0,0.0,0.0,0.0,0.0,0.0,0.0,0.0,0.0,0.0,0.0,0.0,0.0,0.0,0.0,0.0,0.0,0.0,0.0,0.0,0.0,0.0,0.0,0.0,0.0,0.0,0.0,1.2535,0.0,0.0,0.0,0.0,0.0,0.0,0.0,0.0,0.0,0.0,0.0,0.0,0.0,0.0,3.4361,3.5359,3.5489,3.5489,0.0,0.0,3.5489,3.5489,3.4872,3.4279,0.0,0.0,0.0,0.0,0.0,0.0,0.0,0.0,0.0,0.0,0.0,0.0,0.0,0.0,0.0,0.0,0.0,0.0,0.0,0.0,0.0,0.0,0.0,0.0,0.0,0.0,0.0,0.0,0.0,0.0,0.0,0.0,0.0,0.0,0.0,0.0,0.0,0.0,0.0,0.0,0.0,0.0,0.0,0.0,0.0,0.0,0.0,0.0,0.0,0.0,0.0,0.0,0.0,0.0,0.0,0.0,0.0,0.0,0.0,0.0,0.0,0.0,0.0156,0.2436,0.0,0.0,0.0,0.0,0.0,0.0,0.0,0.0,0.0,0.0,0.0,0.0,0.0,0.0,0.0,0.0,0.0,0.0,0.0,0.0,0.0,0.0,0.0,0.0,0.0,0.0,0.0,0.0,0.0,0.0,0.0,0.0,0.0,0.0,0.0,0.0,0.0,0.0,0.0,0.0,0.0,3.4361,3.5359,3.5489,3.5488,0.0,0.0,3.5489,3.5504,3.5439,3.5069,3.416,0.0,0.0,0.0,0.0,0.0,0.0,0.0,0.0,0.0,0.0,0.0,0.0,0.0,0.0,0.0,0.0,0.0,0.0,0.0,0.0,0.0,0.0,0.0,0.0,0.0,0.0,0.0,0.0,0.0,0.0,0.0,0.0,0.0,0.0,0.0,0.0,0.0,0.0,0.0,0.0,0.0,0.0,0.0,0.0,0.0,0.0,0.0,0.0,0.0,0.0,0.0,0.0,0.0,0.2921,0.0,0.0,0.0,0.0,0.0,0.0,0.0,0.143,0.3757,0.0,0.0,0.0,0.0,0.0,0.0,0.0,0.0,0.0,0.0,0.0,0.0,0.0,0.0,0.0,0.0,0.0,0.0,0.0,0.0,0.0,0.0,0.0,0.0,0.0,0.0,0.0,0.0,1.5714,1.7329,1.9475,0.0,0.0,0.0,0.0,0.0,0.0,0.0,0.0,0.0,0.0,3.4361,3.5359,3.5848,0.0,0.0,3.6432,3.6669,3.6671,3.6669,3.6336,3.5328,3.5383,0.0,0.0,0.0,0.0,0.0,0.0,0.0,0.0,0.0,0.0,0.0,0.0,0.0,0.0,0.0,0.0,0.0,0.0,0.0,0.0,0.0,0.0,0.0,0.0,0.0,0.0,0.0,0.0,0.0,0.0,0.0,0.0,0.0,0.0,0.0,0.0,0.0,0.0,0.0,0.0,0.0,0.0,0.0,0.0,0.0,0.0,0.0,0.0,0.0,0.0,0.0,0.0,0.4049,0.2136,0.074,0.0,0.0,0.0,0.0674,0.2091,0.3762,0.5424,0.0,0.0,0.0,0.0,0.0,0.0,0.0,0.0,0.0,0.0,0.0,0.0,0.0,0.0,0.0,0.0,0.0,0.0,0.0,0.0,0.0,0.0,0.0,0.0,0.0,0.0,0.0,0.0,1.5984,1.802,2.0507,0.0,0.0,0.0,0.0,0.0,0.0,0.0,0.0,0.0,0.0,3.5003,3.5707,3.6342,3.6778,3.6778,3.7135,3.7387,3.7387,3.7387,3.7149,3.6456,0.0,0.0,0.0,0.0,0.0,0.0,0.0,0.0,0.0,0.0,0.0,0.0,0.0,0.0,0.0,0.0,0.0,0.0,0.0,0.0,0.0,0.0,0.0,0.0,0.0,0.0,0.0,0.0,0.0,0.0,0.0,0.0,0.0,0.0,0.0,0.0,0.0,0.0,0.0,0.0,0.0,0.0,0.0,0.0,0.0,0.0,0.0,0.0,0.0,0.0,0.0,0.0,0.0,0.2385,0.6687,0.2362,0.0,0.0,0.0,0.2159,0.6549,0.6943,0.7022,0.7087,0.0,0.0,0.0,0.0,0.0,0.0,0.0,0.0,0.0,0.0,0.0,0.0,0.0,0.0,0.0,0.0,0.0,0.0,0.0,0.0,0.0,0.0,0.0,0.0,0.0,0.0,1.3547,1.5848,1.834,0.0,0.0,0.0,0.0,0.0,0.0,0.0,0.0,0.0,0.0,3.5385,3.6445,3.6477,3.7,3.7387,3.7387,3.7419,3.7417,3.7432,3.7417,3.7402,0.0,0.0,0.0,0.0,0.0,0.0,0.0,0.0,0.0,0.0,0.0,0.0,0.0,0.0,0.0,0.0,0.0,0.0,0.0,0.0,0.0,0.0,0.0,0.0,0.0,0.0,0.0,2.3155,2.1615,0.0,0.0,0.0,0.0,0.0,0.0,0.0,0.0,0.0,0.0,0.0,0.7044,0.6288,0.0,0.0,0.0,0.0,0.0,0.0,0.0,0.0,0.0,0.0,0.0,0.0,0.0785,0.2385,0.3935,0.319,0.0,0.0,0.1529,0.4671,0.4777,0.5508,0.7034,0.0,0.0,0.0,0.0,0.0,0.0,0.0,0.0,0.0,0.0,0.0,0.0,0.0,0.0,0.0,0.0,0.0,0.0,0.0,0.0,0.0,0.0,0.0,0.0,0.0,1.1831,0.0,0.0,0.0,0.0,0.0,0.0,0.0,0.0,0.0,0.0,0.0,3.3813,3.4571,3.5714,3.6658,3.7045,3.7644,3.8063,0.0,0.0,0.0,0.0,0.0,0.0,0.0,0.0,0.0,0.0,0.0,0.0,0.0,0.0,3.6092,3.5589,3.5489,3.5429,3.5205,0.0,0.0,0.0,0.0,0.0,0.0,0.0,0.0,0.0,0.0,0.0,0.0,0.0,0.0,0.0,0.0,2.1215,0.0,0.0,0.0,0.0,0.0,0.0,0.0,0.0,0.6938,0.7014,0.711,0.711,0.5475,0.0,0.4805,0.4701,0.0,0.0,0.0,0.0,0.0,0.0,0.0,0.0,0.0,0.0,0.3041,0.3132,0.025,0.1613,0.3217,0.4757,0.4817,0.5544,0.7052,0.7103,0.711,0.0,0.0,0.0,0.0,0.0,0.0,0.0,0.0,0.0,0.0,0.0,0.0,0.0,0.0,0.0,0.0,0.0,0.0,0.0,0.0,0.0,0.0,0.0,1.3524,0.0,0.0,0.0,0.0,0.0,0.0,0.0,0.0,0.0,3.1583,3.323,3.4654,3.5416,3.6465,3.7317,3.7689,0.0,0.0,0.0,0.0,0.0,0.0,0.0,3.9159,3.8457,3.8929,3.901,3.7905,3.773,3.7749,3.7749,0.0,0.0,3.6312,3.5998,3.5833,3.5848,3.5326,3.4997,3.5415,3.5176,3.4982,0.0,0.0,0.0,0.0,0.0,0.0,0.0,0.0,2.6892,2.5192,0.0,2.1624,0.0,0.0,0.0,0.0,0.0,0.0,0.0,0.0,0.711,0.7117,0.7117,0.7121,0.7086,0.6948,0.4741,0.4703,0.6516,0.4681,0.0,0.0,0.0,0.0,0.0,0.0,0.0,0.0,0.0,0.0,0.0,0.4625,0.7076,0.7058,0.7067,0.7059,0.7121,0.7119,0.7107,0.7066,0.2814,0.0,0.0,0.0,0.0,0.0,0.0,0.0,0.0,0.0,0.0,0.0,0.0,0.0,0.0,0.0,0.0,0.0,0.0,0.0,0.0,1.4303,0.0,0.0,0.0,0.0,0.0,0.0,0.0,0.0,0.0,0.0,3.267,3.4072,3.542,3.6419,0.0,0.0,0.0,0.0,3.9391,3.9391,3.9406,3.9406,3.9406,3.9406,3.9406,3.9388,0.0,0.0,3.9373,3.8853,3.8422,3.8422,3.7943,3.7447,3.7462,3.6941,3.6553,3.6507,3.6028,3.5609,3.5579,3.5669,3.5624,3.1093,0.0,0.0,0.0,0.0,2.947,2.9249,2.9265,2.9242,2.7472,2.4583,2.4551,0.0,0.0,0.0,0.0,0.0,0.0,0.7907,0.7117,0.7117,0.7117,0.7117,0.7119,0.7113,0.7009,0.4919,0.3349,0.2462,0.5133,0.5965,0.5011,0.0,0.0,0.0,0.0,0.0,0.0,0.0,0.0,0.0,0.5079,0.7553,0.7112,0.7232,0.7252,0.7102,0.7102,0.7115,0.7084,0.5797,0.0,0.0,0.0,0.0,0.0,0.0,0.0,0.0,0.0,0.0,0.0,0.0,0.0,0.0,0.0,0.0,0.0,0.0,0.0,1.2363,1.6124,1.8535,0.0,0.0,0.0,0.0,0.0,0.0,0.0,0.0,0.0,3.4224,3.5324,3.652,0.0,0.0,3.8589,3.9047,3.9272,3.9406,3.9406,0.0,0.0,0.0,3.9406,3.9406,3.9406,3.9406,3.9406,3.9406,3.9227,3.9107,3.9092,3.8958,3.8823,3.8763,3.7896,3.7195,3.7135,3.6971,3.6864,3.6866,3.6866,3.6851,3.3633,3.338,3.1986,3.1233,3.0988,3.0846,3.0632,3.0358,3.0391,2.8562,2.5503,2.5565,2.3381,1.954,1.7543,0.0,0.0,0.0,0.8237,0.7117,0.7181,0.7234,0.7212,0.7228,0.6667,0.5674,0.4453,0.3683,0.3424,0.4989,0.6329,0.7177,0.0,0.0,0.0,0.0,0.0,0.0,0.0,0.0,0.0,0.4194,0.6735,0.7426,0.7469,0.7404,0.7215,0.7231,0.7188,0.7119,0.7103,0.7321,0.0,0.0,0.0,0.0,0.0,0.0,0.0,0.0,0.0,0.0,0.0,0.9721,0.8895,0.0,0.0,0.0,1.2373,1.3241,1.5454,1.8191,0.0,0.0,0.0,0.0,0.0,0.0,0.0,3.052,3.2773,3.4729,3.6149,3.687,3.7541,3.8305,3.8631,3.8945,3.9346,0.0,3.9406,3.9406,3.9406,3.9406,3.9406,3.9406,3.9406,3.9406,3.9406,3.9406,3.9406,3.9406,3.9406,3.9406,3.9406,3.9406,3.9406,3.8718,3.8075,3.7838,3.7552,3.7387,3.7387,3.7387,3.7387,3.5963,3.6208,3.3771,3.2374,3.1822,3.2365,3.2117,3.135,3.0614,2.8726,2.6092,2.5223,2.3202,2.0253,1.7196,0.0,0.0,0.9564,0.8412,0.7136,0.7322,0.7413,0.7397,0.7403,0.6201,0.3938,0.3518,0.4931,0.7692,0.4925,0.4871,0.7584,0.5194,0.2646,0.0,0.0,0.0,0.0,0.0,0.0,0.0,0.2626,0.5277,0.7916,0.7759,0.7546,0.7423,0.7399,0.7305,0.7122,0.71,0.7668,0.8829,0.0,0.0,0.0,0.0,0.0,0.0,0.0,0.0,0.0,0.0,0.0,0.0,0.0,0.0,0.0,1.7252,0.0,1.9825,2.0208,0.0,0.0,0.0,2.4158,2.7845,2.8956,3.0483,3.3166,0.0,0.0,3.8002,0.0,3.8467,3.8467,3.9002,3.9406,3.9406,3.9406,3.9406,3.9406,3.9406,3.9406,3.9406,3.9406,3.9406,3.9406,3.9406,3.9406,3.9406,3.9406,3.9406,3.9406,3.9406,3.9406,3.9406,3.9346,3.9212,3.8571,3.8018,3.7582,3.7656,3.7656,3.7671,3.6281,3.6274,3.4755,3.3741,3.3104,3.2752,3.1835,3.0599,3.0389,2.8779,2.6217,2.5533,2.2907,1.8878,1.8092,1.5314,1.1121,1.0849,0.956,0.7538,0.7529,0.7503,0.7416,0.7496,0.7233,0.6422,0.2698,0.3323,0.7804,0.7208,0.7189,0.7867,0.7254,0.461,0.0,0.0,0.0,0.0,0.0,0.0,0.0,0.261,0.5301,0.7931,0.7835,0.7692,0.7553,0.7454,0.7376,0.7338,0.7188,0.765,0.8824,0.8128,0.0,0.0,0.0,0.0,0.0,0.0,0.0,0.0,0.0,1.2439,1.098,0.0,1.4587,0.0,1.9552,2.0493,1.943,2.0912,0.0,0.0,2.4346,2.5613,2.8996,2.9195,2.9886,3.2131,3.4075,3.5765,3.7037,3.8345,3.917,3.9185,3.9287,3.9406,3.9406,3.9406,3.9406,3.9406,3.9406,3.9406,3.9406,3.9406,3.9406,3.9406,3.9406,3.9406,3.9406,3.9406,3.9406,3.9406,3.9406,3.9406,3.9406,3.9406,3.9361,3.9197,3.9032,3.8913,3.8928,3.8913,3.8913,3.7403,3.7275,3.6052,3.516,3.4457,3.3431,3.228,3.1074,3.0698,2.9197,2.6894,2.5271,2.2548,1.9195,1.8627,1.581,1.1433,1.1301,0.9973,0.7647,0.7665,0.7627,0.7501,0.6469,0.663,0.7646,0.4899,0.4466,0.6194,0.7428,0.7994,0.7988,0.7987,0.652,0.3643,0.2389,0.1765,0.1768,0.0606,0.058,0.1787,0.3215,0.5279,0.7878,0.7933,0.8212,0.8906,0.8621,0.8509,0.8563,0.8441,0.8621,0.9142,0.9187,0.9839,0.0,0.0,0.0,0.0,0.0,0.0,0.0,0.0,0.0,0.0,0.0,1.7035,1.8327,2.0709,2.1606,2.0205,2.2155,2.4051,2.5323,2.6158,2.754,2.9907,3.0063,3.0927,3.3261,3.4621,3.6065,3.7725,3.8798,3.9406,3.9406,3.9406,3.9406,3.9406,3.9406,3.9406,3.9406,3.9406,3.9406,3.9406,3.9406,3.9406,3.9406,3.9406,3.9406,3.9406,3.9406,3.9406,3.9406,3.9406,3.9406,3.9406,3.9406,3.9406,3.9406,3.9406,3.9406,3.9406,3.9406,3.9406,3.8764,3.8589,3.7182,3.6279,3.5721,3.4243,3.3066,3.206,3.1182,2.9673,2.7668,2.4949,2.2544,2.0403,1.9118,1.6101,1.193,1.152,1.0142,0.7942,0.7852,0.7803,0.7631,0.5284,0.5514,0.7944,0.7655,0.6455,0.4618,0.6881,0.7994,0.7988,0.7984,0.7994,0.7897,0.5677,0.4352,0.3969,0.2045,0.1839,0.3438,0.4143,0.5634,0.7872,0.8151,0.899,1.0495,1.0251,1.0106,1.0202,1.0214,1.012,1.0006,1.1195,1.2034,0.0,1.2565,0.0,0.0,0.0,0.0,0.0,0.0,0.0,0.0,1.9215,1.9808,1.9374,2.1296,2.2349,2.178,2.3589,2.5337,2.6676,2.8064,2.9378,3.0536,3.1173,3.2392,3.4724,3.5275,3.6443,3.8484,3.9177,3.9406,3.9406,3.9406,3.9406,3.9406,3.9406,3.9406,3.9406,3.9406,3.9406,3.9406,3.9406,3.9406,3.9406,3.9406,3.9406,3.9406,3.9406,3.9406,3.9406,3.9406,3.9406,3.9406,3.9406,3.9406,3.9406,3.9406,3.9406,3.9406,3.9406,3.9406,3.9332,3.9119,3.6858,3.611,3.6372,3.4925,3.3487,3.2123,3.1212,2.9517,2.7344,2.5851,2.4187,2.2327,2.0243,1.7675,1.4786,1.2708,1.0979,0.951,0.847,0.7958,0.7804,0.6022,0.6134,0.7779,0.5817,0.5632,0.7254,0.7737,0.799,0.7988,0.7995,0.8005,0.7972,0.0,0.0,0.0,0.5633,0.4618,0.108,0.5033,0.7481,0.8,0.904,0.0,1.0577,1.1072,1.1355,1.1363,1.1274,0.0,0.0,0.0,0.0,0.0,0.0,0.0,0.0,0.0,0.0,0.0,1.6968,1.786,1.8397,2.0561,2.1554,2.0706,2.2047,2.331,2.4062,2.4522,2.5803,2.8134,2.8707,2.9499,3.1043,3.1725,3.2297,3.2746,3.4707,3.6211,3.6868,3.8275,3.9388,3.9406,3.9406,3.9406,3.9406,3.9406,3.9406,3.9406,3.9406,3.9406,3.9406,3.9406,3.9406,3.9406,3.9406,3.9406,3.9406,3.9406,3.9406,3.9406,3.9406,3.9406,3.9406,3.9406,3.9406,3.9406,3.9406,3.9406,3.9406,3.9406,3.9406,4.0486,0.0,3.7699,3.6944,0.0,3.5629,3.4547,3.374,3.2309,3.0189,2.7632,2.6525,2.4912,2.2913,2.1154,1.8654,1.5648,1.4357,1.2404,0.9998,0.9312,0.8641,0.7975,0.7101,0.7128,0.7929,0.6603,0.6673,0.7959,0.7994,0.7987,0.7988,0.7988,0.7995,0.8008,0.7995,0.7332,0.5999,0.7322,0.669,0.4189,0.6598,0.7994,0.8041,0.0,0.0,0.0,0.0,0.0,0.0,0.0,0.0,0.0,0.0,0.0,1.4073,1.4657,1.4488,1.3405,1.5138,1.6751,1.7834,1.9674,2.0661,2.051,2.19,2.2575,2.2047,2.2671,2.3551,2.4691,2.554,2.6815,2.8672,2.9863,3.0885,3.1684,3.229,3.2836,3.3485,3.507,3.6355,3.693,3.8364,3.9319,3.9406,3.9406,3.9406,3.9406,3.9406,3.9406,3.9406,3.9406,3.9406,3.9406,3.9406,3.9406,3.9406,3.9406,3.9406,3.9406,3.9406,3.9406,3.9406,3.9406,3.9406,3.9406,3.9406,3.9406,3.9406,3.9406,3.9406,3.9406,3.9406,3.9406,4.1495,4.0874,3.8842,3.7992,3.7878,3.6352,3.5523,3.5101,0.0,0.0,0.0,2.6953,2.5325,2.3237,2.1909,1.9507,1.6423,1.5913,1.3772,1.0366,1.0096,0.9274,0.8019,0.799,0.7997,0.8007,0.8007,0.8004,0.799,0.799,0.8008,0.7992,0.7988,0.7988,0.7988,0.7988,0.7988,0.7992,0.7994,0.8,0.7998,0.7987,0.7987,0.7992,0.9287,1.0594,1.186,1.3195,1.4382,1.5386,1.5672,1.5665,1.5326,1.5302,1.5267,1.5153,1.514,1.5246,1.5479,1.6793,1.8252,1.9695,2.1832,2.2945,2.2625,2.2918,2.32,2.3387,2.3408,2.3972,2.5391,2.6732,2.8101,2.9337,3.1108,3.2206,3.2365,3.2788,3.3382,3.4345,3.5406,3.6493,3.7329,3.8598,3.9406,3.9406,3.9406,3.9406,3.9406,3.9406,3.9406,3.9406,3.9406,3.9406,3.9406,3.9406,3.9406,3.9406,3.9406,3.9406,3.9406,3.9406,3.9406,3.9406,3.9406,3.9406,3.9406,3.9406,3.9406,3.9406,3.9406,3.9406,3.9406,3.9406,3.9406,4.1757,4.1506,3.955,3.8745,3.8635,3.7098,3.5597,3.4146,3.3066,3.0884,2.8056,2.6964,2.5776,2.4426,2.2271,2.0454,1.8855,1.6687,1.4237,0.0,1.0513,0.9291,0.8017,0.7995,0.7995,0.7998,0.7998,0.7995,0.7995,0.7995,0.7992,0.7988,0.7988,0.7988,0.7988,0.7988,0.7988,0.7988,0.799,0.8,0.7994,0.7994,0.7996,0.8045,0.9338,1.06,1.1844,1.3208,1.3992,1.419,1.5218,1.5775,1.5721,1.5728,1.5708,1.5688,1.5681,1.6144,1.7241,1.8485,2.0146,2.2296,2.2899,2.3071,2.3023,2.3062,2.3507,2.4414,2.4553,2.5624,2.7939,2.8504,2.9472,3.1339,3.1997,3.2382,3.2855,3.3006,3.3167,3.342,3.5034,3.6212,3.6604,3.8148,3.9334,3.9388,3.9406,3.9406,3.9406,3.9406,3.9406,3.9406,3.9406,3.9406,3.9406,3.9406,3.9406,3.9406,3.9406,3.9406,3.9406,3.9406,3.9406,3.9406,3.9406,3.9406,3.9406,3.9406,3.9406,3.9406,3.9406,3.9406,3.9406,3.9406,3.9406,4.181,4.156,3.9707,3.8911,3.8769,3.7246,3.5615,3.3962,3.2996,3.1198,2.8861,2.78,2.6408,2.4766,2.3675,2.2205,2.0387,1.8579,1.6406,1.3909,1.193,1.0337,0.9093,0.8336,0.7988,0.7988,0.7988,0.7988,0.7988,0.7988,0.7988,0.7988,0.7988,0.7988,0.7988,0.7988,0.7988,0.7988,0.7998,0.8005,0.803,0.8719,0.8749,0.8045,1.0622,1.2017,1.1928,1.3855,1.4609,1.3926,1.5123,1.5801,1.5801,1.5801,1.5801,1.5801,1.5801,1.6369,1.7622,1.9428,2.1235,2.2928,2.3101,2.3101,2.3101,2.3671,2.4253,2.4776,2.5572,2.69,2.8713,2.9454,3.0468,3.2026,3.2478,3.2813,3.304,3.3102,3.3102,3.324,3.4436,3.5588,3.6152,3.7572,3.88,3.9228,3.9406,3.9406,3.9406,3.9406,3.9406,3.9406,3.9406,3.9406,3.9406,3.9406,3.9406,3.9406,3.9406,3.9406,3.9406,3.9406,3.9406,3.9406,3.9406,3.9406,3.9406,3.9406,3.9406,3.9406,3.9406,3.9406,3.9406,3.9406,3.9406,4.181,4.1643,3.9901,3.8992,3.8566,3.7396,3.59,3.4295,3.3342,3.1893,3.0157,2.8729,2.6901,2.4925,2.4819,2.3514,2.136,2.0034,1.8095,1.5631,1.3393,1.1507,1.0022,0.8895,0.8287,0.8038,0.7988,0.7988,0.7988,0.7988,0.7988,0.7988,0.7988,0.7988,0.7988,0.7988,0.7988,0.7988,0.7988,0.7988,0.8038,0.9312,0.9633,0.9171,1.1803,1.3234,1.2894,1.4454,1.4919,1.4046,1.5116,1.5801,1.5801,1.5801,1.5801,1.5801,1.5801,1.6504,1.8072,2.0359,2.2098,2.2994,2.3101,2.314,2.3359,2.4558,2.537,2.554,2.6775,2.8194,2.9558,3.0438,3.1339,3.2285,3.2813,3.3065,3.3102,3.3102,3.3102,3.3197,3.4037,3.5088,3.6073,3.7118,3.8215,3.9159,3.9406,3.9406,3.9406,3.9406,3.9406,3.9406,3.9406,3.9406,3.9406,3.9406,3.9406,3.9406,3.9406,3.9406,3.9406,3.9406,3.9406,3.9406,3.9406,3.9406,3.9406,3.9406,3.9406,3.9406,3.9406,3.9406,3.9406,3.9406,3.9406,4.181,4.1628,4.0497,3.9156,3.8028,3.7781,3.6815,3.5341,3.431,3.3328,3.2019,2.9352,2.6951,2.4978,2.4882,2.3644,2.1404,2.0056,1.821,1.5866,1.4333,1.242,1.0268,0.9899,0.9192,0.8184,0.8063,0.8088,0.7988,0.7988,0.7988,0.7988,0.7988,0.7988,0.7988,0.7988,0.7988,0.7988,0.7988,0.7988,0.8088,0.9312,1.0485,1.1546,1.1891,1.3171,1.5154,1.4562,1.4022,1.3998,1.5116,1.5801,1.5801,1.5801,1.5801,1.5801,1.5825,1.6819,1.9169,2.1578,2.296,2.3069,2.311,2.331,2.3809,2.5796,2.7059,2.7283,2.8124,2.9685,3.1576,3.1955,3.225,3.2825,3.304,3.3102,3.3102,3.3102,3.3102,3.3124,3.4037,3.5068,3.6093,3.7195,3.8252,3.9247,3.9406,3.9406,3.9406,3.9406,3.9406,3.9406,3.9406,3.9406,3.9406,3.9406,3.9406,3.9406,3.9406,3.9406,3.9406,3.9406,3.9406,3.9406,3.9406,3.9406,3.9406,3.9406,3.9406,3.9406,3.9406,3.9406,3.9406,3.9406,3.9406,4.2121,4.1753,4.1434,4.0421,3.9154,3.9038,3.8122,3.6548,3.5175,3.4072,3.2972,3.0879,2.876,2.6799,2.6758,2.5513,2.3331,2.2111,2.0281,1.788,1.5896,1.4011,1.2372,1.1453,1.044,0.9266,0.9167,0.8751,0.8113,0.7988,0.7988,0.7988,0.7988,0.7988,0.7988,0.7988,0.7988,0.8013,0.8775,0.9192,0.9336,1.046,1.1361,1.1994,1.3379,1.4634,1.5623,1.5261,1.5021,1.5045,1.554,1.5801,1.5801,1.5801,1.5801,1.5872,1.7203,1.8418,1.9443,2.1752,2.3101,2.3101,2.3357,2.3883,2.4832,2.6574,2.8051,2.9174,3.0221,3.1302,3.2093,3.2503,3.283,3.3065,3.3102,3.3102,3.3102,3.3102,3.3102,3.3176,3.4024,3.5102,3.6192,3.7686,3.8819,3.9352,3.9406,3.9406,3.9406,3.9406,3.9406,3.9406,3.9406,3.9406,3.9406,3.9406,3.9406,3.9406,3.9406,3.9406,3.9406,3.9406,3.9406,3.9406,3.9406,3.9406,3.9406,3.9406,3.9406,3.9406,3.9406,3.9406,3.9406,3.9406,3.9406,4.2997,4.2449,4.2245,4.1409,4.0263,3.9992,3.9109,3.7703,3.6259,3.512,3.4136,3.2572,3.0876,2.9276,2.8474,2.6889,2.484,2.3549,2.1916,1.9844,1.74,1.5586,1.4357,1.3073,1.1775,1.0681,1.0534,0.983,0.8676,0.8552,0.8382,0.8063,0.7988,0.7988,0.7988,0.7988,0.8184,0.8627,0.9534,1.017,1.0632,1.1794,1.227,1.2176,1.4447,1.5801,1.5801,1.5801,1.5801,1.5801,1.5801,1.5801,1.5801,1.5801,1.5801,1.6008,1.8118,1.9497,1.9542,2.1866,2.3298,2.3327,2.3721,2.4536,2.5889,2.7316,2.8892,3.0525,3.1791,3.242,3.2503,3.2851,3.309,3.3102,3.3102,3.3102,3.3102,3.3102,3.3102,3.3197,3.4037,3.5231,3.656,3.8186,3.937,3.9388,3.9406,3.9406,3.9406,3.9406,3.9406,3.9406,3.9406,3.9406,3.9406,3.9406,3.9406,3.9406,3.9406,3.9406,3.9406,3.9406,3.9406,3.9406,3.9406,3.9406,3.9406,3.9406,3.9406,3.9406,3.9406,3.9406,3.9406,3.9406,3.9406,4.4605,4.3859,4.2774,4.1905,4.1105,4.0297,3.9471,3.8621,3.7649,3.6728,3.5694,3.42,3.2943,3.1697,2.9384,2.6982,2.4914,2.3743,2.2497,2.1074,1.8718,1.6893,1.5607,1.4381,1.3102,1.1921,1.1823,1.1165,0.9977,0.985,0.9238,0.8162,0.8162,0.8063,0.8137,0.8233,0.8676,0.9706,1.0096,1.0656,1.1823,1.3127,1.325,1.2483,1.4452,1.5801,1.5801,1.5801,1.5801,1.5801,1.5801,1.5801,1.5801,1.5801,1.5801,1.6103,1.8126,1.9505,1.9897,2.221,2.376,2.3818,2.415,2.5085,2.6758,2.7996,2.9461,3.1083,3.2315,3.3002,3.3002,3.304,3.3102,3.3102,3.3102,3.3102,3.3102,3.3102,3.3102,3.3347,3.4275,3.5742,3.751,3.8675,3.9283,3.9406,3.9406,3.9406,3.9406,3.9406,3.9406,3.9406,3.9406,3.9406,3.9406,3.9406,3.9406,3.9406,3.9406,3.9406,3.9406,3.9406,3.9406,3.9406,3.9406,3.9406,3.9406,3.9406,3.9406,3.9406,3.9406,3.9406,3.9406,3.9406,3.9406,4.5521,4.4682,4.3511,4.2805,4.2471,4.162,4.0768,3.9898,3.8581,3.7511,3.6577,3.5571,3.4057,3.214,3.119,2.9315,2.6953,2.5753,2.4214,2.2277,1.9949,1.8187,1.6955,1.5721,1.4465,1.3343,1.3156,1.2498,1.1238,1.0415,1.0194,1.0337,0.9678,0.9262,0.941,1.0096,1.0391,1.0219,1.1575,1.274,1.3223,1.4465,1.4853,1.4482,1.5294,1.5801,1.5801,1.5801,1.5801,1.5801,1.5801,1.5801,1.5801,1.5801,1.6173,1.7021,1.8117,1.941,2.1054,2.2832,2.4013,2.4196,2.459,2.5833,2.7709,2.8801,3.0064,3.195,3.2754,3.3102,3.3102,3.3102,3.3102,3.3102,3.3124,3.3145,3.3102,3.3124,3.3347,3.4183,3.5574,3.7261,3.8327,3.9174,3.9388,3.9406,3.9406,3.9406,3.9406,3.9406,3.9406,3.9406,3.9406,3.9406,3.9406,3.9406,3.9406,3.9406,3.9406,3.9406,3.9406,3.9406,3.9406,3.9406,3.9406,3.9406,3.9406,3.9406,3.9406,3.9406,3.9406,3.9406,3.9406,3.9406,3.9406,4.6323,4.547,4.4501,4.3928,4.3634,4.2785,4.1917,4.1016,3.9715,3.8626,3.7718,3.6755,3.5222,3.3535,3.2887,3.1392,2.9045,2.7308,2.543,2.3484,2.1145,1.9656,1.8703,1.7187,1.5971,1.5138,1.4674,1.383,1.2595,1.1672,1.1526,1.1799,1.0994,1.0603,1.0779,1.1482,1.158,1.1648,1.3024,1.4046,1.4555,1.5343,1.5801,1.5801,1.5801,1.5801,1.5801,1.5801,1.5801,1.5801,1.5801,1.5848,1.5952,1.5965,1.658,1.7848,1.8321,1.9585,2.1928,2.3517,2.456,2.5162,2.5682,2.6944,2.9251,2.9828,3.1021,3.2547,3.3102,3.3102,3.3102,3.3102,3.3102,3.3167,3.3398,3.3441,3.3185,3.3742,3.4602,3.5655,3.6836,3.8144,3.9141,3.9352,3.9406,3.9406,3.9406,3.9406,3.9406,3.9406,3.9406,3.9406,3.9406,3.9406,3.9406,3.9406,3.9406,3.9406,3.9406,3.9406,3.9406,3.9406,3.9406,3.9406,3.9406,3.9406,3.9406,3.9406,3.9406,3.9406,3.9406,3.9406,3.9406,3.9406,3.9406,4.7001,4.6277,4.5715,4.5037,4.4412,4.3547,4.277,4.1933,4.0966,4.0011,3.9104,3.777,3.6599,3.5626,3.4262,3.2708,3.0645,2.8076,2.6098,2.466,2.2372,2.1217,2.0836,1.8718,1.7568,1.7288,1.6339,1.517,1.3926,1.3608,1.3054,1.2237,1.2067,1.1916,1.1921,1.2212,1.2721,1.3445,1.392,1.4585,1.5635,1.5778,1.5801,1.5801,1.5801,1.5815,1.5821,1.5815,1.5815,1.5835,1.5835,1.5955,1.6257,1.6297,1.7009,1.8491,1.889,2.0157,2.2463,2.4094,2.5444,2.63,2.7142,2.8313,3.0156,3.0909,3.1611,3.2797,3.3124,3.3111,3.3197,3.3167,3.3176,3.324,3.3995,3.4108,3.3818,3.4932,3.6546,3.7362,3.7847,3.829,3.9068,3.9406,3.9406,3.9406,3.9406,3.9406,3.9406,3.9406,3.9406,3.9406,3.9406,3.9406,3.9406,3.9406,3.9406,3.9406,3.9406,3.9406,3.9406,3.9406,3.9406,3.9406,3.9406,3.9406,3.9406,3.9406,3.9406,3.9406,3.9406,3.9406,3.9406,3.9406,3.9406,4.7251,4.6354,4.5762,4.5169,4.4511,4.3682,4.3123,4.2739,4.1362,4.0552,4.0124,3.914,3.7691,3.6201,3.5404,3.3779,3.1151,2.9315,2.7641,2.5827,2.3571,2.2086,2.115,1.9702,1.8503,1.777,1.7342,1.645,1.5307,1.4405,1.4022,1.4346,1.371,1.3295,1.3416,1.4106,1.4513,1.4028,1.4776,1.5439,1.5778,1.5825,1.5825,1.5801,1.5801,1.5919,1.6191,1.5945,1.5932,1.6119,1.6139,1.6266,1.65,1.6591,1.7675,1.9675,2.0143,2.1432,2.3908,2.4981,2.5609,2.6213,2.7029,2.8285,2.9795,3.081,3.1755,3.2896,3.3124,3.3347,3.3911,3.3492,3.3471,3.4142,3.4491,3.4684,3.4615,3.546,3.6579,3.7677,3.8453,3.9017,3.9283,3.9406,3.9406,3.9406,3.9406,3.9406,3.9406,3.9406,3.9406,3.9406,3.9406,3.9406,3.9406,3.9406,3.9406,3.9406,3.9406,3.9406,3.9406,3.9406,3.9406,3.9406,3.9406,3.9406,3.9406,3.9406,3.9406,3.9406,3.9406,3.9406,3.9406,3.9406,3.9406,4.7716,4.6733,4.61,4.5468,4.4879,4.4102,4.3591,4.3123,4.1804,4.1028,4.0586,3.9791,3.8344,3.6805,3.6514,3.4914,3.23,3.113,2.9579,2.7521,2.5356,2.37,2.2469,2.0881,1.9542,1.8572,1.8365,1.7971,1.7187,1.6448,1.6401,1.6891,1.6371,1.6028,1.6035,1.672,1.6713,1.6206,1.6791,1.7179,1.7093,1.6732,1.6581,1.6633,1.6249,1.6158,1.6363,1.621,1.6215,1.64,1.6433,1.679,1.7467,1.7296,1.8314,2.1023,2.1831,2.2742,2.4982,2.5508,2.6221,2.6959,2.7814,2.9073,3.0485,3.1601,3.2317,3.2918,3.3124,3.339,3.386,3.3974,3.4157,3.5136,3.5278,3.5635,3.62,3.6613,3.7286,3.8252,3.898,3.9319,3.9406,3.9406,3.9406,3.9406,3.9406,3.9406,3.9406,3.9406,3.9406,3.9406,3.9406,3.9406,3.9406,3.9406,3.9406,3.9406,3.9406,3.9406,3.9406,3.9406,3.9406,3.9406,3.9406,3.9406,3.9406,3.9406,3.9406,3.9406,3.9406,3.9406,3.9406,3.9406,3.9406,4.8338,4.7356,4.6721,4.6063,4.542,4.4865,4.4176,4.3351,4.2331,4.1511,4.0743,3.9708,3.8581,3.7562,3.7146,3.5827,3.41,3.2964,3.1516,2.9624,2.7729,2.6168,2.4575,2.2809,2.131,2.0017,1.9821,1.9602,1.9062,1.8954,1.9474,1.9154,1.9008,1.9329,1.8977,1.9405,1.9177,1.8985,1.9214,1.9214,1.9039,1.8342,1.7714,1.7914,1.7156,1.6905,1.7222,1.716,1.6909,1.6765,1.6911,1.7633,1.8539,1.7967,1.9595,2.2895,2.3056,2.382,2.5143,2.5679,2.6586,2.8471,2.905,3.0361,3.2064,3.259,3.2896,3.3068,3.3227,3.3377,3.37,3.4241,3.521,3.6073,3.629,3.7118,3.8855,3.8327,3.8182,3.8962,3.9388,3.9406,3.9406,3.9406,3.9406,3.9406,3.9406,3.9406,3.9406,3.9406,3.9406,3.9406,3.9406,3.9406,3.9406,3.9406,3.9406,3.9406,3.9406,3.9406,3.9406,3.9406,3.9406,3.9406,3.9406,3.9406,3.9406,3.9406,3.9406,3.9406,3.9406,3.9406,3.9388,3.9388,3.9388,4.8571,4.7417,4.7205,4.6489,4.5558,4.5307,4.4872,4.4093,4.2645,4.1901,4.1251,3.9529,3.8247,3.7387,3.6926,3.5722,3.4305,3.3739,3.3052,3.1748,3.0573,2.8441,2.6491,2.542,2.4,2.2334,2.2026,2.1172,1.9602,1.9867,1.9761,1.9497,1.9889,1.967,1.9497,1.9693,1.9497,1.9497,1.9542,1.9154,1.8572,1.891,1.8118,1.668,1.8171,1.9327,2.0028,1.9338,1.8217,1.7265,1.8249,1.8494,1.841,1.9547,2.0954,2.2013,2.2313,2.3176,2.5123,2.5757,2.6524,2.7908,2.9062,3.0067,3.1522,3.259,3.3004,3.324,3.3734,3.4526,3.5163,3.5608,3.6304,3.7137,3.7367,3.789,3.8837,3.8527,3.82,3.9174,3.9388,3.9406,3.9406,3.9406,3.9406,3.9406,3.9406,3.9406,3.9406,3.9406,3.9406,3.9406,3.9406,3.9406,3.9406,3.9406,3.9406,3.9406,3.9406,3.9406,3.9406,3.9406,3.9406,3.9406,3.9406,3.9406,3.9406,3.9406,3.9406,3.9406,3.9406,3.9406,3.9373,3.9373,3.9337,4.8805,4.7756,4.7491,4.6819,4.589,4.561,4.5169,4.4423,4.3184,4.2138,4.131,3.9769,3.8217,3.7047,3.6641,3.5839,3.4685,3.4194,3.3674,3.3154,3.2146,3.0018,2.7708,2.678,2.5754,2.4682,2.4459,2.3744,2.2749,2.2443,2.2443,2.2618,2.2434,2.2233,2.19,2.1701,2.1431,2.1168,2.0998,2.0638,2.0119,2.0102,2.0137,1.9175,2.0243,2.0763,2.1404,2.0886,1.978,1.8759,1.9066,1.9472,1.9517,2.0735,2.1954,2.2408,2.237,2.333,2.5266,2.6285,2.7238,2.833,2.9453,3.0687,3.1855,3.2732,3.3102,3.321,3.4087,3.4897,3.5561,3.6304,3.7324,3.8252,3.8457,3.8727,3.937,3.8889,3.8815,3.921,3.9406,3.9406,3.9406,3.9406,3.9406,3.9406,3.9406,3.9406,3.9406,3.9406,3.9406,3.9406,3.9406,3.9406,3.9406,3.9406,3.9406,3.9406,3.9406,3.9406,3.9406,3.9406,3.9406,3.9406,3.9406,3.9406,3.9406,3.9406,3.9406,3.9406,3.9406,3.9388,3.9373,3.9213,3.9195,4.9037,4.8239,4.7707,4.7099,4.6466,4.5858,4.532,4.46,4.3501,4.2281,4.1006,3.9922,3.8197,3.6508,3.6374,3.601,3.5392,3.4627,3.4177,3.3705,3.2947,3.1291,2.9088,2.8243,2.7463,2.6855,2.6787,2.6418,2.5806,2.5994,2.6254,2.5713,2.5849,2.5567,2.4255,2.4265,2.3974,2.2984,2.2687,2.2435,2.2063,2.1686,2.1771,2.2247,2.2022,2.174,2.2003,2.1853,2.1322,2.0102,2.0007,2.0666,2.1626,2.1752,2.2542,2.3398,2.3498,2.4217,2.5805,2.7436,2.865,2.9544,3.0541,3.1721,3.2633,3.3081,3.3197,3.3462,3.4241,3.5163,3.5922,3.7055,3.8163,3.9031,3.9283,3.937,3.9406,3.9406,3.9406,3.9406,3.9406,3.9406,3.9406,3.9406,3.9406,3.9406,3.9406,3.9406,3.9406,3.9406,3.9406,3.9406,3.9406,3.9406,3.9406,3.9406,3.9406,3.9406,3.9406,3.9406,3.9406,3.9406,3.9406,3.9406,3.9406,3.9406,3.9406,3.9406,3.9388,3.9406,3.9406,3.9406,3.937,3.9053,3.891,4.9029,4.8287,4.8162,4.7738,4.7139,4.6478,4.587,4.5119,4.3258,4.2021,4.0717,3.8983,3.7577,3.6482,3.605,3.5609,3.5519,3.5149,3.4791,3.3993,3.3859,3.3017,3.1743,3.1204,3.0307,2.9252,2.8824,2.8052,2.7003,2.6771,2.6524,2.6545,2.613,2.5094,2.4935,2.4393,2.342,2.3135,2.3157,2.2755,2.2296,2.2479,2.2505,2.2612,2.3637,2.3999,2.3403,2.3285,2.311,2.2901,2.2751,2.2492,2.2282,2.3633,2.423,2.395,2.4668,2.5658,2.709,2.8409,2.9624,3.0598,3.1112,3.1755,3.2918,3.3154,3.3556,3.4254,3.5278,3.6495,3.7847,3.8638,3.9068,3.9334,3.9406,3.9406,3.9406,3.9406,3.9406,3.9406,3.9406,3.9406,3.9406,3.9406,3.9406,3.9406,3.9406,3.9406,3.9406,3.9406,3.9406,3.9406,3.9406,3.9406,3.9406,3.9406,3.9406,3.9406,3.9406,3.9406,3.9406,3.9406,3.9406,3.9406,3.9406,3.9406,3.9406,3.9388,3.9388,3.9388,3.9265,3.905,3.8819,3.8657,3.8331,4.9029,4.8325,4.8315,4.7947,4.7396,4.701,4.6153,4.4948,4.3808,4.2213,4.0621,3.9206,3.7979,3.6556,3.6174,3.5879,3.5554,3.5504,3.523,3.4789,3.4691,3.4428,3.4124,3.3719,3.276,3.0665,3.0283,2.9372,2.8406,2.8031,2.8151,2.8051,2.7371,2.7064,2.6397,2.5619,2.5315,2.4702,2.4135,2.3532,2.3187,2.294,2.3239,2.3159,2.4655,2.5285,2.4707,2.4633,2.4633,2.4633,2.4584,2.4014,2.3176,2.4501,2.4888,2.4214,2.4967,2.6256,2.7578,2.969,3.1157,3.1178,3.1699,3.236,3.312,3.3492,3.4045,3.4856,3.6061,3.7648,3.9159,3.9388,3.9406,3.9406,3.9406,3.9406,3.9406,3.9406,3.9406,3.9406,3.9406,3.9406,3.9406,3.9406,3.9406,3.9406,3.9406,3.9406,3.9406,3.9406,3.9406,3.9406,3.9406,3.9406,3.9406,3.9406,3.9406,3.9406,3.9406,3.9406,3.9406,3.9406,3.9406,3.9406,3.9406,3.9406,3.9388,3.9388,3.9156,3.869,3.8453,3.8345,3.7904,3.7118,3.6963,4.907,4.8374,4.8335,4.7997,4.7562,4.7406,4.6391,4.486,4.4324,4.2584,4.0516,4.0067,3.8504,3.7149,3.6829,3.6368,3.583,3.5489,3.5375,3.5344,3.5311,3.5262,3.5197,3.4953,3.4058,3.1815,3.1711,3.1055,3.0235,3.0133,3.0012,2.9954,2.9664,2.8836,2.8338,2.7824,2.6973,2.6099,2.541,2.502,2.4861,2.4241,2.4199,2.4641,2.5153,2.5669,2.5577,2.5737,2.5883,2.5757,2.5878,2.5255,2.4658,2.4864,2.5494,2.4356,2.5369,2.6625,2.8684,3.099,3.2482,3.1591,3.2382,3.312,3.3547,3.415,3.4794,3.5762,3.6977,3.8383,3.9283,3.9406,3.9406,3.9406,3.9406,3.9406,3.9406,3.9406,3.9406,3.9406,3.9406,3.9406,3.9406,3.9406,3.9406,3.9406,3.9406,3.9406,3.9406,3.9406,3.9406,3.9406,3.9406,3.9406,3.9406,3.9406,3.9406,3.9406,3.9406,3.9406,3.9406,3.9406,3.9406,3.9406,3.9406,3.937,3.937,3.9388,3.8943,3.8121,3.7772,3.7847,3.6905,3.5601,3.5668,4.9226,4.877,4.8439,4.8238,4.8075,4.7625,4.6784,4.5712,4.4137,4.2485,4.0778,3.9621,3.866,3.7777,3.7602,3.7145,3.6368,3.5799,3.5489,3.5489,3.5489,3.5489,3.5489,3.5457,3.4691,3.3908,3.3397,3.2571,3.1513,3.1678,3.1457,3.0887,3.0094,2.945,2.8919,2.7797,2.7148,2.6944,2.6451,2.6233,2.6109,2.5951,2.5604,2.5786,2.5956,2.6041,2.6149,2.6706,2.6802,2.5951,2.6754,2.649,2.5863,2.581,2.6177,2.6445,2.6348,2.7465,3.001,3.1915,3.2897,3.2874,3.2982,3.3598,3.415,3.4692,3.5561,3.7055,3.8144,3.9192,3.9352,3.9406,3.9406,3.9406,3.9406,3.9406,3.9406,3.9406,3.9406,3.9406,3.9406,3.9406,3.9406,3.9406,3.9406,3.9406,3.9406,3.9406,3.9406,3.9406,3.9406,3.9406,3.9406,3.9406,3.9406,3.9406,3.9406,3.9406,3.9406,3.9406,3.9406,3.9406,3.9406,3.9406,3.9334,3.9247,3.9265,3.9265,3.8583,3.7625,3.7491,3.7362,3.6101,3.4904,3.4945,4.9265,4.8881,4.8477,4.8315,4.8184,4.7531,4.6614,4.5472,4.3864,4.2299,4.0981,3.9926,3.9086,3.8541,3.8372,3.7745,3.6692,3.5831,3.5522,3.5489,3.5489,3.5489,3.5489,3.5489,3.5246,3.4872,3.4675,3.3754,3.2123,3.2321,3.2375,3.1838,3.0878,3.0391,3.012,2.9071,2.8279,2.8099,2.7654,2.734,2.731,2.7281,2.6932,2.6536,2.7172,2.7597,2.7733,2.8085,2.8272,2.7898,2.8215,2.8132,2.778,2.7602,2.7579,2.7706,2.7946,2.8869,3.0983,3.2348,3.3038,3.3102,3.3124,3.3641,3.4532,3.5292,3.6442,3.8073,3.8889,3.9406,3.9406,3.9406,3.9406,3.9406,3.9406,3.9406,3.9406,3.9406,3.9406,3.9406,3.9406,3.9406,3.9406,3.9406,3.9406,3.9406,3.9406,3.9406,3.9406,3.9406,3.9406,3.9406,3.9406,3.9406,3.9406,3.9406,3.9406,3.9406,3.9406,3.9406,3.9406,3.9406,3.9406,3.9406,3.9283,3.8727,3.8745,3.8568,3.7833,3.7079,3.6515,3.5882,3.5047,3.4423,3.4436,4.9265,4.8863,4.8458,4.8205,4.7966,4.7388,4.631,4.4955,4.3762,4.2445,4.1105,4.048,3.9838,3.9246,3.8827,3.8185,3.6993,3.6368,3.6022,3.5847,3.6022,3.5957,3.5538,3.5636,3.5621,3.5359,3.5328,3.456,3.3276,3.3276,3.315,3.277,3.2055,3.176,3.1578,3.0544,3.0279,2.9761,2.9035,2.8466,2.8406,2.8268,2.7885,2.7094,2.8565,2.9269,2.9131,2.9567,2.9476,2.935,2.9487,2.9613,2.9476,2.9613,2.9292,2.8774,2.984,3.0715,3.1728,3.2404,3.3102,3.3102,3.3347,3.4016,3.5102,3.6324,3.761,3.9017,3.9406,3.9406,3.9406,3.9406,3.9406,3.9406,3.9406,3.9406,3.9406,3.9406,3.9406,3.9406,3.9406,3.9406,3.9406,3.9406,3.9406,3.9406,3.9406,3.9406,3.9406,3.9406,3.9406,3.9406,3.9406,3.9406,3.9406,3.9406,3.9406,3.9406,3.9406,3.9406,3.9406,3.9406,3.9406,3.9301,3.8055,3.7553,3.7724,3.7705,3.6871,3.6067,3.5251,3.4581,3.4066,3.3742,3.3649,4.9265,4.8863,4.844,4.7911,4.7296,4.7094,4.6177,4.4748,4.4002,4.299,4.1595,4.1047,4.0461,3.9855,3.9139,3.8786,3.8356,3.7659,3.698,3.6615,3.698,3.6631,3.5798,3.6228,3.5926,3.5604,3.5489,3.4889,3.4194,3.4608,3.4574,3.3925,3.3587,3.357,3.3119,3.1609,3.1068,3.082,3.0056,2.9534,2.9497,2.9423,2.9369,2.9222,2.945,2.9715,2.9977,3.0541,3.0631,2.9852,3.053,3.0417,2.9806,3.0462,3.0855,3.0752,3.0882,3.1256,3.2497,3.2961,3.324,3.342,3.3924,3.4938,3.612,3.7625,3.8837,3.921,3.9406,3.9406,3.9406,3.9406,3.9406,3.9406,3.9406,3.9406,3.9406,3.9406,3.9406,3.9406,3.9406,3.9406,3.9406,3.9406,3.9406,3.9406,3.9406,3.9406,3.9406,3.9406,3.9406,3.9406,3.9406,3.9406,3.9406,3.9406,3.9406,3.9406,3.9406,3.9406,3.9406,3.9406,3.9406,3.898,3.761,3.6833,3.7195,3.6891,3.5934,3.5238,3.465,3.4024,3.3377,3.3167,3.3124,4.9265,4.8826,4.796,4.7424,4.6984,4.6168,4.5379,4.4601,4.3629,4.2695,4.1832,4.1213,4.063,4.0011,3.9246,3.8911,3.8731,3.8189,3.7661,3.7366,3.7573,3.7219,3.643,3.6384,3.6196,3.5766,3.5473,3.5407,3.5116,3.5198,3.5197,3.4856,3.4295,3.391,3.3945,3.2159,3.1389,3.105,3.0714,3.0119,2.9873,3.0509,3.0984,3.0276,3.0995,3.134,3.1534,3.1843,3.2086,3.1579,3.2118,3.2052,3.1711,3.1987,3.2283,3.2305,3.2755,3.3003,3.3086,3.3154,3.3462,3.3932,3.456,3.5352,3.6938,3.8401,3.9406,3.9406,3.9406,3.9406,3.9406,3.9406,3.9406,3.9406,3.9406,3.9406,3.9406,3.9406,3.9406,3.9406,3.9406,3.9406,3.9406,3.9406,3.9406,3.9406,3.9406,3.9406,3.9406,3.9406,3.9406,3.9406,3.9406,3.9406,3.9406,3.9406,3.9406,3.9406,3.9406,3.9406,3.9406,3.9406,3.9406,3.88,3.7539,3.7046,3.6949,3.5808,3.4568,3.4311,3.4199,3.3649,3.3167,3.3145,3.3102,4.9251,4.8509,4.7518,4.6892,4.6406,4.5195,4.4599,4.4252,4.3378,4.2509,4.1746,4.1094,4.0495,4.0074,3.9542,3.9289,3.9179,3.861,3.8276,3.8177,3.8149,3.7833,3.7292,3.7009,3.6889,3.6053,3.6305,3.6212,3.6164,3.6085,3.6037,3.5506,3.4839,3.4495,3.3993,3.2996,3.2037,3.1633,3.131,3.0701,3.0392,3.1763,3.1787,3.1842,3.2411,3.3377,3.3145,3.3047,3.3016,3.2961,3.2918,3.284,3.2853,3.2819,3.3172,3.3416,3.3993,3.4272,3.4053,3.3982,3.415,3.4753,3.5534,3.6456,3.7919,3.9013,3.9406,3.9406,3.9406,3.9406,3.9406,3.9406,3.9406,3.9406,3.9406,3.9406,3.9406,3.9406,3.9406,3.9406,3.9406,3.9406,3.9406,3.9406,3.9406,3.9406,3.9406,3.9406,3.9406,3.9406,3.9406,3.9406,3.9406,3.9406,3.9406,3.9406,3.9406,3.9406,3.9406,3.9406,3.9406,3.9406,3.9406,3.8531,3.7501,3.6838,3.6526,3.4822,3.327,3.3492,3.3641,3.3398,3.3124,3.3102,3.3102,4.9176,4.7727,4.7288,4.6232,4.4938,4.4773,4.4259,4.3699,4.3491,4.2772,4.1736,4.072,4.0209,4.007,3.9978,3.9901,3.9952,3.9952,3.9411,3.9222,3.9401,3.8843,3.8258,3.806,3.8189,3.756,3.7294,3.7354,3.7471,3.7055,3.6523,3.5668,3.5461,3.5409,3.4938,3.3959,3.2943,3.2393,3.1883,3.179,3.1873,3.2638,3.2768,3.2622,3.3487,3.4183,3.3197,3.3219,3.3326,3.3326,3.3154,3.3471,3.3598,3.3441,3.3734,3.4477,3.4979,3.5352,3.548,3.5088,3.5177,3.6027,3.6963,3.781,3.8855,3.921,3.9406,3.9406,3.9406,3.9406,3.9406,3.9406,3.9406,3.9406,3.9406,3.9406,3.9406,3.9406,3.9406,3.9406,3.9406,3.9406,3.9406,3.9406,3.9406,3.9406,3.9406,3.9406,3.9406,3.9406,3.9406,3.9406,3.9406,3.9406,3.9406,3.9406,3.9406,3.9406,3.9406,3.9406,3.9406,3.9406,3.9406,3.8708,3.7795,3.6916,3.59,3.4423,3.3386,3.3197,3.3102,3.3102,3.3102,3.3102,3.3102,4.8535,4.727,4.6328,4.5469,4.4663,4.4176,4.3773,4.3524,4.3479,4.2847,4.1739,4.0654,4.0113,4.0108,4.0113,4.0113,4.0113,4.01,3.9863,3.9808,3.9795,3.9411,3.8881,3.8621,3.8511,3.8007,3.7865,3.7822,3.7735,3.7573,3.6919,3.629,3.6165,3.5831,3.5333,3.4576,3.3636,3.3049,3.2868,3.3107,3.3537,3.4287,3.4519,3.4187,3.4861,3.4643,3.3513,3.3839,3.3995,3.3911,3.3471,3.3919,3.4519,3.4304,3.4664,3.5561,3.6061,3.6652,3.6866,3.6363,3.6132,3.7132,3.8144,3.8929,3.9373,3.9388,3.9406,3.9406,3.9406,3.9406,3.9406,3.9406,3.9406,3.9406,3.9406,3.9406,3.9406,3.9406,3.9406,3.9406,3.9406,3.9406,3.9406,3.9406,3.9406,3.9406,3.9406,3.9406,3.9406,3.9406,3.9406,3.9406,3.9406,3.9406,3.9406,3.9406,3.9406,3.9406,3.9406,3.9406,3.9406,3.9406,3.9265,3.8657,3.7852,3.6735,3.5514,3.4207,3.3471,3.3197,3.3102,3.3102,3.3102,3.3102,3.3102,4.7941,4.653,4.5615,4.4887,4.4313,4.3745,4.3488,4.3488,4.3488,4.2986,4.2,4.1059,4.049,4.0397,4.036,4.0204,4.0159,4.0113,4.0113,4.007,3.9978,3.9727,3.942,3.9219,3.9129,3.8557,3.8472,3.8555,3.8627,3.7701,3.7277,3.7024,3.6676,3.6165,3.5492,3.4839,3.4092,3.3805,3.3687,3.4385,3.4796,3.5417,3.5789,3.5539,3.6213,3.5871,3.4837,3.4816,3.4822,3.465,3.4498,3.4891,3.5386,3.5734,3.5788,3.6554,3.7305,3.7885,3.7961,3.7795,3.7329,3.7757,3.869,3.921,3.9406,3.9406,3.9406,3.9406,3.9406,3.9406,3.9406,3.9406,3.9406,3.9406,3.9406,3.9406,3.9406,3.9406,3.9406,3.9406,3.9406,3.9406,3.9406,3.9406,3.9406,3.9406,3.9406,3.9406,3.9406,3.9406,3.9406,3.9406,3.9406,3.9406,3.9406,3.9406,3.9406,3.9406,3.9406,3.9406,3.9406,3.937,3.9031,3.8345,3.7458,3.6369,3.5217,3.4003,3.3471,3.3145,3.3102,3.3102,3.3102,3.3102,3.3102,4.7509,4.5439,4.5281,4.4594,4.3633,4.3524,4.3488,4.347,4.3427,4.3114,4.2547,4.1874,4.1291,4.092,4.0762,4.0492,4.0159,4.0113,4.0113,4.0113,4.01,4.0033,3.9995,3.9889,3.9744,4.0007,3.9769,3.964,3.9812,3.884,3.8288,3.763,3.7009,3.6228,3.5554,3.5488,3.5408,3.5279,3.4459,3.4981,3.569,3.6176,3.6352,3.675,3.7309,3.7068,3.6571,3.6073,3.5929,3.5413,3.5567,3.5974,3.6507,3.6408,3.6716,3.7696,3.7843,3.8379,3.9123,3.9228,3.8764,3.82,3.9017,3.9352,3.9406,3.9406,3.9406,3.9406,3.9406,3.9406,3.9406,3.9406,3.9406,3.9406,3.9406,3.9406,3.9406,3.9406,3.9406,3.9406,3.9406,3.9406,3.9406,3.9406,3.9406,3.9406,3.9406,3.9406,3.9406,3.9406,3.9406,3.9406,3.9406,3.9406,3.9406,3.9406,3.9406,3.9406,3.9406,3.9406,3.9265,3.9104,3.8657,3.8013,3.6919,3.5708,3.4781,3.3848,3.345,3.3102,3.3102,3.3102,3.3102,3.3102,3.3102,4.6966,4.5262,4.4672,4.4069,4.3522,4.3488,4.3488,4.3427,4.3142,4.2873,4.2616,4.207,4.1468,4.1064,4.0868,4.0643,4.0204,4.0113,4.0113,4.0121,4.0184,4.0083,4.0108,4.0133,4.0108,4.0113,4.0113,4.0113,4.0033,3.9302,3.8881,3.83,3.7248,3.6243,3.5686,3.5489,3.5473,3.5545,3.5579,3.6081,3.6832,3.7284,3.7736,3.816,3.8595,3.8527,3.8073,3.7595,3.7,3.6509,3.6716,3.693,3.7648,3.7738,3.7757,3.8579,3.8833,3.8977,3.9352,3.9352,3.925,3.9071,3.9104,3.9406,3.9406,3.9406,3.9406,3.9406,3.9406,3.9406,3.9406,3.9406,3.9406,3.9406,3.9406,3.9406,3.9406,3.9406,3.9406,3.9406,3.9406,3.9406,3.9406,3.9406,3.9406,3.9406,3.9406,3.9406,3.9406,3.9406,3.9406,3.9406,3.9406,3.9406,3.9406,3.9406,3.9406,3.9406,3.9406,3.9406,3.921,3.8819,3.8182,3.7506,3.6259,3.5034,3.4353,3.3734,3.3356,3.3102,3.3102,3.3102,3.3102,3.3102,3.3102,4.6081,4.4642,4.4048,4.3701,4.3505,4.3488,4.3488,4.3436,4.3133,4.2976,4.2911,4.256,4.1961,4.1429,4.1167,4.088,4.0429,4.038,4.038,4.04,4.0625,4.0466,4.0291,4.0254,4.0262,4.0179,4.0113,4.0113,4.0058,3.9302,3.8731,3.8218,3.7527,3.6753,3.6117,3.5734,3.5489,3.5653,3.5942,3.6615,3.7319,3.7943,3.8627,3.9065,3.9343,3.9302,3.9158,3.8768,3.8177,3.781,3.7738,3.7871,3.8745,3.8943,3.8708,3.9228,3.9388,3.9388,3.9388,3.9406,3.9337,3.9319,3.9406,3.9406,3.9406,3.9406,3.9406,3.9406,3.9406,3.9406,3.9406,3.9406,3.9406,3.9406,3.9406,3.9406,3.9406,3.9406,3.9406,3.9406,3.9406,3.9406,3.9406,3.9406,3.9406,3.9406,3.9406,3.9406,3.9406,3.9406,3.9406,3.9406,3.9406,3.9406,3.9406,3.9406,3.9406,3.9406,3.9388,3.9388,3.8727,3.8238,3.762,3.6914,3.5702,3.4692,3.4129,3.3598,3.3261,3.3102,3.3102,3.3102,3.3102,3.3102,3.3102,4.4942,4.362,4.3523,4.3548,4.3513,4.3513,4.3488,4.3488,4.3497,4.3462,4.3444,4.3374,4.2762,4.1969,4.1814,4.1473,4.103,4.0938,4.0862,4.0938,4.1127,4.0767,4.0502,4.0473,4.0331,4.0179,4.0113,4.0083,4.002,3.9529,3.8802,3.8262,3.8033,3.7455,3.6859,3.6165,3.5825,3.5914,3.6589,3.7169,3.7713,3.8225,3.8847,3.9253,3.9402,3.9401,3.932,3.9169,3.8697,3.8546,3.8727,3.9104,3.9388,3.9388,3.9406,3.9406,3.9406,3.9406,3.9406,3.9406,3.9406,3.9406,3.9406,3.9406,3.9406,3.9406,3.9406,3.9406,3.9406,3.9406,3.9406,3.9406,3.9406,3.9406,3.9406,3.9406,3.9406,3.9406,3.9406,3.9406,3.9406,3.9406,3.9406,3.9406,3.9406,3.9406,3.9406,3.9406,3.9406,3.9406,3.9406,3.9406,3.9406,3.9406,3.9406,3.9406,3.9406,3.9406,3.937,3.9265,3.8509,3.7738,3.704,3.6259,3.517,3.4304,3.3713,3.3398,3.321,3.3102,3.3102,3.3102,3.3102,3.3102,3.3102,4.5258,4.3891,4.3849,4.3876,4.3828,4.3597,4.3488,4.3488,4.3488,4.3488,4.3488,4.3488,4.306,4.2462,4.244,4.2049,4.1746,4.1468,4.1201,4.1235,4.1302,4.0744,4.0417,4.0311,4.0229,4.0154,4.0113,4.0113,4.007,3.9731,3.9675,3.9463,3.8802,3.8411,3.7745,3.6965,3.6548,3.6455,3.7211,3.7669,3.8122,3.8691,3.9122,3.9331,3.9406,3.9407,3.941,3.9399,3.9068,3.9141,3.921,3.9406,3.9406,3.9406,3.9406,3.9406,3.9406,3.9406,3.9406,3.9406,3.9406,3.9406,3.9406,3.9406,3.9406,3.9406,3.9406,3.9406,3.9406,3.9406,3.9406,3.9406,3.9406,3.9406,3.9406,3.9406,3.9406,3.9406,3.9406,3.9406,3.9406,3.9406,3.9406,3.9406,3.9406,3.9406,3.9406,3.9406,3.9406,3.9406,3.9406,3.9406,3.9406,3.9406,3.9406,3.9406,3.9406,3.9388,3.937,3.9228,3.8675,3.7833,3.6716,3.5628,3.465,3.3911,3.3304,3.3102,3.3102,3.3102,3.3102,3.3102,3.3102,3.3102,3.3102,4.5217,4.4259,4.4069,4.3943,4.3772,4.3589,4.3488,4.3488,4.3488,4.3488,4.3488,4.3488,4.3205,4.2722,4.2645,4.248,4.2183,4.2131,4.1874,4.1457,4.1391,4.0908,4.0514,4.0266,4.0299,4.0204,4.0113,4.0113,4.0113,4.0113,4.0045,3.9965,3.9516,3.9019,3.8451,3.8008,3.7577,3.7383,3.7547,3.8109,3.8584,3.9047,3.9302,3.9406,3.9406,3.9406,3.9406,3.9406,3.9406,3.9406,3.9406,3.9406,3.9406,3.9406,3.9406,3.9406,3.9406,3.9406,3.9406,3.9406,3.9406,3.9406,3.9406,3.9406,3.9406,3.9406,3.9406,3.9406,3.9406,3.9406,3.9406,3.9406,3.9406,3.9406,3.9406,3.9406,3.9406,3.9406,3.9406,3.9406,3.9406,3.9406,3.9406,3.9406,3.9406,3.9406,3.9406,3.9406,3.9406,3.9406,3.9406,3.9406,3.9406,3.9406,3.9406,3.9406,3.9406,3.9406,3.9388,3.9177,3.8764,3.7942,3.6808,3.55,3.4199,3.3598,3.3102,3.3102,3.3102,3.3102,3.3102,3.3102,3.3102,3.3102,3.3102,4.4931,4.4547,4.4142,4.382,4.3522,4.3488,4.3488,4.3488,4.3488,4.3488,4.3488,4.3488,4.325,4.2939,4.2883,4.2873,4.2693,4.2607,4.2213,4.1782,4.1821,4.1297,4.0558,4.0504,4.0331,4.0179,4.0113,4.0113,4.0113,4.0113,4.0113,4.0113,4.0033,3.9519,3.8731,3.9173,3.8928,3.8462,3.8188,3.8305,3.8665,3.9047,3.9406,3.9406,3.9406,3.9406,3.9406,3.9406,3.9406,3.9406,3.9406,3.9406,3.9406,3.9406,3.9406,3.9406,3.9406,3.9406,3.9406,3.9406,3.9406,3.9406,3.9406,3.9406,3.9406,3.9406,3.9406,3.9406,3.9406,3.9406,3.9406,3.9406,3.9406,3.9406,3.9406,3.9406,3.9406,3.9406,3.9406,3.9406,3.9406,3.9406,3.9406,3.9406,3.9406,3.9406,3.9406,3.9406,3.9406,3.9406,3.9406,3.9406,3.9406,3.9406,3.9406,3.9406,3.9406,3.9406,3.9406,3.9228,3.887,3.7942,3.6866,3.5271,3.367,3.3441,3.3102,3.3102,3.3102,3.3102,3.3102,3.3102,3.3102,3.3102,3.3102,4.5134,4.4579,4.4161,4.3812,4.3513,4.3488,4.3488,4.3488,4.3488,4.3488,4.3488,4.3479,4.3436,4.3268,4.3232,4.3232,4.3196,4.2893,4.2352,4.1863,4.1761,4.142,4.0353,4.0485,4.0306,4.0171,4.0113,4.0113,4.0113,4.0113,4.0113,4.0113,4.01,3.9679,3.9405,4.0041,3.9854,3.9456,3.9397,3.9087,3.9201,3.9251,3.9406,3.9406,3.9406,3.9406,3.9406,3.9406,3.9406,3.9406,3.9406,3.9406,3.9406,3.9406,3.9406,3.9406,3.9406,3.9406,3.9406,3.9406,3.9427,3.9427,3.9427,3.9406,3.9406,3.9406,3.9406,3.9406,3.9406,3.9406,3.9406,3.9406,3.9406,3.9406,3.9406,3.9406,3.9406,3.9406,3.9406,3.9406,3.9406,3.9406,3.9406,3.9406,3.9406,3.9406,3.9406,3.9406,3.9406,3.9406,3.9406,3.9406,3.9406,3.9406,3.9406,3.9406,3.9406,3.9406,3.9406,3.921,3.8925,3.7682,3.6344,3.4581,3.3219,3.3124,3.3102,3.3102,3.3102,3.3102,3.3102,3.3102,3.3102,3.3102,3.3102,4.5156,4.4757,4.4226,4.3794,4.3539,4.3488,4.3488,4.3488,4.3488,4.3488,4.3488,4.3488,4.3488,4.3488,4.3488,4.3488,4.3444,4.3214,4.278,4.2223,4.1768,4.1519,4.1065,4.0732,4.0684,4.0558,4.0204,4.0113,4.0113,4.0113,4.0113,4.0113,4.01,4.0125,4.0161,4.0337,4.0487,4.035,4.053,4.044,3.999,3.9684,3.9442,3.9406,3.9406,3.9406,3.9406,3.9406,3.9406,3.9406,3.9406,3.9406,3.9406,3.9406,3.9406,3.9406,3.9406,3.9406,3.9406,3.9463,3.9574,3.9684,3.9484,3.9463,3.9935,3.9917,3.9424,3.9406,3.9406,3.9406,3.9406,3.9406,3.9406,3.9406,3.9406,3.9406,3.9406,3.9406,3.9406,3.9406,3.9406,3.9406,3.9406,3.9406,3.9406,3.9406,3.9406,3.9406,3.9406,3.9406,3.9406,3.9406,3.9406,3.9406,3.9406,3.9406,3.9406,3.9406,3.9406,3.8907,3.8383,3.7123,3.5734,3.4311,3.3356,3.3124,3.3102,3.3102,3.3102,3.3102,3.3102,3.3102,3.3102,3.3102,3.3102,4.5028,4.4865,4.4219,4.3783,4.3522,4.3488,4.3488,4.3488,4.3488,4.3488,4.3488,4.3488,4.3488,4.3488,4.3488,4.3488,4.341,4.3178,4.2939,4.2703,4.246,4.1923,4.165,4.1563,4.107,4.0636,4.0303,4.0159,4.0113,4.0113,4.0113,4.0113,4.0134,4.0169,4.0405,4.0762,4.1098,4.1182,4.1326,4.1515,4.0877,4.0028,3.9791,3.9628,3.946,3.9424,3.9406,3.9406,3.9406,3.9406,3.9424,3.9589,3.9556,3.9556,3.9628,3.9628,3.9481,3.9445,3.9442,3.9613,3.992,4.008,3.9722,3.9811,4.0291,4.0202,3.9702,3.9592,3.9592,3.961,3.961,3.9571,3.9556,3.9406,3.9406,3.9406,3.9406,3.9406,3.9406,3.9406,3.9406,3.9406,3.9406,3.9406,3.9406,3.9406,3.9406,3.9406,3.9406,3.9406,3.9406,3.9406,3.9406,3.9406,3.9406,3.9406,3.9406,3.9406,3.9301,3.862,3.7852,3.678,3.5674,3.4464,3.3691,3.324,3.3102,3.3102,3.3102,3.3102,3.3102,3.3102,3.3102,3.3102,3.3102,4.4763,4.4183,4.3767,4.3565,4.3488,4.3488,4.3488,4.3488,4.3488,4.3488,4.3488,4.3488,4.3488,4.3488,4.3488,4.3479,4.3436,4.3187,4.2912,4.2674,4.2491,4.2093,4.1793,4.1643,4.0856,4.0436,4.0241,4.0133,4.0113,4.0113,4.0113,4.0113,4.0146,4.0446,4.1103,4.1573,4.2136,4.2255,4.239,4.2599,4.1723,4.1012,4.0569,4.022,3.9773,3.9553,3.9406,3.9406,3.9406,3.9406,3.9463,3.9809,3.9864,3.9811,3.9884,3.9937,3.9776,3.9666,3.9737,4.0063,4.0449,4.0378,4.015,4.0237,4.0535,4.0603,4.0309,4.0343,4.0343,4.0378,4.0361,4.0202,4.0115,3.961,3.9406,3.9406,3.9406,3.9406,3.9406,3.9406,3.9406,3.9406,3.9406,3.9406,3.9406,3.9406,3.9406,3.9406,3.9406,3.9406,3.9406,3.9406,3.9406,3.9406,3.9406,3.9406,3.9406,3.9406,3.9141,3.842,3.7591,3.6643,3.5494,3.4137,3.3577,3.3188,3.3102,3.3102,3.3102,3.3102,3.3102,3.3102,3.3102,3.3102,3.3102]}]]